GFSSW_250_rhum_000.txt.gz
RH
22 16 9 7 6 7 8 7 10 11 13 15 14 18 18 20 24 24 25 26 37 31 33 26 21 20 18 17 15 24 23 24 25 26 29 32 37 37 43 53 47 34 28 30 27
30 14 9 8 7 6 6 7 6 9 11 12 15 16 19 20 21 22 27 27 32 39 43 37 28 20 22 20 17 19 20 22 24 24 25 29 30 28 39 56 42 33 34 30 25
46 20 7 4 4 7 6 5 7 6 9 11 12 13 17 20 19 25 27 28 26 36 40 43 27 33 31 23 18 19 17 18 22 24 27 28 24 28 42 45 41 36 44 36 18
54 20 6 4 3 2 6 6 5 6 6 10 11 11 12 16 19 20 23 24 24 29 36 40 35 41 27 21 17 18 17 15 17 22 22 22 26 30 30 40 43 35 53 36 14
55 17 4 4 3 2 4 7 7 5 5 6 9 10 11 11 18 20 21 23 24 28 28 33 33 35 29 24 20 17 16 15 16 19 21 22 23 29 33 39 38 48 52 26 12
60 24 4 4 3 3 2 4 7 5 6 5 7 7 10 12 15 20 22 19 24 28 30 28 40 34 24 27 24 17 16 15 16 17 16 24 25 37 32 41 60 55 39 16 14
80 41 8 4 2 2 2 2 4 7 5 6 5 6 8 20 11 18 20 19 19 24 30 36 31 25 22 27 26 20 17 16 15 16 16 22 26 34 46 66 71 52 34 16 33
100 64 14 5 3 1 1 2 3 6 6 6 6 6 9 16 10 15 16 16 17 24 27 33 26 19 19 22 27 24 20 17 16 18 22 22 25 44 59 70 55 57 31 18 38
100 85 29 7 4 2 2 2 2 4 8 6 6 6 10 8 11 18 17 16 17 24 28 25 21 18 22 23 24 24 19 18 22 24 23 22 32 90 84 75 66 58 28 18 34
100 100 83 28 6 3 2 2 2 3 8 7 7 9 7 9 11 16 20 16 17 23 24 22 19 18 23 23 27 25 19 20 22 28 22 22 34 100 96 83 78 67 22 19 39
100 100 100 52 19 5 3 3 2 2 7 8 9 12 9 9 10 12 16 17 18 16 18 19 18 19 24 27 23 22 22 22 28 26 21 21 41 70 89 89 83 59 22 24 47
100 100 100 100 54 14 5 4 3 3 7 7 9 12 10 9 11 11 13 15 14 16 14 16 16 21 24 20 22 21 22 25 29 26 18 22 44 84 82 82 76 51 24 22 54
100 100 100 100 99 26 6 5 4 4 8 8 10 12 12 10 12 12 12 15 18 15 14 18 20 23 23 20 22 22 24 26 29 26 18 27 40 77 82 69 66 48 25 19 40
100 100 100 100 100 98 13 7 5 6 11 10 12 14 12 11 12 12 12 13 14 15 14 17 20 15 18 20 22 21 24 29 31 26 19 50 66 76 77 70 73 42 26 21 22
99 100 100 100 100 100 90 23 8 9 14 12 15 17 14 12 13 12 11 12 14 14 13 14 13 13 14 18 21 21 25 28 29 25 19 43 64 80 84 64 67 35 24 24 26
67 100 100 100 100 100 100 90 12 11 17 12 15 18 16 13 14 12 11 12 13 13 14 14 14 14 19 19 21 22 24 28 28 24 22 28 75 90 83 69 58 32 31 33 35
81 100 100 100 100 100 100 100 34 12 17 12 15 18 17 15 13 12 11 11 11 11 11 12 13 14 17 18 20 26 25 25 27 26 23 33 99 100 92 70 61 35 34 37 40
98 100 100 100 100 100 100 100 98 13 19 17 15 18 19 18 15 13 12 14 14 15 15 13 12 14 16 17 22 27 26 22 27 26 23 36 100 100 93 66 65 38 37 34 39
72 100 99 100 100 100 100 100 100 95 23 26 19 17 19 21 21 14 15 16 17 16 14 13 16 19 19 19 24 29 28 26 29 26 24 52 100 100 99 68 70 45 37 42 45
90 100 100 100 98 100 100 100 100 100 100 38 31 34 23 21 23 22 24 25 22 19 18 15 16 17 19 23 27 29 27 28 26 25 34 61 100 100 100 92 74 54 43 48 55
82 75 100 100 77 100 100 91 100 100 100 100 65 51 37 44 38 26 24 28 28 28 25 28 28 26 26 29 32 28 29 29 26 24 48 74 100 100 100 100 86 63 56 50 50
86 76 100 100 100 94 99 100 100 100 100 92 100 100 67 37 40 38 42 45 44 32 27 28 30 27 27 26 25 29 31 29 29 39 64 88 100 100 100 100 100 80 65 65 66
91 82 100 90 100 100 63 100 100 100 100 64 81 87 87 62 40 37 36 41 43 59 56 37 37 34 31 32 36 36 38 33 30 54 94 100 100 100 100 100 100 100 92 83 82
87 74 66 100 87 100 100 84 98 100 99 97 95 100 83 89 89 90 73 65 56 48 42 40 41 46 50 44 38 33 31 41 100 100 99 100 100 100 100 100 100 100 100 100 100
90 100 63 51 100 91 100 97 95 100 79 100 100 100 100 100 99 100 100 100 98 98 98 88 80 79 66 45 44 48 92 100 100 100 100 100 100 100 100 100 100 100 100 100 93
80 100 99 67 76 95 93 100 100 80 75 99 100 100 100 99 100 100 100 100 100 100 100 100 100 100 100 97 100 100 100 100 100 100 100 100 100 100 100 100 95 84 73 63 63
70 70 86 75 96 62 75 100 100 100 100 63 68 74 100 100 100 93 100 100 100 100 100 100 99 100 100 100 100 100 100 100 100 100 100 100 99 93 83 74 64 61 61 62 54

GFSSW_250_rhum_003.txt.gz
RH
28 27 26 24 21 16 12 11 8 6 11 11 10 12 15 16 17 20 26 31 29 25 30 24 29 30 31 30 29 26 25 25 22 26 30 29 31 30 28 26 28 28 31 44 49
42 33 30 25 19 14 9 8 10 7 6 10 10 10 14 16 15 17 28 27 24 24 28 22 23 23 24 25 23 18 19 22 23 26 28 28 28 27 24 24 25 32 39 45 49
49 46 42 55 29 14 8 6 5 9 6 6 10 10 11 15 14 18 22 30 22 26 26 20 19 21 23 25 26 22 17 16 22 24 26 27 26 24 23 26 24 24 29 35 57
56 60 83 84 38 9 4 4 3 4 7 6 6 9 10 12 16 19 20 26 21 25 26 20 18 26 37 35 24 19 17 14 15 19 25 25 25 25 24 25 26 26 30 47 56
78 77 100 89 45 9 3 3 3 3 6 6 5 7 9 10 15 20 20 22 20 25 27 22 19 33 41 34 20 23 19 16 15 16 19 19 21 23 25 23 30 30 40 55 45
81 98 97 95 36 7 4 3 4 3 5 7 5 5 7 9 14 20 19 20 19 26 27 25 26 38 34 31 29 29 20 17 16 15 15 17 19 25 23 31 57 59 48 55 57
96 100 98 100 42 5 4 3 3 3 4 6 6 5 6 13 13 17 19 19 20 26 26 30 25 24 41 35 43 22 21 18 15 15 14 16 19 24 29 37 87 97 70 74 58
100 100 100 100 56 7 4 2 2 3 3 5 5 5 6 12 10 16 18 19 20 25 28 28 25 23 35 40 37 22 22 22 16 14 14 18 17 32 38 40 91 100 91 80 78
89 82 100 100 84 13 4 2 1 3 2 5 6 6 8 8 10 16 19 19 20 25 23 23 24 26 30 38 33 27 25 25 22 18 16 17 19 44 44 49 100 100 92 76 68
70 100 95 100 84 24 5 2 1 2 3 5 5 5 8 7 11 13 20 19 22 24 23 19 21 26 30 34 46 37 20 23 26 21 16 17 19 43 41 60 100 100 97 86 63
80 95 100 100 75 36 10 4 2 2 3 6 7 9 8 7 10 12 16 19 21 21 20 18 20 26 31 43 45 28 21 24 24 20 14 14 22 45 46 89 99 100 99 82 52
96 92 100 100 99 53 19 4 3 3 2 5 6 9 7 6 10 12 12 18 16 18 20 18 19 24 28 37 33 28 28 30 27 24 15 14 25 50 49 96 100 100 93 70 42
100 100 100 100 100 76 21 7 4 4 3 5 6 9 7 6 9 13 12 14 16 16 19 20 22 22 28 34 34 31 40 33 26 24 21 17 29 42 75 87 88 86 83 65 38
100 82 100 100 100 100 30 12 6 5 4 7 6 9 8 7 8 12 12 14 15 14 16 20 21 21 25 33 34 31 38 25 24 23 23 20 30 43 51 94 73 63 74 60 40
100 100 100 100 100 100 69 17 10 6 6 9 9 9 9 8 9 12 12 12 16 18 13 17 18 18 24 31 30 34 26 25 23 22 23 22 30 47 52 76 77 63 67 56 45
100 100 100 100 100 100 93 20 11 9 8 13 11 9 11 10 9 9 12 13 15 15 18 22 20 20 28 30 29 21 24 27 24 21 28 24 35 46 69 82 74 66 69 59 44
100 70 100 100 100 100 100 46 18 12 15 16 12 12 13 13 10 8 10 11 11 11 14 19 20 20 26 26 22 20 24 25 25 22 32 24 38 41 70 68 79 68 62 50 50
100 100 100 100 100 100 100 100 20 19 19 16 13 14 14 14 11 10 9 11 11 14 16 17 13 18 21 21 22 21 22 24 23 22 28 26 45 52 82 71 70 87 65 56 56
100 99 82 100 100 100 100 100 22 25 18 18 15 14 14 13 12 9 10 12 13 13 13 14 18 24 26 24 22 21 22 22 22 21 26 28 38 44 61 62 61 75 86 72 59
96 63 72 87 100 100 100 100 38 34 23 16 19 20 18 14 13 12 12 13 14 13 14 14 18 20 20 20 18 18 21 21 20 22 27 30 32 42 45 54 53 67 81 90 68
75 98 74 88 100 100 100 100 100 36 37 24 19 20 25 23 20 18 18 17 15 14 13 14 14 16 16 16 17 18 18 20 20 22 29 28 32 35 40 45 74 87 76 90 89
71 82 100 74 91 100 100 100 100 78 40 39 21 19 26 24 26 28 26 22 21 21 16 14 15 14 15 16 17 16 17 17 19 25 31 29 32 30 34 39 66 100 100 92 99
87 100 98 100 73 84 100 100 100 100 71 43 45 33 25 26 31 42 38 28 23 23 22 19 18 17 16 15 16 17 18 20 19 26 32 28 30 28 31 52 91 100 100 100 100
83 86 86 100 90 89 80 100 100 100 100 78 45 49 56 49 35 33 39 41 33 26 23 22 20 20 19 24 21 23 22 21 27 33 30 30 31 29 35 76 100 100 100 100 100
68 83 100 100 100 89 88 83 100 96 100 100 87 59 48 52 61 56 42 41 39 37 35 28 26 25 22 21 19 17 20 28 32 29 30 35 35 30 79 100 100 100 100 100 100
52 85 87 95 87 100 86 91 80 100 94 98 96 100 88 66 52 47 52 52 57 52 47 33 31 34 33 32 32 31 31 30 29 36 43 41 56 100 100 100 100 100 100 100 100
52 65 62 72 92 100 100 100 76 82 100 100 84 82 88 100 100 80 58 52 49 47 49 53 59 53 49 41 40 42 46 49 48 44 53 99 100 100 100 100 100 100 99 92 79

GFSSW_250_rhum_006.txt.gz
RH
43 35 28 28 30 33 29 28 26 25 18 13 10 12 10 10 12 16 21 29 35 34 34 30 35 40 43 49 48 50 63 72 75 64 55 50 40 30 28 28 26 25 22 30 36
52 36 37 40 46 54 53 41 26 21 17 16 12 8 12 9 10 14 25 28 26 29 33 34 35 39 40 42 42 40 39 40 48 42 34 31 30 28 24 21 25 26 27 27 23
44 43 55 49 76 73 91 81 49 31 17 10 11 10 7 11 9 14 15 25 25 25 27 31 36 39 36 36 42 40 39 34 31 30 29 28 28 29 21 21 27 28 25 21 21
46 51 58 70 70 96 91 100 53 28 13 9 6 9 8 8 10 12 15 19 27 22 23 26 31 36 31 39 42 37 35 29 22 22 25 26 28 24 26 26 25 25 25 25 24
53 65 68 100 74 96 100 100 58 15 4 4 5 6 6 7 11 12 15 19 22 21 20 23 26 32 29 36 38 33 28 23 19 20 18 24 26 26 26 23 25 26 24 23 27
58 79 78 90 85 100 100 93 37 6 4 3 3 5 6 8 11 10 14 20 15 21 22 22 26 30 25 26 30 28 22 22 23 18 14 18 19 24 22 22 29 33 26 24 29
57 81 78 91 100 100 99 76 20 5 4 3 3 4 4 11 8 10 14 18 14 22 22 27 25 29 25 25 25 24 20 26 20 16 17 16 16 16 18 22 27 35 27 28 35
85 78 80 66 78 99 86 60 13 4 2 3 3 3 5 7 7 10 12 16 16 21 21 25 25 26 25 22 23 30 19 29 15 23 17 18 15 16 17 20 23 28 31 37 70
65 80 92 53 76 100 91 64 14 4 2 2 2 2 4 6 7 12 12 15 16 18 21 22 24 25 26 20 25 26 27 38 19 21 22 17 14 15 17 19 23 28 33 60 100
70 86 100 57 98 97 100 67 20 3 2 2 2 2 5 7 6 11 13 14 18 18 21 19 22 24 27 21 23 41 56 36 25 20 24 20 18 19 17 22 28 32 45 99 100
77 88 68 76 100 99 98 77 14 3 2 1 3 3 5 6 6 11 13 14 17 17 20 18 20 24 27 30 33 40 44 32 41 24 25 25 24 21 18 22 32 44 100 100 100
83 70 88 77 100 100 89 92 20 6 2 2 3 4 5 5 6 12 12 14 17 15 20 18 18 28 29 29 29 31 33 49 43 28 21 22 22 22 16 20 30 43 92 100 100
70 69 61 82 100 100 100 51 22 6 3 3 4 4 5 5 6 9 12 14 17 17 20 17 19 28 26 29 33 32 40 41 41 35 19 24 23 23 17 17 26 37 100 100 100
89 61 67 82 100 100 100 62 19 7 6 5 4 4 6 5 6 8 12 14 18 18 20 18 19 26 24 31 32 36 42 41 41 37 20 31 26 26 21 18 26 32 78 100 100
90 67 100 100 100 100 100 65 22 10 9 6 5 7 5 6 8 8 12 13 18 22 18 17 18 24 23 29 31 39 36 37 37 37 26 30 30 27 23 18 26 35 40 100 100
78 74 100 100 100 100 100 88 22 15 11 7 8 9 5 6 8 9 11 14 17 20 19 19 19 21 23 31 32 32 31 31 36 35 32 31 35 25 24 20 23 29 30 60 100
81 76 94 100 100 100 100 100 25 20 10 8 10 10 7 7 9 9 10 13 14 16 16 18 19 22 24 25 25 27 26 30 36 37 37 29 33 30 25 21 29 29 28 52 100
88 65 78 100 100 100 100 100 34 17 12 11 12 10 8 8 9 8 10 12 13 16 21 19 15 19 20 22 25 26 28 32 36 37 32 23 31 34 26 22 25 34 24 38 100
81 67 69 100 100 100 100 100 43 22 17 15 12 9 9 8 8 7 9 12 13 14 16 18 26 23 23 23 24 25 25 28 32 32 30 27 30 34 27 23 22 28 29 39 75
60 84 82 100 100 100 100 100 53 30 19 14 11 12 11 10 10 8 8 11 14 14 15 18 23 25 24 22 24 25 25 25 31 30 30 29 28 29 25 21 22 27 32 43 46
56 78 64 100 100 100 100 73 62 32 19 13 15 16 15 17 16 14 11 10 13 15 14 16 19 21 23 24 23 25 25 25 29 32 30 29 27 25 24 22 23 25 33 40 48
66 92 66 100 100 97 100 100 62 38 22 16 16 16 18 19 18 18 15 12 12 15 17 16 16 17 20 23 24 26 24 22 29 29 25 26 27 24 22 19 26 29 31 34 34
71 90 65 100 100 84 100 100 63 66 29 26 21 20 18 19 18 16 15 14 14 14 17 17 16 17 18 20 20 22 22 25 28 26 24 23 25 20 20 21 30 31 32 32 29
68 72 100 78 100 81 100 100 99 55 52 30 33 27 27 26 25 22 20 19 17 17 17 17 18 18 20 23 24 25 25 26 26 23 21 21 22 20 21 24 33 34 34 35 36
61 80 95 100 84 91 98 100 100 98 59 59 40 25 28 33 27 26 25 21 19 18 18 20 19 18 19 19 17 18 18 17 18 18 19 21 22 22 24 30 34 34 35 35 37
80 68 61 100 100 100 100 100 100 100 100 60 48 30 32 38 43 39 40 29 26 26 22 20 18 17 17 16 15 14 14 16 17 19 21 20 19 24 30 38 38 36 40 42 71
93 54 78 92 100 89 89 97 100 100 100 100 84 54 44 27 31 35 35 35 35 33 28 25 22 20 21 18 17 17 18 19 19 20 22 25 26 26 39 43 40 45 60 76 82

GFSSW_250_rhum_009.txt.gz
RH
52 50 42 36 41 36 28 28 30 31 31 26 23 21 22 14 12 18 16 16 20 23 24 28 31 30 34 42 82 89 83 80 86 88 59 62 66 70 56 90 74 58 72 66 47
63 57 46 44 43 31 34 36 35 37 51 48 29 22 20 20 14 11 18 13 16 23 23 26 33 31 35 36 58 83 94 93 81 91 96 100 82 80 73 74 71 74 62 35 30
79 65 56 52 40 40 51 57 58 64 72 92 78 36 17 17 17 16 12 15 14 18 25 24 33 30 34 42 49 59 77 80 86 84 87 94 85 80 74 66 57 38 32 28 27
80 72 71 61 44 61 80 82 90 100 100 98 85 55 20 15 14 18 14 15 13 15 24 22 27 30 33 46 53 51 53 61 63 52 54 52 52 53 49 43 33 30 30 30 30
84 76 74 66 53 75 79 71 87 99 100 95 74 50 22 16 15 14 11 13 11 13 21 24 24 29 35 50 50 49 44 45 53 46 40 39 38 37 34 28 27 30 30 27 25
88 82 84 72 71 80 60 72 100 98 100 92 68 25 10 8 8 8 9 10 10 12 19 22 23 27 38 46 46 53 40 38 37 40 36 27 26 30 25 28 30 30 27 24 23
88 86 92 68 76 78 67 78 96 100 100 79 38 11 3 3 4 5 10 8 12 10 18 22 25 25 34 41 47 48 34 31 40 38 31 23 22 20 23 24 25 27 24 21 22
88 84 94 69 92 91 78 95 98 100 94 50 14 4 3 3 3 4 10 8 11 10 18 19 24 24 29 34 41 47 25 36 36 34 26 32 17 25 18 18 20 21 20 19 19
94 92 89 67 96 63 69 97 100 99 62 21 8 3 2 2 4 4 9 7 11 11 16 18 21 23 24 32 35 32 29 32 29 26 38 31 16 31 18 16 15 16 18 20 24
99 93 71 77 68 64 90 100 98 75 46 11 4 2 2 3 3 6 9 7 10 11 14 17 18 22 22 29 25 28 33 28 24 35 36 25 17 34 20 16 15 15 18 28 34
97 92 55 83 60 75 99 96 100 60 28 8 4 3 2 3 3 6 9 7 10 10 12 16 18 20 21 27 26 34 31 25 20 43 48 28 19 27 23 19 18 16 22 27 35
95 87 54 76 51 67 100 100 92 37 36 9 4 2 2 2 4 6 8 7 10 11 12 14 17 20 24 26 26 27 32 21 25 54 49 34 19 22 25 20 16 16 21 29 35
98 86 68 63 59 83 100 100 84 48 33 8 4 2 2 3 4 7 9 8 11 11 11 16 18 20 23 23 26 28 36 26 32 59 43 41 22 24 23 19 18 16 18 26 28
100 82 69 61 88 100 100 100 78 44 24 12 6 4 4 4 5 8 8 8 12 12 12 17 20 21 23 23 27 30 40 24 29 47 34 40 34 23 23 22 19 18 17 19 27
100 82 68 73 100 100 100 100 74 54 15 11 6 6 5 5 6 9 8 8 13 12 11 15 20 20 22 25 29 35 33 22 26 42 33 44 43 32 27 29 24 21 19 18 23
100 77 64 82 100 100 100 100 86 54 16 10 8 6 6 6 8 7 8 9 14 12 13 15 23 21 22 25 28 29 25 27 30 35 38 39 46 32 29 34 27 22 22 18 18
98 67 58 79 100 100 100 100 97 42 17 13 10 6 7 8 8 8 8 11 13 12 12 17 25 23 21 23 26 28 27 28 31 36 46 42 53 30 36 36 29 25 22 21 20
95 63 58 78 100 100 100 100 86 32 19 14 8 7 8 8 8 8 8 11 13 12 12 16 20 25 24 20 24 30 30 32 37 43 49 38 51 38 32 31 29 26 24 21 25
92 56 66 99 100 96 100 69 74 31 17 15 11 11 9 8 7 7 9 13 14 13 12 18 23 28 22 20 22 27 28 35 39 39 41 40 44 48 34 31 26 26 26 26 26
90 58 59 100 79 100 92 74 55 33 20 16 12 12 10 8 7 8 10 15 15 14 15 18 24 29 25 18 19 23 27 26 32 35 35 39 39 40 39 29 25 26 29 29 26
98 59 61 100 61 100 96 65 57 35 25 21 16 14 13 12 12 10 10 12 16 15 16 18 23 29 24 19 20 21 24 26 30 31 33 33 39 34 33 28 27 27 29 27 26
100 62 66 100 57 100 100 59 50 34 25 20 18 15 19 20 19 17 15 14 17 18 18 19 22 30 25 22 21 21 21 25 26 26 26 28 30 29 33 32 29 28 26 26 23
100 72 80 97 86 100 100 71 64 32 27 24 23 21 18 19 17 12 10 11 14 17 18 18 19 25 26 22 19 19 21 22 24 27 27 29 34 30 26 28 31 30 28 26 23
100 86 62 100 64 100 100 100 57 49 39 32 32 34 28 22 20 18 13 11 13 16 16 16 18 20 26 31 33 32 30 27 23 23 26 27 28 26 24 29 33 30 27 25 22
100 94 69 99 82 100 100 100 72 62 48 48 36 30 24 22 22 19 17 15 12 12 15 16 16 17 20 25 26 28 28 25 23 24 22 26 26 27 29 33 32 26 24 23 23
100 100 69 98 90 100 97 100 100 65 61 54 36 31 30 26 20 15 16 16 15 15 14 15 18 17 17 18 20 22 21 22 22 23 26 27 28 27 29 31 28 23 22 23 25
100 100 55 100 79 97 100 100 100 96 67 66 67 37 31 28 26 27 22 20 16 14 13 13 15 18 19 18 17 18 18 18 19 21 24 26 27 27 28 25 23 23 24 25 27

GFSSW_250_rhum_012.txt.gz
RH
26 31 46 47 44 45 43 46 43 40 33 30 26 25 24 24 24 24 20 20 22 15 16 19 23 27 25 26 28 31 50 98 100 100 90 98 86 88 99 90 81 58 56 50 44
32 36 44 46 47 47 48 53 49 41 37 41 40 34 32 30 28 26 26 21 19 20 15 15 21 25 25 28 28 29 41 56 98 100 98 98 100 93 72 66 62 54 56 50 44
33 40 47 44 47 48 54 53 51 41 47 53 54 55 49 51 44 29 24 21 19 18 20 13 17 23 29 29 30 29 38 37 60 79 84 78 85 100 92 79 69 51 39 52 63
33 42 54 43 48 45 55 59 52 52 68 74 74 81 100 99 56 49 27 22 19 17 21 15 14 20 30 34 36 38 43 30 39 72 97 100 90 77 73 80 92 81 83 78 71
41 36 62 46 49 54 69 71 59 70 77 81 100 100 100 93 77 45 36 19 20 16 18 20 12 16 27 38 39 42 44 43 62 96 100 100 98 90 82 69 63 78 77 61 45
48 38 77 51 57 69 75 74 74 73 98 96 97 100 100 76 67 35 30 24 20 19 16 19 14 16 23 37 38 49 48 42 50 76 94 86 87 83 70 57 57 49 43 36 32
58 45 88 59 65 76 86 65 75 89 97 100 100 100 72 91 64 41 23 26 24 19 17 18 16 14 21 35 40 42 46 46 50 60 64 60 51 53 54 42 38 35 34 31 27
66 45 88 65 71 79 80 56 59 95 100 100 100 98 100 84 40 26 15 9 17 17 17 14 14 11 19 30 39 36 40 48 51 54 53 53 48 46 35 29 28 30 29 28 25
67 48 97 69 81 84 78 55 74 87 93 90 80 88 87 47 16 6 4 4 7 12 14 11 11 11 17 28 34 34 38 51 48 45 48 51 43 36 26 25 24 23 23 20 21
67 52 96 72 87 88 72 60 73 100 90 100 95 72 33 21 8 3 2 2 3 6 9 9 10 11 16 27 26 36 39 50 46 45 56 52 42 36 29 26 22 19 17 16 15
80 67 98 81 90 89 64 68 82 92 95 82 95 42 22 15 6 2 2 2 2 5 7 9 9 10 17 27 29 39 55 49 39 44 54 50 40 44 34 29 20 17 16 16 16
88 81 97 90 93 88 73 100 92 87 85 98 71 24 13 10 4 2 3 3 4 6 8 9 9 13 20 29 30 41 50 40 25 45 48 51 34 46 33 26 19 19 18 16 15
86 96 97 98 94 79 93 96 80 77 64 90 45 14 11 6 3 2 3 3 5 7 10 9 15 13 22 27 28 35 36 26 25 42 49 54 29 34 27 24 26 23 20 17 18
89 100 97 100 98 78 97 100 74 86 82 75 29 18 12 6 3 3 3 4 6 10 12 11 13 13 21 26 28 36 37 20 27 38 50 50 32 34 28 22 26 22 22 20 19
91 100 95 100 88 72 94 89 87 92 90 40 18 14 10 6 5 3 3 4 7 10 12 12 13 15 22 27 28 36 33 18 24 37 53 46 40 35 36 28 24 21 23 22 20
95 98 98 100 70 70 100 84 88 99 82 32 17 11 6 5 4 3 4 6 8 12 11 14 14 17 24 29 28 32 26 19 24 39 50 40 48 26 43 37 27 23 24 24 22
96 99 100 96 66 72 98 78 97 90 51 27 15 8 5 4 4 4 5 8 12 13 13 16 13 19 26 29 28 27 23 20 22 34 48 39 52 23 50 43 36 27 28 28 27
100 98 100 86 70 85 82 88 96 77 35 24 14 7 5 4 4 5 5 10 15 12 16 14 13 21 30 28 26 23 23 23 23 37 48 42 64 27 39 40 40 39 33 29 30
100 99 100 73 76 81 88 86 90 62 32 24 16 10 6 5 4 6 8 14 14 12 17 14 15 18 26 25 25 22 22 25 26 39 50 46 64 35 36 45 41 40 36 30 30
100 100 98 69 79 74 71 97 74 53 31 22 15 13 11 9 7 8 12 14 12 14 14 12 15 18 22 24 24 24 24 26 27 38 47 34 46 40 35 44 46 42 38 36 31
99 100 95 64 77 73 76 86 57 53 35 21 17 14 16 14 14 12 14 13 11 14 14 13 14 16 22 24 24 25 24 27 30 34 43 41 38 43 38 36 35 37 36 35 33
100 100 86 62 76 90 78 71 52 48 42 28 24 20 19 20 21 17 17 15 17 18 18 13 14 17 27 30 22 23 22 23 28 32 37 47 42 38 40 36 32 31 32 31 34
100 100 92 63 80 98 77 71 51 55 41 35 32 29 24 26 27 26 21 18 23 22 20 18 16 18 22 21 18 20 22 22 27 32 34 36 41 41 37 32 28 26 27 29 33
100 99 96 71 71 71 93 62 56 77 59 36 27 28 27 28 27 23 25 25 25 23 19 17 16 18 20 32 32 26 26 22 23 26 30 34 36 34 29 25 27 28 29 30 31
100 97 100 87 65 84 100 62 62 83 66 53 32 31 30 24 20 21 19 21 22 22 20 17 18 17 19 23 26 29 31 23 20 22 22 25 25 28 27 30 30 29 29 28 28
100 96 100 87 66 78 95 83 58 61 78 50 44 33 27 21 16 12 14 16 16 19 22 19 19 18 20 21 24 29 33 32 26 22 30 34 38 31 28 27 28 30 29 28 28
100 96 100 89 73 58 80 100 70 64 66 74 50 32 33 28 23 17 14 12 12 14 16 19 18 19 19 20 21 25 34 35 34 30 31 29 31 26 29 29 29 28 28 28 27

GFSSW_250_rhum_015.txt.gz
RH
44 51 44 43 48 32 25 41 43 40 37 36 38 41 41 32 27 25 25 24 21 21 19 14 13 16 19 26 28 23 21 42 95 100 100 100 97 68 50 63 51 46 42 39 39
41 38 72 50 56 39 27 39 42 41 40 39 44 47 36 31 32 32 27 24 25 24 24 20 14 14 15 21 26 25 24 24 29 81 100 100 89 100 91 94 87 71 62 51 47
52 44 39 55 63 47 31 40 49 43 44 43 48 47 37 36 38 41 39 30 25 24 24 22 20 14 14 20 25 28 31 34 27 23 94 100 100 95 97 100 96 88 82 71 63
61 49 45 51 76 56 30 36 48 45 44 47 55 52 45 46 42 50 70 53 34 27 25 24 21 19 14 16 25 29 39 41 28 22 42 96 100 100 100 95 93 96 80 85 74
75 56 52 48 78 76 39 47 59 57 53 58 62 54 49 57 73 64 62 66 59 46 28 27 25 21 20 17 22 25 43 47 37 25 28 38 64 100 100 100 100 100 100 98 90
83 66 58 52 72 89 46 58 72 67 64 65 62 55 64 78 95 80 95 96 91 69 38 31 28 23 19 18 18 24 47 41 38 26 28 34 48 64 95 97 100 95 99 77 64
87 80 76 50 67 94 53 60 71 71 72 69 60 57 78 100 100 100 100 100 83 68 56 34 28 23 25 19 18 23 29 39 31 30 32 44 47 74 64 97 100 100 92 93 79
89 96 78 63 55 88 59 65 82 77 83 74 55 67 89 100 100 86 68 68 77 73 57 31 31 25 20 21 20 20 24 33 34 32 35 44 61 89 68 100 100 95 88 74 60
72 99 92 82 56 90 67 71 89 88 92 70 60 77 91 100 96 92 77 78 80 78 60 27 20 24 22 23 22 21 21 35 32 37 41 52 70 78 79 79 73 55 50 44 36
80 96 80 66 67 89 84 81 94 97 96 72 94 99 98 95 72 78 74 82 78 49 18 11 15 22 21 21 17 21 23 32 36 39 41 63 69 63 73 51 47 38 32 29 25
94 84 75 74 94 88 87 88 89 98 91 85 92 98 84 75 91 82 71 62 39 13 8 8 9 13 19 18 21 25 23 31 41 43 44 62 67 56 53 47 40 34 28 24 21
100 91 89 84 100 92 90 89 84 92 80 95 100 89 88 98 90 72 45 31 12 4 3 3 4 12 17 18 20 24 23 29 42 43 43 54 63 54 52 47 40 33 27 21 19
90 100 84 98 100 92 87 88 89 79 64 75 93 90 100 93 56 32 24 14 6 3 2 2 4 11 10 15 17 22 24 34 45 40 41 59 64 56 54 48 41 32 23 20 21
91 100 78 100 93 100 92 95 83 73 48 81 100 98 86 47 24 14 13 7 4 2 2 2 3 6 11 13 17 24 24 34 45 38 47 54 59 52 53 50 42 29 23 24 23
83 100 76 100 93 100 98 90 80 64 60 84 90 94 70 36 19 12 9 4 3 3 4 3 3 4 13 13 19 26 31 38 44 33 46 54 54 58 49 54 37 32 26 26 23
90 100 87 95 100 100 99 82 78 65 82 91 85 62 40 30 18 8 6 3 5 4 3 3 5 9 17 16 23 23 34 38 40 30 52 56 55 49 45 48 31 34 28 25 24
89 100 100 78 100 100 86 80 52 72 96 96 65 41 33 16 12 7 4 4 4 4 4 7 12 18 17 21 30 38 37 40 26 38 56 48 51 39 41 54 48 42 30 25 24
91 98 99 85 99 96 87 66 58 100 100 79 47 40 23 12 8 6 4 4 4 6 9 13 19 18 17 25 26 29 34 32 22 39 51 47 45 33 45 57 59 49 43 40 26
98 100 94 100 100 96 79 50 82 99 95 57 42 29 15 8 6 6 5 4 8 10 10 20 21 16 20 33 22 29 31 24 25 52 45 42 41 35 44 54 55 52 47 39 37
100 100 98 100 99 96 66 49 89 93 83 48 38 20 14 7 6 6 5 11 16 16 19 24 22 18 24 17 27 42 33 26 35 54 41 34 37 32 37 54 55 51 42 39 34
100 100 100 100 100 93 50 58 92 85 73 47 36 16 14 8 7 6 12 20 24 29 28 38 30 22 21 22 30 27 26 24 38 41 35 32 37 38 29 47 51 48 44 41 38
100 100 100 100 99 84 56 70 87 72 64 47 35 20 16 11 12 20 18 19 24 26 25 36 45 28 21 24 35 30 31 26 39 38 38 34 33 40 32 37 40 43 42 39 36
100 100 100 100 92 70 65 69 88 61 54 57 40 30 25 19 21 22 24 24 21 22 19 21 21 23 23 24 28 24 19 19 29 36 36 32 28 34 38 32 34 35 36 36 35
98 100 100 100 95 69 72 75 92 66 43 52 50 38 30 30 27 27 27 29 20 22 26 19 15 17 23 25 35 30 29 30 29 35 35 33 28 34 32 31 30 33 36 40 43
99 100 100 100 98 81 78 84 94 81 45 47 47 46 38 33 34 35 31 35 28 20 23 22 21 20 20 22 31 28 26 24 23 26 27 30 29 28 28 31 36 37 37 38 37
100 100 99 100 98 91 79 73 90 93 47 44 48 46 40 33 24 26 31 30 37 40 42 29 23 23 24 24 29 29 23 24 28 29 32 32 33 32 32 32 33 34 35 35 32
100 100 100 100 100 94 69 78 91 96 63 42 37 38 40 34 33 31 24 22 22 24 26 27 26 23 23 22 22 29 30 25 27 29 30 32 35 27 27 27 28 28 27 25 25

GFSSW_250_rhum_018.txt.gz
RH
99 83 59 58 55 45 37 36 35 39 35 28 41 37 36 33 32 34 33 31 30 27 23 21 19 17 16 13 15 19 19 22 22 22 62 100 100 100 91 91 84 77 60 60 80
98 98 76 58 64 52 46 38 40 42 49 26 38 38 38 37 35 34 37 35 27 25 24 22 20 18 17 16 13 16 20 24 28 20 25 60 100 100 100 97 94 94 72 48 50
82 84 83 63 79 64 57 44 41 45 50 37 27 49 45 40 43 46 47 36 27 23 22 22 22 20 20 18 15 15 17 28 32 24 18 24 90 100 100 100 98 100 72 57 46
100 98 100 62 71 70 65 50 44 49 48 40 30 52 50 42 43 48 42 36 33 31 32 29 22 21 24 21 18 12 16 22 31 30 19 25 45 96 100 100 100 100 86 70 69
90 100 100 84 79 80 73 61 54 48 56 51 40 52 59 47 53 45 48 44 40 37 39 35 31 24 24 27 20 16 18 19 28 29 20 22 26 48 81 100 100 96 92 96 92
100 98 98 78 89 79 79 72 57 56 59 62 50 50 64 59 57 54 50 48 48 47 54 53 50 33 25 26 24 20 16 19 22 27 21 21 28 28 29 70 99 100 100 100 97
100 94 73 70 88 89 77 80 81 68 58 67 54 51 70 73 64 56 51 51 50 65 78 78 70 45 36 25 27 25 19 18 19 24 25 20 26 32 29 22 68 100 100 100 100
100 100 85 87 70 73 96 90 100 84 73 65 70 61 79 78 80 68 52 54 75 72 68 77 64 53 46 30 27 25 21 19 20 20 28 24 37 47 31 20 36 52 90 100 100
100 100 100 100 83 82 82 84 94 76 63 63 72 72 83 100 81 76 68 64 71 74 67 64 65 62 47 35 28 24 19 22 21 19 25 27 48 46 31 22 37 40 71 93 100
100 100 100 100 100 100 92 82 85 68 76 68 68 81 83 100 94 94 88 82 76 81 95 94 89 88 78 48 31 26 28 23 25 20 24 29 48 37 33 29 55 54 96 97 100
59 100 100 100 100 100 87 93 86 87 87 80 78 86 78 90 97 85 78 88 100 99 100 100 99 81 85 62 34 24 23 18 26 21 22 30 52 34 37 31 73 94 100 94 83
42 41 88 98 88 91 88 99 79 98 70 82 92 87 85 88 73 80 91 95 99 100 100 90 77 95 52 32 17 18 20 20 23 24 22 34 50 38 41 39 84 87 81 66 53
53 34 44 81 97 84 100 82 97 90 59 77 100 100 95 73 77 96 92 100 100 95 85 52 37 18 11 13 12 17 17 25 22 27 24 34 46 42 44 58 78 74 70 51 43
56 37 34 74 93 98 96 89 100 73 58 82 100 98 77 74 94 98 93 79 61 52 30 10 19 11 8 8 11 16 16 23 23 25 22 35 48 48 31 60 57 65 60 48 41
53 43 39 71 96 92 93 91 100 62 68 80 81 67 65 96 95 82 55 39 35 28 12 13 10 4 3 4 5 22 16 21 24 25 27 33 47 45 33 67 67 60 51 45 40
49 40 39 73 100 100 92 100 90 76 85 75 59 61 76 74 55 45 48 32 20 9 9 6 3 3 3 2 10 17 15 20 24 24 25 30 50 44 38 71 62 56 52 46 37
46 35 38 78 95 100 100 100 76 92 83 63 66 71 59 46 48 39 24 18 9 7 4 3 3 2 2 5 11 16 26 28 23 22 22 37 47 32 47 65 60 57 53 49 34
44 28 42 91 96 100 100 84 94 86 81 62 79 60 42 40 29 20 11 8 4 4 4 4 4 3 4 7 13 17 19 21 28 23 27 30 34 33 53 71 64 58 52 51 36
40 25 66 78 98 100 88 100 93 91 58 81 66 44 43 24 17 8 7 6 4 4 5 5 5 7 15 25 26 46 38 34 28 51 48 41 42 48 55 65 66 54 50 45 38
31 35 88 71 100 97 100 99 95 69 80 74 65 41 34 18 9 7 6 6 5 5 6 6 13 29 32 31 37 41 47 51 33 53 34 44 40 50 56 60 58 51 51 49 51
23 53 81 87 98 100 100 95 90 66 76 85 53 46 27 13 10 8 7 7 8 12 11 21 23 28 30 36 54 78 50 31 42 45 43 47 40 53 57 55 53 48 51 54 56
37 86 71 92 100 100 99 99 64 77 80 86 51 52 28 12 11 12 13 14 24 28 26 39 37 49 56 60 56 84 42 26 46 43 45 44 52 56 49 52 48 47 49 55 48
61 74 83 99 100 100 100 81 66 79 90 72 51 58 31 28 21 19 18 33 41 41 53 57 54 65 61 67 47 57 28 41 38 41 40 48 50 53 44 41 40 43 50 50 43
60 79 100 100 100 100 100 63 72 90 96 65 49 66 35 43 31 18 25 57 63 38 44 68 57 60 47 61 63 42 33 52 30 49 47 49 52 53 40 32 35 41 47 47 40
60 96 98 100 100 100 98 60 87 98 92 65 50 66 46 41 40 23 30 46 89 65 48 57 45 42 31 39 30 25 34 32 35 47 39 40 49 48 34 29 31 35 38 39 39
88 97 100 100 100 100 89 70 97 100 82 64 51 53 72 47 34 32 20 35 53 52 59 64 46 34 27 22 25 27 31 28 32 33 39 39 44 46 34 30 29 29 30 34 37
96 97 100 100 100 100 87 70 100 100 80 64 53 55 68 58 50 41 35 23 24 28 24 25 28 20 25 24 23 22 32 29 32 35 37 39 38 29 32 29 31 32 35 34 33

GFSSW_250_rhum_021.txt.gz
RH
100 100 100 91 76 73 94 94 63 48 47 43 32 28 35 39 27 30 32 30 32 30 28 26 26 24 23 23 16 13 12 15 16 22 24 18 66 100 100 100 100 89 64 70 99
100 100 100 100 85 88 84 99 70 56 53 55 46 35 33 46 32 32 32 34 34 34 33 31 28 26 24 23 20 16 14 15 16 15 22 19 19 47 99 100 100 96 81 66 83
100 100 100 100 100 100 100 86 70 51 56 56 57 46 39 38 45 26 32 30 34 35 33 30 30 32 31 25 22 19 19 15 15 16 15 20 15 24 58 96 100 100 91 62 94
100 100 100 100 100 100 100 96 100 76 58 60 57 54 48 38 52 35 29 41 43 42 38 35 36 30 26 23 24 20 19 18 17 14 14 16 18 19 28 60 97 100 99 75 86
100 100 100 100 98 97 95 100 100 100 76 72 63 67 59 42 53 48 39 40 43 44 40 38 39 30 25 23 21 22 20 19 19 16 14 14 19 21 26 28 72 96 100 92 89
100 100 100 100 100 100 100 84 90 100 80 66 77 74 76 49 48 53 47 46 47 48 40 42 44 33 31 29 26 24 23 20 21 19 15 14 20 23 30 25 26 69 99 100 99
100 100 100 100 100 100 100 100 99 95 98 72 74 82 76 61 52 53 61 55 54 59 51 51 43 38 39 34 30 30 26 25 26 22 20 14 16 24 35 37 26 25 93 100 100
100 100 100 100 100 100 100 100 99 96 78 78 75 100 90 73 59 54 58 63 57 56 57 52 45 42 44 44 40 34 30 29 35 27 23 14 19 28 30 41 27 23 54 67 99
64 97 100 100 100 100 100 100 100 100 100 84 86 96 90 79 65 54 57 65 67 62 59 59 52 47 51 52 50 42 36 32 35 33 20 14 20 27 25 37 32 24 33 37 44
77 57 53 86 89 100 100 100 100 100 95 88 92 94 84 96 86 71 74 77 80 78 71 76 62 66 65 68 70 73 56 34 38 35 22 18 18 29 24 34 31 28 30 42 40
90 89 89 76 58 76 76 100 100 100 100 82 100 92 88 80 79 76 72 67 71 80 82 73 72 73 80 80 72 56 44 40 36 35 22 20 18 34 24 30 26 34 28 44 42
89 93 98 93 94 86 64 72 100 100 100 100 97 98 92 92 85 71 70 82 92 92 80 72 74 81 83 80 73 60 47 53 40 32 26 25 20 40 22 27 28 37 30 40 50
80 85 81 95 89 82 81 53 59 100 96 100 95 100 99 60 68 89 77 88 80 70 76 78 80 96 87 83 74 68 49 77 48 29 29 23 20 35 23 25 35 36 35 38 50
77 81 77 83 88 92 78 54 38 70 79 92 100 100 97 69 82 81 81 75 63 81 89 74 100 92 80 73 75 58 74 58 45 34 25 24 22 33 28 28 30 41 33 37 63
73 76 68 82 85 85 76 53 32 55 65 84 100 100 99 100 98 100 85 67 80 88 72 72 70 54 46 66 32 30 30 36 42 34 24 20 20 33 30 23 32 48 33 64 90
63 62 58 65 72 73 70 48 36 61 77 80 99 88 89 81 86 84 68 62 60 46 34 37 33 35 34 25 16 22 16 19 34 27 15 22 20 34 28 25 44 47 35 68 82
45 44 44 52 65 70 59 42 48 77 75 92 78 79 72 82 82 54 48 42 33 25 18 15 16 17 17 16 10 10 12 15 22 17 16 22 23 38 24 26 43 37 45 78 67
28 24 27 42 61 58 50 42 82 86 83 79 79 74 84 77 54 45 35 21 17 11 9 9 11 9 6 7 6 6 7 10 14 18 26 22 24 31 27 35 30 39 48 73 64
14 15 25 46 53 43 38 69 99 76 97 98 94 92 78 59 44 34 17 10 8 8 7 6 5 5 5 4 4 5 8 16 33 34 21 26 27 36 31 42 37 52 65 71 64
13 19 26 39 38 37 58 100 86 90 100 100 98 72 70 40 33 21 12 10 8 7 5 4 5 5 5 5 4 6 11 14 30 39 31 29 35 32 49 60 52 63 67 66 61
13 17 29 33 33 54 99 84 94 100 100 100 80 77 43 36 28 14 12 8 6 5 5 6 8 7 9 15 15 13 25 33 40 64 29 25 26 28 38 51 56 55 56 66 63
15 23 29 29 45 96 85 94 100 100 100 87 79 63 40 31 34 17 8 9 7 8 8 11 16 31 34 63 48 58 99 100 100 72 37 28 32 45 50 56 57 46 58 68 66
20 29 26 35 89 90 90 100 100 100 95 67 84 56 43 42 44 31 20 17 18 27 71 61 82 100 80 94 79 100 100 98 68 51 34 31 38 49 52 54 54 54 66 68 64
22 22 30 81 93 92 100 100 100 100 68 95 71 65 39 46 52 37 24 40 45 52 100 100 100 100 100 100 100 100 100 100 100 69 39 39 51 59 49 56 58 55 59 60 61
24 26 71 93 87 100 100 100 100 80 76 87 85 62 43 59 64 41 36 39 53 59 87 100 100 100 100 100 100 100 100 100 86 58 38 39 47 51 49 50 53 53 57 61 59
28 50 82 86 100 100 100 100 99 65 92 93 81 68 52 58 63 43 47 56 65 96 100 100 100 100 100 100 100 100 96 81 32 36 35 36 43 47 42 48 48 56 60 62 56
39 78 80 100 100 100 100 100 94 78 99 92 72 85 68 63 66 60 48 70 70 79 73 73 99 92 100 94 70 66 37 22 27 27 22 32 41 40 43 48 49 60 57 52 50

GFSSW_250_rhum_024.txt.gz
RH
15 20 40 67 100 100 100 100 94 52 72 97 74 74 56 40 37 35 32 30 32 32 25 24 25 23 25 22 21 21 18 18 15 15 16 12 14 16 16 20 75 100 94 94 92
17 24 54 78 100 100 100 100 100 57 60 97 86 88 65 51 46 43 33 34 36 40 27 24 21 26 26 26 22 24 24 24 22 16 14 11 12 16 18 16 36 88 100 96 100
20 28 71 99 100 100 100 100 100 82 65 99 100 94 69 54 49 51 45 37 38 41 36 26 24 27 27 26 30 26 28 26 24 22 17 13 13 15 21 19 19 44 96 100 100
28 36 71 100 100 100 100 100 100 83 87 100 100 83 85 67 62 58 48 47 44 42 44 25 22 22 27 29 28 26 29 32 29 23 22 18 13 15 20 31 17 20 61 100 100
33 66 94 100 100 100 100 100 100 100 95 100 95 100 100 98 54 68 61 57 44 40 55 45 28 29 30 31 31 28 28 28 32 26 24 21 16 14 18 29 20 17 22 76 100
35 54 90 100 100 100 100 100 100 100 100 100 90 100 100 100 89 78 80 70 51 45 50 59 41 34 37 38 35 32 31 26 25 25 25 23 21 13 17 23 22 20 19 28 67
36 57 77 100 100 100 100 100 100 100 100 100 100 100 100 76 98 88 78 69 66 54 44 49 50 42 41 43 39 36 29 26 22 23 23 22 20 18 20 20 20 21 21 23 25
45 43 86 96 100 100 100 100 100 100 100 100 96 100 100 100 100 91 83 66 70 64 49 41 45 47 47 46 44 37 30 27 30 31 26 21 26 22 23 17 19 20 20 22 24
92 55 50 91 100 100 100 100 100 100 100 100 100 100 100 100 80 77 100 79 70 71 58 48 43 44 48 51 52 45 37 43 45 40 31 23 31 28 24 19 17 24 20 22 30
84 88 69 56 76 100 100 100 100 100 100 100 100 100 100 100 81 61 90 90 76 67 66 58 47 48 55 63 67 55 36 40 45 52 32 27 30 34 27 20 17 21 19 23 33
80 82 88 86 54 70 100 100 100 100 100 100 100 100 100 100 100 83 95 89 78 75 70 50 50 58 68 57 54 50 41 49 58 58 50 43 33 32 34 22 20 20 19 23 33
88 85 79 91 83 88 78 66 66 78 93 97 100 100 100 100 100 100 86 81 65 73 65 57 45 55 61 68 66 59 50 59 66 68 57 53 40 32 42 29 24 22 21 22 30
69 84 86 73 88 96 84 74 88 89 90 97 89 80 100 100 100 99 78 66 72 68 69 60 56 77 82 81 72 74 74 75 71 70 57 53 38 30 44 34 23 26 24 23 35
62 72 69 66 76 72 77 83 88 99 92 100 99 87 68 76 100 98 86 79 71 66 65 56 90 91 87 75 66 69 90 83 74 75 58 42 42 27 44 36 22 27 24 27 46
64 69 60 67 71 74 68 79 83 95 86 100 91 74 65 60 78 92 74 68 64 57 54 62 75 78 72 77 66 85 89 79 75 72 62 43 30 40 44 39 29 33 27 29 52
51 63 70 64 72 70 73 88 80 92 100 94 87 69 56 69 89 95 90 68 58 61 60 58 62 70 63 70 71 63 64 52 51 54 37 59 29 41 37 41 33 30 24 31 47
39 69 61 60 77 66 70 93 85 93 98 90 76 45 53 79 100 91 79 72 62 58 49 48 48 45 48 45 44 48 59 50 42 37 21 46 25 42 59 36 32 27 26 35 42
25 50 51 68 63 63 66 67 87 100 89 78 57 51 90 99 89 70 58 55 55 45 32 28 29 28 25 21 20 21 21 18 19 14 20 46 21 49 60 29 27 27 29 29 37
12 25 45 47 60 57 63 62 96 96 74 60 45 96 100 81 64 60 57 52 39 30 26 18 12 11 10 9 8 12 10 32 14 16 22 24 28 95 37 26 27 27 34 41 45
11 17 17 26 38 48 59 67 90 71 60 51 82 94 75 64 59 61 49 40 33 25 15 12 9 8 8 7 7 7 6 5 8 11 15 23 29 53 22 28 28 30 48 44 44
10 12 13 16 30 35 50 71 68 58 52 91 98 72 69 62 68 63 44 37 21 13 12 9 8 7 6 7 6 5 7 11 11 10 14 22 43 32 30 34 35 39 59 46 40
10 10 12 14 16 25 47 66 55 64 90 97 80 75 80 76 67 50 37 23 16 11 8 9 8 9 10 18 21 12 10 17 24 19 29 37 43 30 36 34 32 41 47 39 38
10 12 12 15 26 47 54 51 66 91 96 84 86 93 74 77 54 35 35 24 18 37 44 51 33 36 63 95 99 84 44 36 31 43 53 39 38 39 40 36 34 42 44 42 46
12 11 14 31 44 40 46 76 86 93 90 93 99 74 80 55 45 50 58 62 61 64 95 91 96 100 100 100 100 100 100 100 100 100 94 52 40 32 35 38 45 42 50 50 52
13 19 37 54 56 52 78 96 94 89 99 100 79 77 61 38 50 99 72 99 100 100 100 100 100 100 100 100 100 100 100 100 100 100 70 39 40 34 35 44 48 41 57 63 60
19 34 43 44 48 84 100 94 97 100 100 85 81 65 57 47 84 89 87 100 100 100 100 100 100 100 100 100 100 100 100 100 92 100 54 43 47 40 40 52 46 43 53 57 63
26 35 33 54 81 98 93 98 100 98 95 99 54 63 59 64 96 78 73 89 100 100 100 100 100 100 100 100 100 100 100 100 99 100 100 67 50 40 48 46 44 48 56 60 65

GFSSW_250_rhum_027.txt.gz
RH
74 66 73 67 62 70 66 68 75 82 100 100 82 72 75 79 67 81 55 43 36 33 31 27 24 23 27 27 22 18 18 26 25 20 17 12 11 12 14 15 15 23 89 100 100
73 85 81 58 67 65 53 40 52 95 90 100 98 86 77 84 83 94 64 58 43 39 41 35 35 29 27 28 23 23 23 30 28 23 22 13 14 14 14 15 15 16 19 97 100
73 94 80 60 62 34 22 25 42 78 99 100 100 92 85 86 81 94 88 61 52 45 40 42 41 41 34 33 25 23 27 26 27 26 24 16 16 15 15 15 17 15 15 16 57
79 99 76 65 32 22 23 43 100 100 100 100 100 100 95 73 78 100 90 76 63 50 47 41 36 37 35 37 29 23 27 30 32 27 25 22 19 20 17 17 16 13 14 16 17
85 97 70 40 25 24 32 86 100 100 100 100 100 100 100 81 69 99 100 82 82 63 48 47 50 41 36 40 37 21 23 25 33 29 26 26 22 21 21 21 18 14 12 14 17
100 96 62 33 25 30 69 100 100 100 100 100 100 100 100 96 88 100 100 96 95 74 78 65 50 50 44 42 45 34 24 23 25 31 29 26 23 17 24 27 22 16 12 13 16
100 96 68 39 30 50 81 100 100 100 100 100 100 100 100 100 100 100 97 100 100 100 79 82 60 44 45 46 47 50 36 33 31 37 30 27 26 26 30 25 26 20 14 12 15
100 100 83 54 34 65 77 100 100 100 100 100 100 100 100 100 100 100 100 100 100 100 90 91 74 55 50 50 44 46 48 43 43 38 35 26 28 29 27 22 22 24 19 13 13
100 100 95 74 39 51 89 95 100 100 100 100 100 100 100 100 100 100 100 100 100 100 94 90 58 58 49 52 47 43 45 46 44 37 31 26 28 28 23 22 21 22 23 16 13
91 100 100 90 75 39 67 100 100 100 100 100 100 100 100 100 100 100 100 100 96 100 100 78 64 68 74 67 49 43 40 40 38 36 32 30 28 33 26 21 24 22 24 21 14
91 99 100 98 90 74 46 72 96 98 100 100 100 100 100 100 100 100 100 100 100 94 80 61 50 66 79 62 47 45 45 45 44 44 35 42 35 33 32 23 26 26 24 25 19
63 75 96 100 92 91 78 53 62 85 99 85 77 96 99 100 99 96 96 98 97 97 100 76 75 87 67 63 62 55 52 52 49 44 36 41 39 34 38 36 29 33 28 28 23
62 64 73 85 91 95 99 82 62 60 72 80 82 91 84 86 91 84 75 82 99 100 100 94 95 98 78 58 46 50 47 47 46 41 40 46 46 37 40 49 41 40 35 30 27
45 57 70 73 78 97 100 86 77 80 69 82 85 96 96 96 99 100 99 85 78 84 77 64 100 85 68 55 47 54 47 43 50 46 43 45 47 44 41 47 56 54 44 34 34
39 38 57 72 86 100 96 82 100 88 73 81 93 92 96 94 89 84 81 89 81 69 54 68 86 68 60 68 49 41 51 50 53 48 49 51 34 54 44 45 56 54 50 42 39
30 31 56 56 77 100 89 98 92 92 91 92 97 100 96 89 85 88 93 86 71 53 49 57 57 55 59 59 47 44 51 56 57 56 31 62 29 60 80 74 71 53 44 35 39
15 25 42 52 69 94 94 100 91 71 92 95 95 98 100 89 86 97 94 72 46 37 42 49 53 52 52 51 43 40 43 43 40 34 18 51 43 46 100 97 97 73 46 30 36
8 15 25 37 68 72 91 84 85 88 92 94 98 93 89 89 97 99 80 52 50 40 38 45 49 50 47 42 41 39 39 32 30 27 24 49 32 31 99 100 100 84 50 34 34
8 9 16 26 62 59 84 86 82 90 96 98 95 95 86 95 96 75 65 56 50 57 58 56 45 36 34 29 30 29 26 33 20 20 23 26 32 37 57 88 100 70 51 36 36
6 7 14 26 50 59 82 94 91 89 95 78 92 100 100 88 77 63 52 63 64 57 45 32 31 26 18 12 11 10 11 10 8 9 10 18 20 29 59 89 90 66 55 33 39
6 8 15 20 28 33 70 99 96 98 86 85 100 99 84 83 69 68 68 57 71 42 51 35 23 13 11 11 9 8 7 7 6 7 7 12 15 39 79 81 78 60 54 31 42
6 11 13 13 8 28 64 81 85 78 76 88 98 82 83 74 67 65 61 86 57 48 34 23 17 14 12 10 9 7 6 7 7 6 7 9 21 41 56 63 60 74 48 31 41
7 9 10 9 12 22 31 45 53 64 65 84 81 79 74 62 68 70 100 73 56 68 61 44 45 27 16 39 86 46 20 12 11 9 9 11 9 15 29 43 53 56 31 34 38
8 7 7 10 22 23 23 27 34 49 74 78 78 74 61 66 80 100 100 85 89 90 81 92 99 89 91 98 95 100 81 38 30 29 21 23 30 30 40 56 56 44 34 36 40
9 10 16 18 19 16 20 28 41 58 73 73 73 64 68 88 78 83 97 83 100 88 100 100 100 100 100 100 100 100 100 92 80 68 52 50 65 47 78 71 48 42 43 36 49
12 16 18 15 14 19 26 43 68 81 70 76 69 76 89 72 61 100 100 92 88 98 100 100 100 100 100 100 100 100 100 100 100 97 96 100 100 86 79 82 50 35 42 46 57
14 13 13 17 20 33 61 83 80 79 81 68 78 96 83 57 78 98 95 88 84 100 100 100 100 100 100 100 100 100 100 100 100 100 100 100 97 75 78 61 40 38 43 51 65

GFSSW_250_rhum_030.txt.gz
RH
28 41 70 100 100 99 97 83 71 67 71 84 90 100 100 100 99 65 62 69 73 44 35 40 32 28 25 22 24 20 18 27 26 22 17 12 12 12 11 11 11 13 16 18 19
24 35 51 72 98 100 97 96 80 73 70 70 70 73 92 100 100 96 59 71 89 60 47 39 44 38 32 32 27 23 22 27 27 25 22 15 12 11 11 13 13 13 12 16 16
22 33 47 52 84 97 100 100 96 67 63 67 77 77 75 79 97 100 78 68 96 79 66 50 44 44 37 32 29 25 25 27 30 26 24 18 15 13 15 14 14 14 13 13 16
22 30 36 51 66 82 93 100 100 80 73 72 76 85 88 89 88 97 85 63 94 100 76 59 60 52 44 39 36 32 27 27 34 28 25 22 19 20 21 22 16 14 13 14 14
23 28 38 53 72 86 92 92 94 85 87 86 81 84 87 99 100 93 94 79 80 91 89 80 72 59 53 43 41 37 35 29 36 34 26 22 19 18 24 28 23 16 14 13 13
24 28 44 52 78 97 93 91 88 84 75 71 64 40 48 95 100 100 99 88 70 75 80 96 95 94 76 46 42 40 46 38 35 45 34 24 21 16 30 29 26 20 15 13 12
31 32 45 57 82 100 97 100 86 52 33 28 29 42 97 100 100 100 100 100 77 86 76 97 100 100 99 82 53 46 38 45 39 48 45 27 21 21 23 22 24 23 19 16 12
36 42 52 78 100 100 100 92 54 29 27 35 58 98 100 100 100 100 100 100 100 94 87 88 100 100 100 99 80 66 43 46 42 40 46 34 33 24 21 20 23 25 22 20 20
44 54 64 90 100 100 100 91 50 30 34 65 99 100 100 100 100 100 100 100 100 96 92 94 97 96 100 100 94 85 56 50 44 42 38 39 37 34 25 24 25 26 27 23 22
60 56 69 82 100 100 99 98 60 34 47 82 100 100 100 100 100 100 100 100 100 100 97 96 92 100 100 100 96 94 70 51 49 48 44 40 38 47 39 28 28 25 25 23 24
62 72 70 78 99 100 100 99 72 38 67 87 100 100 100 100 100 100 100 100 100 100 100 100 100 100 100 100 87 60 71 48 53 53 48 44 38 41 44 31 29 28 25 23 22
52 65 83 73 83 99 100 100 85 49 57 80 100 99 100 100 100 100 100 100 100 100 100 100 100 100 100 98 78 64 61 48 49 50 40 40 35 41 44 38 34 31 29 25 22
36 50 70 86 81 92 100 100 93 80 49 82 99 100 98 100 100 100 100 100 100 100 100 100 100 92 87 87 78 67 63 62 48 55 41 37 35 37 47 43 39 35 32 33 30
29 37 52 75 77 95 92 100 99 100 74 52 84 100 95 99 97 92 96 94 85 76 75 77 90 66 66 70 67 65 62 59 53 44 44 40 32 40 40 45 49 45 37 39 36
14 29 39 53 63 89 100 98 100 100 85 79 58 68 70 84 96 91 80 75 76 75 69 66 70 70 59 65 59 59 85 76 70 46 40 41 21 41 42 47 65 62 52 48 62
7 12 28 40 43 84 98 96 94 96 92 100 90 77 68 66 71 79 82 81 80 73 72 78 70 70 75 73 58 53 57 54 41 39 28 37 26 31 65 72 92 75 61 56 63
5 7 14 32 35 68 96 98 83 88 100 100 100 98 97 92 94 99 99 97 94 90 85 82 93 80 64 55 35 28 27 26 24 25 23 28 27 29 63 100 89 86 74 62 60
4 6 10 20 37 51 74 99 93 96 100 100 100 100 96 94 100 100 100 100 98 87 82 75 72 53 34 28 27 31 36 36 35 31 26 24 23 34 54 83 93 74 81 72 72
4 6 7 15 30 37 58 89 99 100 100 100 100 100 96 99 100 100 99 99 94 86 58 53 46 50 59 57 46 37 31 34 20 17 17 18 25 37 39 61 85 91 84 84 76
4 5 7 9 24 30 52 85 86 100 100 100 100 100 100 100 100 100 99 90 81 59 50 44 70 69 54 30 26 24 23 22 18 13 10 11 16 24 40 58 84 97 96 73 83
4 6 9 11 17 22 38 72 93 100 100 100 99 97 100 100 100 100 89 73 67 57 57 62 72 74 46 31 16 10 7 7 6 7 5 5 6 14 27 51 76 97 88 84 84
4 6 9 10 11 12 32 87 81 95 95 89 92 100 99 100 100 90 75 76 61 76 64 69 92 100 84 41 18 15 9 8 7 6 5 4 7 7 13 27 59 95 89 74 83
6 8 9 9 12 16 31 68 99 84 90 92 91 91 96 100 100 77 79 70 94 65 86 100 100 100 89 56 27 23 11 8 6 6 5 5 3 5 7 13 32 52 84 72 79
6 7 8 8 12 14 26 56 73 68 84 88 86 91 100 98 78 78 79 99 73 97 100 100 100 91 81 82 76 49 36 25 15 10 6 6 7 5 5 9 17 31 56 54 79
6 7 9 10 10 13 18 25 41 55 67 90 93 97 89 78 67 83 100 100 100 100 100 99 91 83 82 93 99 92 74 61 45 20 14 9 10 12 8 9 18 32 48 58 64
7 8 9 12 15 15 19 28 37 51 71 88 97 87 67 61 84 100 94 100 100 100 96 94 100 100 99 100 100 100 98 89 77 36 29 26 24 28 35 33 29 36 57 74 76
9 12 12 11 13 17 19 22 24 28 34 45 56 57 70 87 81 98 100 100 100 96 100 100 100 98 100 87 100 100 100 100 98 84 75 59 75 68 70 72 66 80 70 71 68

GFSSW_250_rhum_033.txt.gz
RH
16 20 25 24 26 53 61 72 95 75 71 67 74 92 97 94 93 94 93 84 76 70 68 71 62 56 48 37 28 23 22 23 22 19 17 13 13 13 14 12 11 12 14 14 16
14 16 22 19 24 29 48 63 85 100 83 80 70 68 73 95 100 100 92 94 85 67 56 63 67 64 50 38 29 26 25 24 24 22 20 15 15 16 16 15 13 12 12 12 12
13 16 16 22 20 30 35 53 86 100 100 89 82 73 76 78 99 100 98 99 100 86 61 47 64 78 65 41 37 32 33 30 31 28 23 18 16 14 18 20 17 14 13 13 12
12 14 16 18 17 24 33 46 79 100 100 100 98 95 85 77 81 92 96 97 97 100 95 74 55 69 80 56 43 44 47 40 34 32 29 22 19 16 19 23 18 15 12 12 12
12 12 14 16 18 23 34 36 69 100 100 100 100 100 99 91 83 79 76 80 82 86 86 83 62 67 81 71 54 50 53 46 42 37 32 25 21 18 20 25 19 16 14 13 11
19 15 15 18 18 22 29 36 52 82 99 100 100 100 100 100 99 88 76 81 87 86 84 89 83 61 81 86 57 70 63 61 48 44 39 29 25 21 27 22 21 18 17 15 15
27 25 21 22 23 26 30 40 44 72 94 100 100 100 100 100 100 100 97 95 96 100 100 99 81 73 66 90 75 81 86 89 77 52 40 39 34 30 25 22 24 22 18 19 22
34 34 32 26 30 35 41 48 54 63 80 100 100 100 96 100 97 100 100 100 100 100 100 100 100 81 61 79 87 95 96 94 88 63 44 42 41 38 32 30 30 23 20 19 22
39 36 39 37 29 36 49 52 60 68 83 99 100 100 97 98 98 100 100 100 100 100 100 100 100 97 68 71 74 98 98 100 91 88 67 53 37 42 34 34 37 34 22 21 22
39 35 37 46 48 37 43 59 78 88 99 100 100 100 93 73 70 76 76 85 98 100 100 100 100 100 74 82 75 81 87 100 100 100 100 84 45 43 39 35 34 38 38 33 35
36 41 37 40 52 50 50 82 96 97 100 100 100 81 40 34 38 46 62 93 95 100 100 89 100 100 100 98 95 88 80 80 96 100 98 71 44 35 45 41 44 38 40 41 40
29 35 39 40 42 52 62 96 96 100 98 91 99 60 33 38 57 71 93 100 100 100 100 100 100 100 100 100 100 88 84 95 82 100 95 91 58 48 62 45 51 46 38 41 44
10 26 36 38 38 39 83 90 97 99 94 99 89 49 38 46 78 95 100 100 100 100 100 100 100 100 100 97 91 98 90 86 82 75 63 62 57 67 59 48 53 54 48 44 48
5 7 30 34 44 42 73 88 100 100 100 100 85 51 45 65 89 90 92 96 100 97 94 95 97 89 94 95 99 97 100 79 71 64 54 48 36 65 58 57 52 56 56 56 55
3 5 8 31 40 38 72 95 92 99 100 95 89 68 63 68 100 86 86 100 100 100 100 100 100 100 100 100 77 68 63 62 56 42 38 43 33 39 64 91 73 65 57 58 61
2 4 6 22 35 45 75 81 63 84 98 100 96 85 66 74 94 92 97 97 92 96 99 96 93 95 83 72 58 54 54 52 50 45 30 46 37 42 78 100 95 76 66 56 58
2 3 6 11 33 39 74 52 53 75 100 100 100 99 82 67 80 85 92 90 89 86 88 87 88 89 80 76 77 76 66 52 45 42 30 38 26 39 64 92 100 73 60 57 54
2 3 5 8 16 30 54 59 65 89 100 100 100 100 99 91 82 83 90 97 90 92 95 96 100 86 78 83 80 68 58 52 28 24 17 15 11 22 49 44 97 94 62 56 56
3 3 5 7 16 23 50 57 76 100 100 100 100 100 95 100 100 100 97 91 95 97 100 100 99 99 84 68 69 54 36 25 23 24 17 19 22 22 40 28 54 61 74 59 66
3 3 5 7 10 19 31 51 97 100 98 92 100 97 100 100 100 100 100 100 100 100 100 98 85 68 68 67 47 41 32 24 17 11 10 8 11 19 43 24 38 38 80 73 64
3 3 5 8 9 11 17 46 95 90 97 91 97 100 100 100 100 100 100 100 100 100 97 74 67 68 57 57 49 46 37 32 14 5 4 5 7 10 17 25 31 32 52 85 59
3 3 5 7 9 10 14 45 77 80 97 97 92 100 100 100 100 100 100 100 100 94 73 72 69 64 63 67 70 66 70 44 39 20 8 4 5 3 9 11 17 21 39 56 76
3 4 6 8 10 12 17 32 58 85 92 100 100 100 100 100 100 100 100 100 94 79 77 67 65 64 82 82 87 65 60 51 32 22 13 6 3 3 3 6 12 15 26 41 70
3 4 6 8 10 13 19 31 57 74 92 100 100 100 100 100 100 100 100 100 82 83 76 75 78 91 96 91 73 93 80 56 52 34 19 10 5 3 3 5 8 12 16 34 50
4 5 8 10 10 11 14 25 47 85 85 100 100 100 100 100 100 100 100 95 89 84 84 92 90 84 85 70 88 99 100 85 63 49 29 16 6 5 5 5 6 9 16 28 47
5 6 8 9 11 11 15 20 36 74 83 93 100 100 100 100 100 100 97 90 92 98 100 91 83 85 82 100 100 100 96 74 88 84 33 20 11 8 6 8 11 14 15 31 45
6 8 10 11 12 15 16 25 31 48 74 99 100 99 100 100 93 100 98 83 100 100 100 96 100 72 88 100 100 100 94 85 84 87 63 47 34 21 15 18 25 31 37 50 57

GFSSW_250_rhum_036.txt.gz
RH
10 11 12 14 16 26 38 38 41 77 91 78 71 74 95 100 100 100 100 100 100 100 100 98 92 88 97 95 91 91 80 78 75 65 56 43 43 38 27 23 19 16 16 19 20
12 12 12 15 19 19 25 32 38 42 91 74 84 82 71 91 100 100 100 100 100 100 99 94 98 98 98 88 84 77 72 68 58 50 43 40 32 27 18 16 16 15 14 15 16
13 14 14 14 16 22 23 31 36 50 69 99 84 77 87 81 80 100 100 100 100 100 100 98 93 83 81 93 84 76 70 59 50 42 35 31 28 19 17 21 20 16 15 13 13
14 16 15 14 17 21 23 37 29 39 44 95 96 95 79 94 78 85 89 93 100 100 100 97 94 81 71 70 78 78 76 61 48 40 33 28 23 20 21 22 18 18 17 18 19
13 19 17 16 16 18 21 28 32 39 41 56 87 100 99 85 94 79 75 93 100 100 100 100 100 100 92 78 62 65 79 72 57 51 50 37 28 23 23 25 22 21 19 18 19
13 20 24 18 16 16 19 23 22 32 41 43 56 100 100 100 97 95 83 84 85 81 94 100 100 100 100 91 71 66 71 76 78 61 51 46 39 33 32 22 20 24 22 22 21
12 17 23 24 20 19 20 22 22 24 37 46 55 82 100 100 100 100 94 91 86 82 85 99 100 100 100 87 74 71 68 66 76 76 64 71 59 47 36 26 28 25 26 25 23
12 15 20 26 26 20 22 24 24 22 26 38 56 62 99 100 100 100 100 100 96 92 92 93 98 97 93 88 82 73 66 69 67 84 70 78 98 76 56 44 35 30 31 28 32
24 19 18 22 27 25 22 24 25 29 31 36 52 63 95 100 100 100 100 100 100 100 100 100 98 98 97 92 90 89 81 64 58 68 87 76 85 98 61 54 46 38 36 33 35
25 26 27 23 27 29 26 23 30 38 45 53 63 66 87 100 100 100 100 100 100 100 100 100 99 99 100 98 96 92 90 88 67 59 80 83 81 97 91 79 66 55 40 34 33
13 17 24 31 30 31 28 22 30 48 78 77 78 64 83 100 100 100 98 92 96 100 100 100 100 100 100 100 100 99 91 88 83 72 66 76 81 100 100 100 100 92 54 47 38
5 6 10 21 32 30 25 27 52 58 50 66 72 69 77 87 88 81 86 90 94 97 100 100 100 100 100 100 100 100 100 96 90 91 61 73 64 85 100 100 100 100 93 72 51
3 3 5 7 24 30 28 48 43 58 54 67 87 82 84 86 88 92 99 99 94 92 100 100 100 100 100 100 100 100 90 98 95 90 77 77 74 82 72 98 100 100 100 96 79
2 2 3 5 12 26 35 50 43 55 56 67 86 93 90 99 96 100 100 82 68 70 64 77 87 94 96 100 98 89 85 89 92 95 85 74 48 80 90 100 100 100 98 93 81
2 2 2 4 7 26 44 52 46 44 55 70 89 97 100 100 97 87 61 43 57 66 65 74 87 91 97 83 75 81 94 85 70 64 58 60 47 48 80 84 94 88 76 71 67
2 2 2 4 7 22 48 53 41 33 60 77 92 99 100 100 91 61 47 56 81 84 91 91 89 91 85 80 75 78 80 81 83 76 49 60 40 37 54 54 63 68 62 51 50
2 2 2 4 6 17 46 47 34 36 63 85 99 99 100 98 79 54 55 76 84 88 93 88 96 98 95 89 83 81 75 66 61 56 53 53 41 47 62 43 52 52 57 49 43
2 2 3 3 6 14 28 37 31 51 75 100 100 94 100 98 71 56 75 93 97 97 100 100 100 94 87 79 73 71 73 75 64 58 61 53 54 42 49 44 42 40 47 54 41
2 2 2 4 6 13 28 33 41 70 78 99 94 96 93 99 80 62 74 79 87 96 97 100 99 88 83 80 79 85 96 76 65 59 47 46 41 34 25 21 23 22 25 46 48
2 2 3 3 6 10 24 37 65 69 67 85 93 78 82 89 95 86 76 81 85 93 98 98 97 97 86 93 76 79 78 66 59 49 43 37 30 22 11 9 12 12 12 20 26
2 3 3 4 6 10 17 49 81 76 56 79 93 94 85 99 100 100 100 100 100 100 100 100 98 99 89 75 77 73 63 62 56 50 42 35 42 12 7 8 8 12 11 13 16
2 3 3 5 7 9 23 55 82 63 57 81 97 94 100 100 100 96 87 100 100 100 100 100 99 82 76 75 66 62 54 73 79 64 44 34 60 14 4 5 7 10 14 18 16
3 3 4 5 8 9 25 57 76 75 75 76 90 96 100 100 100 93 100 100 100 99 100 96 85 81 71 63 54 82 76 60 59 69 56 17 22 8 5 4 4 6 10 17 22
3 4 5 6 9 12 30 60 60 70 86 90 100 100 100 98 100 100 100 100 100 100 96 88 84 71 61 70 79 65 72 99 100 91 82 35 16 8 6 4 4 4 5 12 26
5 5 5 7 10 11 17 40 57 68 92 93 99 100 100 100 100 100 100 100 100 99 93 87 71 75 77 79 64 87 85 99 91 98 70 29 13 7 6 4 4 3 4 10 26
6 6 7 8 9 12 15 21 44 69 79 99 100 100 100 100 100 100 100 100 98 94 84 73 79 81 76 89 76 88 100 100 75 91 57 31 24 16 7 6 4 4 6 11 30
6 7 8 9 10 11 14 18 26 53 68 98 100 100 100 100 100 100 100 97 100 92 84 83 76 82 100 82 81 100 100 100 100 87 76 81 46 19 16 10 9 11 12 16 40

GFSSW_250_rhum_039.txt.gz
RH
9 9 11 11 11 14 17 24 29 41 28 65 82 89 96 100 100 100 100 100 100 100 100 100 100 100 100 100 93 81 61 71 76 60 61 41 45 43 56 64 59 52 51 52 47
9 10 12 12 11 13 14 18 26 40 49 40 68 97 95 89 100 100 100 100 100 100 100 100 100 100 100 100 93 83 67 92 79 64 74 59 63 58 69 65 57 45 40 39 39
9 9 9 15 14 13 14 14 21 31 56 61 59 75 96 96 92 100 100 100 100 100 100 100 100 100 100 100 100 97 78 98 85 77 72 69 72 55 56 65 60 49 46 33 27
8 9 10 10 17 17 15 15 20 30 54 66 76 82 88 88 94 97 93 100 100 100 100 100 100 100 100 97 100 100 89 100 86 87 83 74 67 64 60 52 49 44 40 31 28
8 8 10 11 15 20 19 18 19 32 46 66 75 81 81 92 100 98 77 88 100 100 100 100 100 100 100 100 99 86 94 97 100 99 87 77 74 66 54 47 43 36 31 24 21
10 9 10 12 13 19 20 19 17 28 42 56 54 68 75 85 100 100 88 86 90 100 100 100 100 100 100 100 100 100 96 85 81 80 87 89 79 65 52 45 39 32 27 24 21
9 11 12 14 14 15 21 20 16 21 34 45 52 64 69 67 93 100 100 90 81 76 80 100 100 100 100 100 100 100 87 75 69 65 67 73 82 72 55 51 46 42 35 33 31
11 12 16 17 17 16 19 23 19 17 23 41 56 64 90 67 71 94 100 100 100 98 83 85 96 100 100 100 100 92 93 89 84 72 67 74 74 69 63 60 60 51 46 43 44
20 15 16 18 19 23 21 23 23 20 19 24 43 42 71 87 73 89 100 100 100 100 100 90 84 86 96 100 97 96 100 100 96 83 69 70 67 64 66 64 66 81 70 58 68
18 19 11 15 18 20 27 29 25 25 18 20 24 37 58 86 88 77 86 100 100 100 100 100 99 93 91 91 92 87 88 89 88 87 79 72 62 68 63 62 73 78 98 86 58
6 6 6 8 10 22 27 29 22 25 24 28 27 24 42 70 80 84 77 99 100 100 100 100 100 100 100 98 92 92 94 88 90 85 80 70 71 74 72 66 62 68 75 91 96
3 3 4 4 6 10 23 26 26 40 47 24 25 25 26 35 43 52 72 94 100 100 100 100 100 100 100 100 100 100 99 92 83 78 76 76 75 72 71 65 66 72 77 92 100
2 2 2 3 4 6 19 27 38 63 39 30 23 30 33 33 38 48 58 78 100 100 100 100 100 100 100 100 100 100 97 99 96 91 87 84 76 78 81 96 86 84 80 81 100
2 2 2 2 3 4 16 24 49 52 38 43 42 41 54 67 67 73 79 90 100 100 100 100 100 100 100 100 100 100 100 100 96 96 94 96 76 94 100 100 94 96 93 88 86
2 2 2 2 3 4 9 29 49 54 39 39 37 54 61 65 95 84 76 78 93 95 91 88 84 81 81 76 87 88 100 100 100 97 92 99 86 95 100 100 100 95 89 79 63
2 2 2 2 3 4 8 32 48 44 33 42 44 63 64 71 72 85 76 73 80 75 71 79 92 99 99 99 100 100 100 100 100 96 81 99 89 90 97 88 90 87 68 60 56
2 2 2 2 3 4 8 32 40 31 40 52 44 73 73 86 91 91 94 98 93 93 95 98 100 98 94 92 93 89 81 74 73 71 61 61 52 61 92 72 53 43 43 50 54
2 2 2 2 4 4 8 16 28 30 52 58 58 69 82 92 96 100 100 97 100 98 92 76 50 50 57 62 66 67 70 73 55 65 64 56 61 71 69 72 49 44 37 36 37
2 2 2 3 3 5 9 20 25 46 62 62 63 86 93 98 100 100 100 94 88 73 47 45 64 73 82 87 86 87 73 81 71 68 64 72 78 63 71 80 42 45 33 29 31
2 2 3 3 3 5 8 18 37 56 75 71 80 90 100 100 96 100 92 77 58 47 57 88 89 90 91 76 68 75 88 92 87 72 74 70 64 66 65 46 36 30 15 12 17
2 2 3 3 4 6 7 22 40 59 64 72 75 93 99 96 90 90 92 65 54 63 80 83 80 84 70 73 97 100 99 80 74 74 62 58 68 54 38 27 17 14 7 9 10
3 2 3 3 4 8 13 43 54 55 62 66 80 91 91 92 94 100 94 73 66 68 82 96 99 92 96 100 98 91 78 80 66 61 74 73 87 42 35 19 17 9 5 9 15
3 3 3 4 6 9 17 43 53 46 67 81 90 92 100 100 100 100 96 90 92 97 98 99 99 97 100 97 92 87 68 61 81 70 91 81 96 23 24 16 9 4 3 7 5
4 3 4 5 8 11 20 40 45 48 64 77 92 98 98 99 99 96 95 100 97 96 98 100 100 100 99 95 81 56 58 72 70 86 97 95 85 33 16 9 8 5 3 3 2
5 5 5 6 9 11 16 31 54 57 68 84 97 100 100 99 96 94 100 98 98 100 100 100 100 99 95 72 59 56 83 96 97 97 99 100 81 24 8 7 6 4 3 3 3
6 6 6 8 10 12 19 46 68 65 69 77 96 100 94 91 90 94 94 87 89 98 100 99 100 90 71 62 60 62 78 100 100 100 100 100 98 39 21 12 8 5 4 3 4
7 8 8 9 10 12 23 54 89 90 95 100 100 100 99 96 96 100 97 98 98 100 97 97 91 74 74 68 76 94 93 98 96 99 100 90 96 52 44 28 12 7 5 4 5

GFSSW_250_rhum_042.txt.gz
RH
6 7 9 9 10 10 11 12 13 16 17 24 28 46 64 96 100 100 100 92 90 94 87 94 95 96 95 80 57 50 45 55 72 46 54 28 24 23 25 28 27 41 32 25 26
7 7 8 10 10 10 10 12 13 19 25 23 32 34 57 77 94 100 100 100 100 100 97 99 100 100 94 96 87 74 79 93 87 65 47 36 31 36 38 38 34 36 33 35 27
7 8 8 9 10 10 11 11 14 16 25 31 29 42 39 62 84 100 100 100 100 100 100 100 100 100 100 100 99 99 99 100 94 76 62 64 45 38 35 38 59 43 41 42 55
9 9 9 8 9 11 12 12 12 14 16 28 36 42 41 47 93 83 97 100 100 100 100 100 100 100 100 100 100 100 100 100 96 82 74 73 56 51 43 44 50 54 54 58 67
8 10 10 9 8 9 12 14 14 14 15 20 30 40 49 41 75 100 78 97 100 100 100 100 100 100 100 100 100 100 100 100 100 91 92 78 79 71 73 54 66 57 62 63 61
8 9 10 11 9 8 11 12 17 14 15 18 20 30 50 66 91 96 92 94 78 100 100 100 100 100 100 100 100 100 100 100 100 100 100 85 82 73 81 69 67 54 62 60 53
9 8 9 11 12 9 10 12 15 19 17 16 19 24 39 70 100 90 100 98 100 91 100 100 100 100 100 100 100 100 100 100 100 100 84 82 86 88 100 98 96 82 69 68 60
11 10 9 10 13 14 10 14 14 19 22 20 17 22 30 63 100 100 100 98 99 84 70 91 100 100 100 100 100 100 100 100 100 100 100 91 73 74 76 86 75 70 71 65 59
8 9 11 9 7 15 13 13 16 20 22 21 19 20 29 50 85 99 100 100 98 100 100 93 84 92 100 100 100 100 100 100 100 100 100 100 99 90 70 65 65 62 66 68 67
6 6 5 5 5 7 17 17 20 19 19 23 20 20 36 56 84 96 98 100 100 100 100 100 98 76 83 98 100 100 100 100 100 100 100 97 90 78 69 61 52 58 70 69 73
4 3 2 2 3 4 10 22 22 20 15 26 28 20 30 56 70 87 98 94 87 96 100 100 100 100 84 70 70 87 100 100 100 100 97 76 69 70 67 58 69 63 65 69 65
3 2 2 2 2 3 5 13 23 18 23 29 29 23 23 35 53 70 81 97 95 92 100 100 100 100 100 99 96 84 70 70 71 80 71 76 67 66 68 64 59 66 63 68 70
2 2 2 3 3 3 4 7 22 20 32 42 30 31 23 22 46 60 70 93 99 84 90 99 100 100 100 100 98 96 94 88 79 74 77 78 70 69 69 71 72 70 70 68 70
2 2 2 3 3 3 4 7 14 20 34 32 35 37 30 26 33 36 56 70 94 100 96 96 100 100 100 100 90 89 99 100 95 88 84 86 86 91 81 86 95 91 82 75 74
2 2 2 3 3 3 4 8 7 20 36 38 51 43 31 26 28 29 36 50 73 77 95 99 93 100 100 100 94 94 100 100 100 100 100 100 89 94 96 96 87 98 89 90 76
2 2 2 2 3 3 4 4 6 20 34 31 57 50 49 42 42 39 38 39 51 61 63 75 96 99 98 100 96 87 93 85 86 92 91 100 98 95 100 100 100 93 87 85 77
2 2 2 2 2 2 3 4 7 25 27 41 59 58 62 55 66 70 66 61 50 60 58 69 82 85 100 100 99 100 100 100 88 84 92 81 73 96 100 100 100 89 75 72 75
2 2 2 2 2 2 3 6 11 19 42 60 60 51 63 61 63 76 82 85 84 96 93 89 77 92 88 84 92 92 90 75 71 79 86 86 84 96 100 98 91 68 59 51 51
2 2 2 2 2 3 4 9 16 31 62 83 79 64 70 65 68 89 92 79 81 80 77 77 84 74 75 78 75 75 77 93 98 94 84 76 67 61 66 77 76 54 45 37 30
2 2 2 2 2 4 5 8 26 41 79 84 87 78 88 92 93 99 96 92 90 92 96 93 88 92 92 86 86 90 68 54 51 48 60 54 56 65 65 61 63 58 59 44 36
3 2 2 3 3 4 6 11 29 52 78 90 82 74 69 82 81 90 96 100 100 99 94 82 90 92 78 60 49 55 70 68 66 74 57 68 75 73 65 64 60 47 37 33 24
3 3 3 3 3 5 10 16 37 58 71 91 82 83 92 98 95 100 100 100 100 94 87 72 62 47 48 60 73 97 73 80 79 82 80 71 72 58 62 45 26 19 21 15 12
4 3 3 4 4 8 12 29 46 61 90 92 77 86 97 100 100 100 100 95 87 65 53 48 48 53 75 98 94 82 78 80 89 78 70 71 82 62 48 36 24 21 14 9 7
4 4 4 5 7 9 15 36 49 54 74 85 78 92 100 99 100 100 100 97 83 66 62 73 76 89 89 82 73 70 84 72 68 72 67 72 71 92 67 43 23 16 10 7 5
5 5 6 6 8 10 11 21 31 51 83 90 89 98 99 100 100 100 100 97 90 81 82 83 90 86 74 75 85 75 65 68 76 78 67 79 86 93 59 33 24 15 8 6 5
6 7 8 7 10 13 11 19 40 68 92 96 97 100 100 100 100 100 100 96 90 87 88 90 89 76 81 84 75 67 65 70 83 81 90 85 90 86 84 42 19 10 5 4 4
8 9 9 9 10 14 19 35 57 91 99 98 93 98 100 100 100 98 95 98 98 92 85 85 85 86 87 81 71 62 88 78 84 93 100 100 94 89 86 35 44 19 8 6 5

GFSSW_250_rhum_045.txt.gz
RH
7 6 5 6 7 8 9 9 10 9 10 12 13 21 25 48 100 100 100 100 100 100 100 100 100 90 59 47 43 36 33 33 51 47 56 30 28 27 30 30 29 28 24 21 25
8 7 6 6 7 9 9 10 10 10 10 11 13 16 24 38 48 99 100 100 100 100 100 100 96 100 90 68 56 45 36 41 47 44 34 25 21 22 27 33 26 24 23 20 22
7 7 6 6 7 9 10 10 10 10 11 11 12 14 28 34 37 65 84 100 100 100 100 100 100 100 100 93 80 78 70 80 62 48 39 33 24 23 25 36 32 25 25 25 26
7 7 6 7 8 9 10 10 10 10 11 12 12 13 23 42 53 54 57 100 100 100 100 100 100 100 100 97 100 94 92 96 99 75 67 62 47 39 40 44 42 29 23 25 27
7 6 6 7 8 8 9 9 11 10 10 12 13 12 19 42 71 63 77 71 100 100 100 100 100 100 100 98 95 92 86 97 100 93 87 99 92 74 71 65 58 39 39 54 46
8 8 6 6 8 9 9 9 10 10 10 11 13 14 14 41 70 74 57 88 81 99 100 100 100 100 100 100 96 95 94 99 100 100 100 100 100 99 96 73 56 65 64 55 57
6 6 10 9 6 9 10 11 10 10 10 10 12 14 15 28 83 78 58 62 88 82 100 100 100 100 100 100 100 97 100 100 100 100 100 100 100 96 94 75 82 68 62 74 77
5 5 6 8 7 4 6 10 12 11 11 11 11 16 21 19 56 57 80 68 83 97 94 100 100 100 100 100 100 100 100 100 100 100 100 99 100 100 97 95 90 100 97 73 84
4 4 4 3 3 2 2 6 11 13 13 11 10 14 20 20 31 52 81 100 82 92 99 95 100 100 100 100 100 100 100 100 100 100 100 92 100 100 98 95 93 90 79 82 89
3 4 2 2 2 2 2 3 8 16 16 11 10 13 22 26 21 34 68 100 100 91 98 100 93 93 100 100 100 100 100 100 100 100 100 94 100 100 100 87 89 83 76 67 69
3 2 2 2 3 3 3 3 5 10 14 17 17 20 25 28 21 28 49 94 100 92 81 91 100 99 100 99 100 100 100 100 100 100 100 100 100 100 100 92 93 96 90 92 91
3 2 2 3 2 3 3 2 4 7 12 23 19 15 22 25 22 22 38 78 100 100 84 90 100 100 94 80 92 100 100 100 100 100 100 100 100 100 100 100 100 100 100 100 79
3 2 3 2 2 3 3 3 4 8 10 26 22 25 24 30 28 31 30 56 76 99 100 92 90 93 98 100 94 83 89 93 100 100 100 100 100 100 100 100 100 100 99 75 62
2 3 2 2 2 2 3 3 4 5 11 25 26 24 30 35 27 31 44 36 60 94 96 100 100 100 100 100 92 91 81 85 82 82 85 92 95 100 100 94 86 76 70 70 77
2 3 2 2 2 2 3 3 3 6 18 31 31 34 44 39 32 42 63 67 91 100 100 99 100 100 92 84 90 86 84 77 76 72 71 71 65 89 78 83 88 85 92 88 80
2 3 2 2 2 2 3 2 4 7 21 29 33 38 50 44 32 30 57 83 86 99 100 100 100 94 89 90 97 100 90 73 75 77 74 82 66 73 96 100 100 100 94 85 87
2 3 2 2 2 2 2 3 7 8 23 36 45 48 52 43 39 37 41 81 81 85 85 93 88 88 81 84 87 96 98 82 67 65 68 63 63 77 92 100 100 100 79 69 70
3 3 2 2 2 2 3 6 8 15 41 40 53 46 53 45 37 32 34 51 70 78 87 90 95 89 85 75 83 86 86 83 87 97 85 63 75 82 83 72 68 73 86 90 91
3 3 2 2 2 3 3 6 11 31 49 53 51 56 55 49 50 48 40 36 44 50 52 58 64 58 62 66 61 76 76 87 92 95 91 87 82 92 100 100 85 78 54 54 54
3 3 2 2 2 2 4 8 15 40 48 66 80 87 71 70 76 60 58 64 62 51 67 70 54 58 65 64 72 78 96 93 87 79 82 91 100 96 75 71 72 81 76 67 62
4 3 3 2 2 3 5 7 25 46 56 81 86 66 54 77 85 80 86 83 83 83 78 81 76 82 70 75 86 94 92 80 80 80 84 96 86 73 60 52 54 67 61 48 39
4 3 3 3 3 4 5 9 28 46 68 75 79 79 88 86 86 67 74 78 90 92 88 96 90 74 77 87 99 100 97 98 93 75 67 55 73 53 54 55 52 50 41 30 22
4 4 4 4 4 6 8 15 35 52 65 76 79 78 73 94 97 100 100 100 100 100 100 98 96 94 100 99 90 76 64 66 72 72 64 60 55 52 53 52 45 44 53 36 25
4 5 5 5 6 7 11 20 40 55 76 77 81 84 96 100 99 94 99 100 100 98 94 91 83 76 71 65 68 73 70 66 80 71 74 58 61 52 61 66 63 74 41 20 12
6 6 6 7 8 8 12 28 48 68 74 90 94 100 100 100 100 100 100 100 96 83 67 62 65 67 83 79 68 63 63 70 68 78 72 66 62 75 70 73 86 62 32 11 7
9 6 8 8 10 12 12 31 48 60 78 95 98 95 99 100 100 100 100 98 96 88 86 82 83 77 71 65 56 67 70 72 74 70 70 70 85 62 64 94 78 62 50 14 7
13 7 10 10 10 24 40 51 64 79 96 100 98 100 100 100 100 100 100 100 100 96 86 78 72 70 64 60 70 72 69 70 70 98 86 85 87 80 84 81 88 72 59 46 24

GFSSW_250_rhum_048.txt.gz
RH
8 7 7 6 6 7 6 6 8 9 9 9 10 11 13 29 68 100 100 100 100 100 100 100 99 85 77 64 51 46 45 50 73 73 74 63 57 57 55 51 46 42 38 35 34
8 7 7 7 6 6 7 7 8 8 10 10 10 10 12 15 38 100 100 100 100 100 100 100 100 98 87 86 77 48 47 62 68 64 63 53 54 52 50 48 47 41 36 32 30
7 7 6 6 6 6 7 8 8 9 10 10 10 10 10 14 21 88 100 100 100 100 100 100 100 100 100 90 83 80 72 67 59 53 47 47 48 47 46 47 54 43 37 32 30
7 7 6 6 5 6 7 8 8 9 10 11 10 12 11 12 16 28 79 100 100 100 100 100 100 100 100 100 100 100 100 96 71 56 51 45 41 44 41 42 50 41 36 32 27
6 6 6 6 5 6 7 7 9 10 10 12 12 12 12 13 17 22 34 96 100 100 100 100 100 100 100 100 100 95 98 100 91 64 59 60 57 45 42 41 37 41 31 34 40
5 5 5 6 7 5 5 7 8 10 11 12 12 12 14 15 14 24 33 41 93 100 100 100 100 100 100 100 100 100 100 100 100 98 91 81 84 72 57 40 35 36 35 29 55
5 5 4 4 4 4 4 4 6 9 12 11 13 13 14 17 20 24 28 47 48 95 100 100 100 100 100 100 100 100 100 100 100 100 100 100 89 90 83 51 54 59 72 71 54
5 4 4 3 2 2 2 2 3 6 11 12 12 13 16 14 18 27 30 39 60 65 98 100 100 100 100 100 100 100 100 100 100 100 97 88 100 100 99 78 71 73 78 93 98
4 3 3 2 2 3 3 3 3 3 8 14 13 14 15 17 20 24 33 38 69 67 78 93 100 100 100 100 100 100 100 100 100 100 100 99 100 100 100 98 96 97 100 94 87
3 3 2 2 2 2 2 3 3 3 4 10 16 14 15 20 17 21 27 33 70 67 78 87 90 97 100 100 100 100 100 100 100 100 99 100 100 100 100 100 100 100 100 100 98
3 3 2 2 2 2 2 3 4 3 3 7 21 21 20 16 16 17 25 23 54 74 65 85 95 85 100 100 100 100 100 100 100 100 99 91 96 100 100 100 100 100 100 97 100
3 3 2 2 2 2 2 3 4 4 4 6 20 25 21 17 17 20 26 26 38 98 78 76 97 100 95 99 100 100 100 100 100 100 100 100 100 100 100 100 100 100 100 100 95
3 2 2 2 2 2 2 3 4 4 4 7 28 36 25 19 21 26 25 29 45 88 100 80 77 85 86 91 95 100 100 100 100 100 100 100 100 100 100 100 100 100 100 100 100
3 2 2 2 2 1 2 3 3 4 3 10 30 34 26 19 22 22 27 24 29 74 98 85 76 72 90 93 95 95 100 100 100 100 100 100 100 100 100 100 100 100 100 100 100
4 2 2 2 2 1 2 3 3 4 4 14 31 32 27 27 32 33 31 34 32 57 90 99 100 100 82 81 93 99 100 99 87 99 100 100 100 100 100 100 100 100 100 100 100
3 2 2 2 2 1 2 3 3 4 6 17 28 30 31 38 43 40 38 43 42 40 85 96 90 100 97 75 82 90 97 86 94 95 91 96 93 100 100 100 99 100 100 99 98
4 2 3 2 2 2 2 2 4 4 13 26 35 40 42 56 64 47 44 36 40 54 90 92 87 90 100 96 84 86 88 92 97 94 97 89 80 89 99 94 92 86 86 84 79
3 2 3 2 2 2 2 3 5 12 22 38 43 44 44 48 49 36 35 35 50 69 80 85 84 95 100 100 100 89 93 97 97 84 74 76 74 82 68 67 74 69 68 64 59
4 3 3 2 2 2 3 4 9 20 37 45 42 42 58 65 51 40 34 38 69 59 65 69 78 81 89 99 94 90 90 95 94 86 82 77 84 77 68 62 61 60 65 60 57
4 3 4 3 3 3 3 4 12 30 44 59 77 78 69 58 46 40 38 44 50 65 58 71 77 87 89 90 98 98 91 82 76 76 79 80 81 94 84 60 50 49 50 54 56
4 3 4 4 4 4 4 5 15 37 55 70 75 73 72 54 45 38 39 39 42 55 68 65 68 77 82 92 100 99 85 61 56 63 76 98 100 67 64 72 70 70 70 69 59
5 4 6 6 5 5 5 8 27 45 48 65 75 79 52 52 54 57 50 46 54 59 64 70 78 85 99 95 94 90 86 78 66 80 80 77 94 76 79 80 74 80 77 57 52
6 5 7 7 7 7 7 17 38 49 55 70 74 70 76 90 94 82 81 74 79 78 71 65 78 89 91 94 85 70 66 79 96 89 82 92 92 95 83 67 66 61 54 45 35
7 7 8 9 10 10 11 20 36 51 65 71 67 77 83 94 97 100 100 96 94 94 93 88 84 90 98 97 92 90 96 97 93 97 84 75 69 64 66 57 47 52 51 45 51
9 11 8 11 14 19 27 40 48 60 72 76 75 82 84 94 100 100 100 100 100 97 95 94 99 100 100 98 90 94 91 78 85 82 70 65 63 59 54 50 61 74 71 62 57
10 13 13 12 15 23 34 51 62 72 75 70 80 78 80 97 96 100 94 98 99 98 99 100 98 93 84 75 75 80 76 68 68 69 72 71 59 61 57 62 58 67 85 66 48
10 14 18 14 14 21 32 48 65 75 79 80 89 83 89 92 95 98 100 100 100 93 83 72 74 83 85 83 76 64 67 70 73 79 74 78 89 85 67 59 62 92 77 91 72

GFSSW_250_rhum_051.txt.gz
RH
10 8 7 7 6 6 6 5 6 6 6 6 8 9 10 13 18 65 100 100 100 100 100 88 87 78 69 73 58 52 65 74 98 100 100 99 94 82 99 100 91 84 68 68 58
10 9 7 7 6 6 5 5 6 6 6 7 7 10 11 11 14 21 100 100 100 100 100 100 99 83 82 87 71 53 61 67 88 96 84 74 77 77 91 100 100 100 98 83 73
9 8 8 8 6 5 5 6 6 7 7 6 7 9 11 12 13 21 39 100 100 100 100 100 100 91 87 98 92 76 77 80 68 71 64 53 56 60 63 77 94 94 83 72 64
8 7 7 8 6 6 4 5 6 8 7 7 8 9 11 12 14 14 18 72 100 100 100 100 100 100 100 100 100 100 100 98 73 68 62 51 48 48 50 64 74 71 68 64 60
7 6 6 6 5 5 5 4 5 6 8 8 8 8 10 13 15 15 14 33 82 100 100 100 100 100 100 100 100 100 100 100 98 75 70 60 56 57 55 54 56 67 67 60 59
6 6 5 4 4 3 3 2 3 4 8 9 8 9 10 15 13 15 15 18 54 100 100 100 100 100 100 100 100 100 100 100 100 98 93 82 73 58 63 53 46 53 53 48 48
6 4 4 4 3 2 3 2 3 3 6 8 8 9 11 14 14 15 15 18 30 78 100 100 100 100 100 100 100 100 100 100 100 100 100 100 89 87 74 57 52 52 52 52 50
5 4 3 3 2 2 3 3 3 3 4 7 9 10 14 12 15 16 16 18 22 61 100 100 100 100 100 100 100 100 100 100 100 100 100 100 100 100 88 76 61 52 54 59 65
4 4 3 3 2 2 2 2 2 3 3 6 10 12 15 13 17 17 17 18 27 31 66 100 100 100 100 100 100 100 100 100 100 100 100 100 100 100 98 91 83 85 93 82 77
4 4 3 2 2 2 2 2 2 3 4 5 10 14 15 16 15 19 18 22 22 29 46 88 100 100 100 100 100 100 100 100 100 100 100 100 100 100 100 100 100 97 99 100 89
4 3 3 2 2 2 2 2 2 3 4 4 12 19 16 14 14 17 18 20 34 43 45 42 84 100 100 100 100 100 100 100 100 100 100 100 100 100 100 100 100 100 96 100 100
4 3 2 2 2 1 1 2 2 3 5 5 12 22 18 17 17 18 18 22 38 36 57 57 42 95 100 100 100 100 100 100 100 100 100 100 100 100 100 100 100 100 100 100 100
4 3 2 2 2 2 1 2 2 3 5 6 11 24 21 18 18 22 21 32 35 38 47 63 69 64 81 100 100 100 100 100 100 100 100 100 100 100 100 100 100 100 100 100 100
3 3 2 2 2 2 2 2 3 3 5 5 10 24 23 23 21 21 21 29 31 31 55 59 54 64 62 72 86 100 100 100 100 100 100 100 100 100 100 100 100 100 100 100 100
4 3 2 2 2 2 2 2 3 4 5 6 11 23 28 27 28 28 28 31 33 24 51 90 60 53 71 77 79 97 99 100 100 100 100 100 100 100 100 100 100 100 100 100 100
4 3 2 2 2 2 2 2 3 4 4 6 11 31 33 31 31 33 41 36 40 31 35 60 64 57 62 71 82 90 92 86 94 100 100 100 100 100 100 100 100 99 95 99 100
5 3 2 2 2 2 2 2 3 4 5 7 19 28 34 44 51 52 56 42 34 37 60 70 67 75 61 70 90 90 85 85 74 83 100 100 100 100 100 100 100 100 100 97 94
5 3 2 2 2 2 2 2 3 4 9 17 28 39 45 53 50 59 67 57 43 41 48 69 79 87 99 95 73 78 81 90 94 89 92 91 93 97 100 100 100 100 95 87 86
4 3 2 3 3 4 3 3 4 7 21 36 38 41 48 55 58 63 46 36 36 34 39 55 73 90 100 100 85 82 80 91 95 96 100 99 100 100 87 76 78 82 80 79 78
5 4 3 4 4 5 5 4 7 18 36 43 65 78 57 67 71 59 42 39 38 42 57 59 80 93 100 91 90 89 94 100 86 84 97 99 100 93 90 82 74 66 65 61 55
7 5 5 5 6 6 6 8 12 27 44 53 54 63 71 47 42 39 37 38 45 51 64 74 81 92 95 100 75 90 99 100 100 100 90 95 92 82 78 70 66 59 54 48 43
8 7 6 7 9 9 9 14 18 26 37 55 70 75 55 46 45 41 40 46 50 60 75 84 98 100 100 98 97 93 91 84 94 99 94 88 83 67 60 66 60 54 50 57 66
10 8 9 10 14 17 19 23 34 42 53 71 81 78 77 82 65 52 51 54 59 64 72 88 97 100 99 98 88 86 86 78 87 86 78 88 68 62 77 78 67 73 70 81 71
11 10 12 12 19 33 32 29 32 38 42 57 64 65 73 71 80 85 72 65 62 72 88 92 99 100 98 88 92 92 89 86 82 80 82 77 84 80 84 96 99 91 74 66 60
13 12 12 15 17 28 44 50 52 48 57 58 56 67 76 73 84 87 91 84 76 78 84 89 99 96 94 88 77 70 81 89 78 88 64 99 95 97 99 88 85 68 52 44 44
19 14 14 15 17 29 29 46 59 57 60 64 64 66 77 80 86 74 88 91 92 92 96 98 100 94 92 88 93 100 100 94 94 100 97 94 92 91 74 63 54 48 47 51 75
12 20 15 18 21 21 29 31 44 50 59 60 60 66 68 78 86 97 99 94 98 100 100 100 100 100 94 93 100 100 99 100 93 86 88 87 81 78 74 64 53 46 60 62 97

GFSSW_250_rhum_057.txt.gz
RH
8 7 6 6 6 6 7 6 6 5 5 5 6 6 6 6 6 6 8 12 39 83 100 100 100 100 81 57 71 86 92 100 100 100 92 48 41 42 40 37 34 33 32 30 28
8 7 6 6 6 6 6 7 6 5 4 4 5 6 6 6 6 6 8 9 12 33 85 100 100 100 100 76 60 63 85 100 100 100 100 85 50 50 65 70 59 48 51 44 38
7 6 6 5 5 6 6 6 5 5 5 4 3 5 6 5 6 7 7 8 9 21 53 92 100 100 100 95 80 64 63 92 100 100 100 99 86 61 78 91 88 90 98 93 68
6 6 5 4 5 5 5 4 4 4 3 3 3 4 5 5 6 7 6 7 8 11 28 77 99 100 100 100 97 84 96 79 93 100 100 100 93 78 91 100 100 89 89 97 89
5 5 4 4 4 4 4 3 3 2 2 2 2 3 5 5 7 6 6 7 8 9 13 49 92 100 100 100 100 100 100 100 92 93 100 100 97 89 85 92 100 100 99 91 89
5 4 4 3 3 3 3 2 2 2 2 2 2 3 3 5 7 6 6 7 9 9 10 23 65 100 100 100 100 100 100 100 100 88 92 99 96 90 100 90 89 98 100 100 94
4 4 3 2 2 2 2 2 2 2 2 2 2 3 3 6 6 6 6 7 8 10 9 16 46 99 100 100 100 100 100 100 100 100 100 91 96 100 97 83 95 100 100 100 100
4 3 3 2 2 2 2 2 2 2 2 2 2 3 4 5 7 8 7 9 10 10 11 10 18 63 100 100 100 100 100 100 100 100 100 100 100 100 94 92 100 100 100 100 100
3 3 3 2 2 2 2 2 1 1 1 1 2 3 4 6 7 8 8 10 11 11 12 12 18 27 74 100 100 100 100 100 100 100 100 100 100 100 100 97 97 100 100 100 100
3 3 3 2 2 2 2 1 1 1 1 1 2 3 5 6 7 11 9 10 14 13 14 13 12 21 33 100 100 100 100 100 100 100 100 100 100 100 100 100 100 100 100 100 100
4 3 3 2 2 2 2 1 1 1 1 2 2 3 5 6 8 11 10 17 14 13 14 15 14 15 51 59 100 100 100 100 100 100 100 100 100 100 100 100 100 100 100 99 100
4 3 3 2 2 2 2 1 1 1 2 2 3 3 6 7 10 13 15 19 17 15 15 17 18 17 37 45 86 100 100 100 100 100 100 100 100 100 100 100 100 100 100 96 99
4 3 2 2 2 2 2 1 2 2 2 2 3 5 7 8 8 11 17 21 18 17 20 19 20 20 24 54 54 100 100 100 100 100 100 100 96 88 92 97 100 100 100 98 94
4 3 2 2 2 2 2 2 2 2 3 3 4 6 8 9 13 21 23 24 19 20 22 25 25 24 24 47 60 99 100 100 100 100 100 100 100 100 93 92 92 97 100 100 95
4 3 3 3 2 2 2 2 2 3 4 4 5 6 8 10 14 20 22 25 22 21 30 44 52 21 24 53 66 72 100 100 100 100 100 100 100 100 100 99 93 95 87 80 81
4 3 3 3 2 2 3 3 3 4 5 5 5 6 7 13 18 22 25 25 29 22 26 36 44 30 21 29 41 59 85 100 100 100 100 100 100 100 100 100 100 97 99 91 99
5 4 4 4 3 3 4 4 3 4 5 7 10 12 19 21 22 25 28 30 27 23 19 29 40 37 19 20 25 41 53 92 97 100 100 100 100 100 100 100 100 100 96 96 91
6 6 5 5 4 4 6 7 5 5 10 15 19 22 27 26 24 26 26 31 51 33 31 29 40 45 33 21 21 27 44 67 65 93 100 100 100 100 100 100 100 100 100 100 100
6 7 7 6 6 8 10 13 12 7 9 20 29 29 30 30 29 28 27 32 32 23 22 25 30 36 38 32 23 23 36 53 76 82 97 100 100 100 100 100 100 100 100 100 100
7 8 8 8 8 9 14 20 24 19 16 16 15 28 26 28 29 26 29 30 37 43 28 31 34 36 41 42 47 29 38 62 77 81 74 89 96 100 100 96 97 100 98 96 96
7 9 9 9 8 8 14 29 25 26 29 26 29 27 29 29 29 30 30 33 34 37 34 42 38 40 36 43 49 51 38 46 65 78 75 78 78 90 98 99 100 97 95 96 89
8 10 11 10 10 9 10 19 29 33 28 27 26 29 33 40 38 37 34 37 37 35 31 35 39 41 50 55 62 73 80 80 85 87 86 76 70 62 66 74 81 84 92 96 97
10 9 11 12 12 11 11 18 28 39 38 34 31 32 35 33 33 36 41 40 43 49 51 46 39 45 53 74 81 84 86 90 98 100 90 84 84 77 73 79 85 81 77 76 74
11 10 10 13 13 12 12 15 25 40 50 50 45 42 38 35 39 38 43 49 48 49 51 60 60 53 60 71 95 100 91 98 98 100 95 96 86 73 88 81 85 96 83 74 71
9 11 12 12 13 13 13 14 18 34 53 59 54 52 48 44 40 40 41 39 46 49 48 53 60 67 75 75 85 92 97 100 89 95 82 78 62 74 78 79 80 80 78 77 82
9 9 12 14 12 12 17 14 16 22 42 66 64 61 54 54 51 39 39 40 46 52 55 57 74 88 93 97 100 95 88 85 84 85 77 81 79 85 100 81 75 79 86 79 72
9 8 11 13 16 13 14 17 16 19 27 53 74 68 67 60 62 56 49 42 46 59 68 78 86 94 95 100 100 100 100 90 90 90 92 100 100 95 86 94 97 91 87 78 89

GFSSW_250_rhum_060.txt.gz
RH
6 5 4 4 4 4 4 5 6 6 6 6 6 8 8 7 6 8 8 8 11 26 38 84 100 100 96 59 83 82 82 99 100 91 59 41 38 35 38 36 34 30 26 25 25
5 4 4 4 4 4 4 5 6 6 6 5 5 6 8 7 7 7 8 8 8 15 41 65 100 100 100 83 61 82 84 100 100 100 99 46 32 36 36 35 35 35 27 25 25
4 4 4 4 4 4 5 5 5 5 5 5 4 4 5 7 7 8 8 7 7 10 35 75 80 100 100 100 85 62 89 100 100 100 100 90 35 34 35 36 35 37 36 32 29
4 3 3 4 4 4 4 4 4 4 4 4 3 3 3 5 7 8 8 6 6 8 16 76 78 99 100 100 100 89 83 100 100 100 100 100 72 43 43 37 40 40 43 41 32
3 3 3 3 3 2 3 3 3 2 3 3 3 2 2 4 7 9 7 6 6 7 10 40 91 97 100 100 100 100 96 98 100 100 100 100 98 73 58 42 39 46 47 46 48
3 3 3 2 2 2 2 2 2 2 2 2 2 2 2 4 6 7 6 6 7 7 8 16 78 99 100 100 100 100 100 99 100 100 100 100 100 96 84 72 71 62 59 62 57
3 2 2 2 2 2 2 2 2 2 2 2 2 2 3 4 5 7 6 6 7 7 8 9 47 88 100 100 99 100 100 100 100 100 100 100 100 100 87 87 100 100 100 100 99
3 3 2 2 2 2 1 1 1 1 1 2 2 2 2 3 4 6 6 7 7 8 8 8 10 50 100 100 100 92 92 100 100 100 100 100 100 99 94 89 100 100 100 100 100
3 3 2 2 2 1 1 1 1 1 1 1 1 2 2 3 4 5 6 7 8 8 9 8 9 12 88 100 100 99 94 90 100 100 100 100 100 100 100 95 83 97 100 100 100
3 3 2 2 2 1 2 1 1 1 1 1 1 2 2 3 4 4 6 8 8 8 10 9 9 11 13 96 100 100 100 98 95 100 100 100 100 100 100 100 94 92 98 99 100
3 3 3 2 2 2 2 1 1 1 1 1 2 2 2 3 4 6 9 10 10 11 13 10 9 9 12 25 98 100 100 100 91 93 100 100 100 100 100 100 100 100 100 100 100
3 3 3 2 2 2 2 1 2 2 2 2 2 2 3 3 4 7 9 10 13 14 13 11 10 10 10 14 41 100 100 100 100 100 97 100 100 100 100 100 100 100 100 100 100
3 3 3 2 2 2 2 2 2 2 2 2 2 3 4 5 6 10 11 22 16 19 15 14 13 11 13 13 19 42 100 100 100 100 100 100 100 100 100 100 100 100 100 100 100
3 3 3 3 2 2 2 2 2 2 3 3 3 4 5 7 8 8 16 19 15 16 15 16 15 12 13 14 16 25 68 100 100 100 100 100 95 100 100 100 100 100 100 100 100
4 4 3 3 3 2 2 3 2 3 5 4 4 5 6 8 10 15 23 22 18 21 22 22 18 14 15 17 18 22 31 79 100 100 100 100 95 90 100 100 100 100 100 100 100
5 4 4 3 3 3 4 4 3 3 5 7 7 6 7 10 15 22 21 20 22 26 28 21 19 18 16 17 19 21 23 36 72 100 100 100 100 98 93 91 96 100 100 100 98
6 5 5 5 5 4 5 5 6 5 5 7 11 12 11 18 24 27 22 19 20 26 29 24 21 18 17 18 19 20 21 28 44 91 100 100 100 100 100 96 83 84 84 80 83
7 6 7 6 6 6 7 8 13 14 11 9 12 19 30 24 22 22 20 23 23 23 22 22 18 15 16 19 19 18 20 23 38 51 77 100 100 100 100 100 100 92 87 86 84
8 7 8 7 8 8 10 10 17 21 19 17 15 16 23 25 27 27 25 21 20 22 23 22 23 18 14 17 18 18 20 19 29 37 50 59 99 100 100 100 100 100 100 97 92
8 8 8 9 8 8 9 12 23 23 23 23 27 22 20 25 25 24 24 22 20 20 22 28 31 24 23 18 24 21 27 30 28 33 50 63 68 86 100 100 100 100 96 96 93
8 8 8 9 9 10 9 11 22 31 31 28 26 34 30 24 25 27 26 24 24 26 24 27 32 36 33 24 26 33 52 51 49 57 67 81 99 94 84 89 94 100 100 100 100
9 9 8 9 9 10 12 10 15 25 34 37 33 30 31 32 30 29 30 31 30 27 26 33 36 50 50 42 37 33 30 46 38 50 60 72 87 89 84 90 98 99 100 99 98
9 10 9 8 10 10 11 12 12 21 34 45 48 45 40 37 37 36 34 37 47 51 49 37 30 40 51 64 55 51 38 46 43 42 52 64 76 72 67 74 73 78 88 98 100
9 11 10 9 9 10 11 13 13 14 24 38 48 54 55 51 47 47 51 52 46 49 43 43 39 42 43 49 63 65 63 58 66 75 70 78 82 91 87 76 69 72 77 79 81
9 10 10 11 9 10 10 12 15 13 16 28 42 50 55 54 53 52 52 53 49 50 51 49 57 51 46 46 66 85 86 94 88 89 86 87 90 95 85 92 100 99 96 85 71
8 9 11 10 10 10 10 12 12 14 14 16 28 41 48 55 56 58 48 40 45 43 48 53 60 63 60 52 63 90 97 94 95 96 100 99 100 100 100 100 95 96 82 82 80
8 8 10 10 10 10 11 10 12 14 15 15 20 35 48 56 56 51 52 45 40 36 41 46 53 64 70 68 71 80 93 91 92 88 81 72 82 92 90 82 77 77 80 84 84

GFSSW_250_rhum_063.txt.gz
RH
4 3 3 3 3 3 3 3 4 5 5 6 7 8 10 7 7 7 9 9 9 10 11 30 74 77 73 92 88 69 90 66 55 68 84 78 59 75 78 61 63 50 53 58 46
3 3 3 3 3 3 3 4 4 4 4 5 6 6 9 11 7 7 9 10 8 9 10 17 30 81 64 87 85 69 75 100 100 84 76 74 70 71 83 76 64 49 42 47 46
3 2 3 3 3 3 3 3 4 4 4 4 5 6 7 10 9 9 9 10 9 9 9 12 18 80 85 72 100 81 70 100 94 96 89 64 59 67 79 82 79 62 47 52 51
3 2 3 3 3 3 2 3 3 3 3 3 3 4 5 7 10 10 7 8 8 9 8 10 14 52 78 91 96 100 87 86 100 100 100 97 55 57 63 72 66 68 70 56 57
3 2 2 2 2 2 2 2 2 2 2 2 3 3 3 5 9 13 10 9 7 9 9 9 16 45 86 95 100 100 97 88 97 100 100 100 78 52 54 56 63 66 66 63 59
3 2 2 2 2 2 2 2 2 2 2 2 2 2 3 4 6 9 10 8 7 9 9 9 13 29 85 98 86 100 100 93 99 100 100 100 100 57 54 51 52 55 56 60 59
2 2 2 2 2 2 1 1 1 2 2 2 2 2 2 3 4 7 9 8 7 8 9 9 10 14 44 100 100 100 75 94 100 100 100 100 100 99 74 70 61 58 57 54 58
3 2 2 2 2 2 1 1 1 1 1 1 1 2 2 2 3 5 8 8 6 9 10 9 8 10 26 65 100 100 78 80 100 100 100 100 100 100 88 85 94 90 84 76 63
3 3 2 2 2 2 2 1 1 1 1 1 1 1 2 2 3 5 7 9 8 9 8 8 8 9 12 51 87 100 96 83 100 100 100 100 100 100 100 90 90 100 100 100 100
3 3 3 2 2 2 2 2 1 1 1 1 1 1 2 2 3 4 5 8 9 10 8 8 9 9 10 16 46 100 100 95 99 100 100 100 100 100 100 100 93 97 100 100 100
3 3 3 3 2 2 2 2 1 1 1 1 1 2 2 2 3 4 5 8 10 11 8 9 10 9 9 13 59 98 100 100 100 100 100 100 100 100 100 100 99 93 100 100 100
3 3 3 3 3 3 2 2 1 2 2 1 2 2 2 2 3 5 6 8 10 14 9 9 11 11 10 10 14 85 100 100 95 100 100 100 100 100 100 100 100 100 99 100 100
4 4 4 3 3 3 3 2 2 2 2 2 2 2 2 3 3 4 6 9 11 13 12 14 13 12 10 10 12 68 100 100 100 100 98 100 100 100 100 100 100 100 98 100 100
4 4 4 4 3 3 4 3 2 2 2 2 3 3 4 4 6 7 9 10 12 14 14 14 13 13 11 10 11 42 100 100 100 100 100 93 100 100 100 100 100 100 100 100 100
5 5 5 4 3 4 4 4 2 3 3 4 4 4 5 6 8 10 11 13 16 18 18 16 13 13 11 11 11 12 91 100 100 100 100 100 90 100 100 100 100 100 100 100 100
7 7 6 6 5 4 4 5 5 5 5 4 7 6 7 8 9 12 12 14 17 18 18 19 16 13 12 11 12 12 21 99 100 100 100 100 100 89 92 100 100 100 100 100 100
9 8 8 7 6 5 6 6 8 9 7 5 8 10 10 11 11 13 17 18 18 20 18 17 15 14 14 13 13 13 13 18 92 100 100 100 100 100 98 87 92 100 100 99 95
9 9 9 9 8 7 7 7 10 12 14 12 10 10 13 12 13 19 18 21 25 25 24 19 16 16 15 17 16 15 14 14 15 39 100 100 100 100 100 99 85 82 88 93 100
9 10 9 10 9 8 8 9 11 12 17 20 19 16 16 15 20 24 24 24 24 21 19 20 20 19 17 14 14 13 14 14 13 16 20 36 91 100 100 100 100 92 83 88 92
11 9 10 10 10 8 9 10 11 14 16 21 22 26 22 19 22 22 26 25 25 22 19 20 19 18 20 18 16 14 16 16 16 16 18 19 25 57 96 100 100 100 100 100 94
12 10 9 10 11 10 9 9 11 13 20 21 24 27 27 24 22 21 23 24 25 24 26 25 24 22 22 20 19 18 17 18 19 21 20 21 23 39 56 80 100 100 100 100 100
11 10 9 9 10 11 9 10 12 13 20 26 28 28 29 30 27 25 25 25 29 29 30 33 31 29 23 21 22 26 21 21 23 23 23 26 30 35 46 60 61 63 100 100 100
11 9 9 8 9 10 10 9 11 13 14 25 32 39 40 37 32 33 28 28 27 31 32 35 38 43 38 30 29 27 33 32 27 28 29 26 32 41 47 49 54 60 66 91 100
12 10 8 9 9 9 10 9 10 11 13 15 29 36 43 57 57 46 39 35 35 30 30 33 36 46 54 54 47 43 43 46 49 52 50 40 42 40 49 64 66 74 72 85 65
12 12 9 8 8 9 10 10 10 11 12 14 19 35 36 40 53 61 59 55 48 43 37 36 36 36 46 47 49 48 51 49 62 65 58 54 60 58 72 72 80 84 96 93 68
14 12 9 8 8 9 10 9 10 11 11 13 15 20 42 44 44 52 54 50 54 50 50 53 54 44 44 45 46 51 49 45 51 55 62 56 53 62 85 97 87 84 82 77 74
14 12 10 8 7 8 9 10 10 10 11 12 16 16 20 42 43 41 49 50 45 46 50 50 50 45 46 45 53 58 54 66 66 72 70 86 96 95 92 87 80 78 77 74 76

GFSSW_250_rhum_066.txt.gz
RH
4 3 2 2 2 2 2 2 2 3 4 5 5 6 8 9 7 7 9 10 9 10 11 16 19 39 100 100 99 77 64 90 100 100 74 56 46 68 71 72 84 90 55 71 71
4 3 3 3 3 3 2 2 2 2 2 4 5 6 7 9 8 6 9 11 10 10 12 16 28 44 82 100 100 83 76 96 100 100 98 58 40 61 68 69 81 79 71 72 69
4 3 3 3 3 2 2 2 2 2 2 2 4 5 6 9 9 9 8 11 10 10 12 13 53 30 72 100 100 99 81 100 100 100 100 86 42 56 74 76 77 78 68 71 79
4 3 2 2 2 2 2 2 2 2 2 2 2 4 6 7 11 10 9 10 9 9 11 13 14 64 55 95 100 100 100 100 100 100 100 100 51 67 72 84 77 69 61 83 83
3 2 2 2 2 2 2 2 2 2 2 2 2 2 4 7 10 11 10 8 8 10 11 12 14 20 51 96 100 100 100 93 99 100 100 100 88 52 66 69 79 78 96 88 86
3 2 2 2 2 2 2 1 1 2 1 2 2 2 3 5 6 10 10 8 8 11 10 12 13 13 25 53 90 100 100 78 78 100 100 100 100 63 56 63 81 95 96 91 91
3 2 2 2 2 2 2 2 1 1 1 1 2 2 2 3 5 10 11 9 8 11 11 11 12 12 15 28 70 100 86 82 61 100 100 100 100 100 59 61 74 91 95 98 97
3 2 2 2 2 2 2 1 1 1 1 1 1 2 2 3 4 8 9 11 9 10 13 11 11 11 12 18 30 77 85 81 82 97 100 100 100 100 94 62 70 77 88 92 96
3 2 2 3 2 2 2 2 1 1 1 1 2 1 2 2 4 6 10 12 10 10 11 12 11 12 12 12 14 29 63 81 100 100 100 100 100 100 99 97 72 82 77 75 77
2 2 3 3 3 2 2 2 2 1 1 1 1 2 2 2 3 4 9 10 15 10 11 11 12 12 10 10 12 14 47 84 100 100 100 100 100 100 100 94 100 100 100 98 76
3 3 3 3 3 3 2 2 2 2 1 1 1 2 2 2 3 4 8 10 15 13 12 11 11 11 13 12 12 12 30 66 100 100 100 100 100 100 100 100 100 99 100 100 100
3 4 3 3 3 3 3 3 2 2 2 2 1 2 2 2 3 4 6 9 16 22 12 12 13 13 11 10 9 10 13 50 93 100 100 100 99 100 100 100 100 100 100 100 100
3 4 3 3 3 4 3 3 3 2 2 2 2 2 2 2 3 3 5 8 14 27 14 15 16 16 11 10 10 9 11 19 64 100 100 100 95 91 99 100 100 100 100 100 100
4 5 4 4 4 4 4 4 4 3 3 3 2 3 2 3 3 5 6 8 9 16 14 17 14 15 12 11 10 10 11 14 35 100 100 100 100 92 96 100 100 100 100 100 100
5 5 5 5 5 4 4 4 4 6 4 3 3 4 3 4 4 5 7 9 11 12 14 16 11 12 12 12 12 11 10 13 86 100 100 100 100 100 94 100 100 100 100 100 100
7 6 6 6 6 6 5 5 4 8 7 5 5 5 6 5 6 6 7 9 10 11 14 18 19 20 18 13 12 12 11 12 25 74 99 100 100 100 100 100 100 100 100 100 100
10 6 7 7 7 7 7 6 6 10 10 8 8 7 8 8 8 8 8 10 12 14 14 14 16 19 21 18 13 12 11 11 13 51 84 100 100 100 99 100 100 100 100 100 100
26 12 7 8 8 8 8 7 8 8 11 11 13 13 13 11 11 12 11 10 12 14 15 16 15 15 18 20 15 13 12 11 11 14 61 100 100 100 100 100 100 100 100 100 100
43 22 12 9 9 8 8 8 8 9 10 13 14 20 19 17 16 17 17 17 17 17 19 21 20 19 18 17 15 14 13 13 13 13 16 47 99 100 100 100 100 94 100 100 100
32 30 25 10 10 10 9 8 8 9 11 13 15 15 22 24 21 22 23 22 21 18 20 21 23 20 16 16 15 14 14 14 13 14 15 17 34 99 100 100 100 100 93 88 94
52 56 34 26 10 11 10 9 9 8 10 12 21 18 17 22 27 28 29 28 27 25 25 23 21 22 20 17 15 17 16 16 16 15 15 15 16 28 100 100 100 100 100 100 99
34 40 40 39 11 11 10 9 9 9 9 12 12 21 19 18 22 23 26 30 31 32 35 31 29 29 28 29 26 24 24 21 20 18 17 15 16 18 50 100 100 100 100 100 100
56 84 51 32 25 12 11 10 9 9 9 10 12 12 21 22 18 23 24 28 30 30 34 36 33 35 33 34 33 29 27 26 24 22 19 16 16 17 18 26 75 100 100 100 100
36 58 52 44 31 11 12 10 9 8 9 10 12 12 15 27 26 23 21 25 27 29 31 35 32 35 35 31 36 35 28 26 25 24 21 19 20 19 18 20 24 28 40 67 77
76 54 69 52 34 9 10 11 9 8 9 9 12 15 14 18 31 30 28 30 31 30 34 40 44 46 42 33 34 35 35 34 31 26 26 22 23 23 23 22 24 23 29 40 50
31 46 35 24 17 10 9 10 10 8 8 9 10 12 16 16 26 40 36 32 32 39 41 34 28 33 44 39 33 33 33 43 46 40 36 25 26 29 26 27 32 38 42 43 48
47 50 34 37 18 10 8 9 10 9 7 8 10 10 13 16 18 31 41 37 37 37 38 43 37 35 35 37 45 52 34 35 38 45 45 62 38 39 29 28 32 42 54 64 69

GFSSW_250_rhum_069.txt.gz
RH
4 4 3 3 3 3 3 2 2 2 2 3 3 4 5 6 6 5 6 7 10 9 9 10 10 12 16 25 93 100 100 100 97 100 100 100 91 64 61 60 59 67 85 89 83
4 3 2 2 2 2 3 2 2 2 2 2 4 4 4 6 7 7 7 7 9 9 10 10 11 12 15 26 70 89 100 100 100 100 100 100 93 77 62 53 53 68 82 97 98
4 3 2 2 2 2 2 2 2 2 2 2 3 4 4 5 8 8 7 8 9 9 10 10 10 12 14 22 52 100 100 100 100 99 96 100 100 81 84 60 48 55 80 85 91
4 3 2 2 2 2 2 2 2 2 2 2 2 3 5 6 8 8 9 8 8 10 10 10 10 13 14 20 42 100 100 99 100 100 100 100 100 98 93 64 47 53 78 81 93
3 3 2 2 2 2 2 1 1 1 2 2 2 2 4 6 6 8 9 8 8 12 10 10 11 13 16 18 33 97 100 98 96 100 100 100 100 98 100 82 54 54 63 87 84
3 3 2 2 2 2 2 1 1 1 1 1 2 2 3 5 5 8 9 8 8 12 12 11 12 13 16 18 25 48 80 98 86 100 100 100 100 98 100 100 74 56 58 74 89
3 3 2 2 2 2 2 1 1 1 1 1 2 2 2 4 6 7 10 10 9 11 13 12 11 14 16 17 26 37 52 75 98 100 100 100 100 100 100 100 95 60 68 66 81
2 3 2 2 2 2 2 2 2 1 1 1 2 2 2 3 6 8 8 10 10 11 12 13 11 14 15 17 21 25 23 28 92 99 100 100 100 100 99 100 100 89 68 70 61
3 3 2 2 2 2 2 2 2 1 1 1 1 2 2 3 5 6 9 10 10 11 12 13 13 14 16 18 17 17 16 26 97 88 100 100 100 100 100 100 100 100 94 75 72
3 3 3 2 2 2 2 2 2 2 1 1 1 2 2 2 3 6 11 11 12 12 12 13 12 13 14 17 55 48 34 29 99 100 85 100 100 100 100 100 100 100 100 99 85
4 3 3 2 2 2 2 2 2 2 2 2 1 2 2 2 3 4 8 13 13 12 12 12 13 16 18 20 48 86 33 22 73 100 82 90 100 100 100 100 100 100 100 100 100
6 5 4 3 2 3 3 3 3 3 2 2 2 2 2 2 3 5 7 10 14 14 12 11 13 16 15 16 17 58 85 49 52 87 82 76 96 100 100 98 94 100 100 100 100
8 5 4 4 3 3 3 4 4 3 4 2 2 2 2 2 3 4 8 8 13 13 17 11 15 16 15 14 15 17 68 57 25 61 92 95 100 100 100 100 90 100 100 100 100
13 8 6 5 4 4 4 4 5 4 7 4 3 3 3 3 3 4 5 8 13 18 18 13 15 15 17 15 14 15 15 24 20 33 90 97 100 100 99 96 100 94 92 96 100
21 16 14 6 6 5 5 4 5 5 7 7 4 3 4 4 4 5 6 8 12 16 19 18 15 16 17 15 14 13 11 11 16 16 21 73 96 100 100 96 100 100 100 100 100
38 31 19 17 9 6 6 5 5 6 6 9 9 4 4 5 5 5 6 6 8 10 15 16 16 23 20 17 16 12 11 11 13 14 14 23 70 100 100 100 100 99 98 100 100
47 46 41 26 11 7 7 7 7 6 7 7 11 9 5 6 9 7 6 10 13 12 12 9 14 20 17 19 16 13 12 12 12 11 13 24 18 90 100 100 100 100 99 99 100
65 57 59 32 25 10 8 8 8 8 7 7 9 13 10 7 9 12 10 8 9 8 8 11 15 20 26 21 17 14 14 14 13 12 13 22 18 30 88 100 100 100 100 100 100
46 63 86 61 49 17 9 7 8 8 9 8 9 14 17 12 10 12 13 13 13 11 11 13 14 17 22 23 20 16 18 16 16 13 13 12 13 39 59 100 100 100 100 100 100
40 61 98 95 61 32 11 8 8 8 8 9 10 10 18 17 12 12 14 18 20 18 16 16 16 17 19 18 18 17 13 17 18 18 15 13 13 14 38 100 100 100 100 100 100
51 81 83 99 92 53 18 9 8 8 8 9 8 12 13 23 18 15 15 18 24 25 26 25 24 23 23 21 21 19 17 15 18 17 15 14 14 15 24 94 100 100 100 100 100
61 61 72 87 89 59 18 10 8 8 8 8 9 8 13 18 25 20 17 17 21 26 29 32 34 33 34 34 29 25 24 21 17 17 15 14 15 15 17 25 92 100 100 100 100
53 59 54 64 85 75 27 14 8 7 9 8 8 9 9 13 22 28 23 19 20 22 24 28 30 34 34 33 34 29 27 22 19 16 14 14 15 16 16 17 19 30 74 98 100
61 62 59 51 55 68 53 18 8 6 7 8 8 9 8 9 14 25 34 27 22 23 24 26 27 31 34 35 37 34 33 30 25 20 18 17 18 17 17 16 18 19 23 36 70
56 78 74 62 58 53 60 35 12 6 6 8 8 8 9 8 10 13 25 36 36 26 25 25 25 26 30 35 41 39 35 36 32 25 22 20 22 21 20 19 18 17 18 20 25
65 90 77 71 44 64 59 39 21 8 5 6 8 8 9 10 9 12 14 21 30 39 35 30 28 25 27 24 29 42 42 37 29 30 27 22 23 24 22 22 20 18 19 20 22
81 86 85 93 50 42 32 24 16 8 5 5 7 8 8 10 11 12 14 17 25 35 37 35 32 32 31 27 30 34 40 35 37 33 27 32 27 29 30 23 21 21 19 19 20

GFSSW_250_rhum_072.txt.gz
RH
4 4 3 3 3 2 2 2 2 2 2 2 2 2 3 4 4 5 6 6 8 8 9 12 10 8 10 14 13 76 55 100 100 100 96 81 73 100 100 100 75 64 90 84 77
4 4 4 3 2 2 2 2 2 2 2 2 2 2 3 4 4 5 5 5 8 9 9 12 11 9 10 14 14 73 59 88 100 100 100 100 78 96 100 100 81 69 67 88 84
3 4 4 3 2 2 2 1 1 2 2 2 2 2 3 4 4 5 5 6 8 9 8 11 10 9 10 13 15 55 90 100 100 100 100 100 94 88 100 100 88 80 82 81 84
2 4 4 3 2 2 2 1 1 1 1 2 1 2 3 3 5 5 6 7 8 8 8 12 11 10 10 13 15 38 100 100 100 100 100 100 100 92 88 100 100 86 89 75 73
2 3 4 3 2 2 2 1 1 1 1 2 1 2 2 3 4 5 6 6 7 8 7 12 12 11 11 12 15 26 100 100 97 100 100 100 100 88 95 100 100 96 91 81 74
3 2 4 3 2 2 2 1 1 1 1 1 1 2 2 3 4 5 7 8 8 9 7 12 14 11 12 12 14 32 100 71 97 100 100 100 100 87 81 99 100 100 83 80 81
4 2 3 3 2 2 2 2 2 1 1 1 1 2 2 3 3 6 7 8 8 9 7 12 13 13 12 12 14 20 100 68 100 100 100 100 100 89 60 84 100 100 83 74 77
5 3 3 3 2 2 2 2 2 2 1 1 1 2 2 3 3 5 8 8 8 11 10 11 14 14 13 12 14 19 35 52 68 100 100 100 100 100 88 47 95 100 100 75 71
7 4 4 4 3 2 2 2 2 2 2 1 1 2 2 2 3 5 8 10 10 11 12 11 15 15 13 13 15 18 19 56 68 94 100 100 100 100 82 72 75 99 100 100 78
10 7 4 4 3 2 3 2 2 3 2 2 2 2 2 2 3 4 8 10 11 12 14 11 14 15 14 15 19 28 24 66 98 79 99 100 100 100 100 89 100 94 100 100 100
14 10 6 5 4 3 3 3 3 3 4 2 2 2 2 3 3 3 7 10 9 12 11 11 14 18 17 17 20 23 22 41 100 100 82 82 100 100 98 99 99 94 93 100 100
16 12 8 7 4 5 3 3 3 3 5 3 2 2 2 3 3 4 6 9 10 13 12 12 16 17 16 15 18 21 25 28 60 67 48 68 82 89 94 91 90 99 93 100 100
21 17 14 10 8 5 4 4 4 4 4 6 3 2 2 2 3 3 6 9 12 13 15 16 17 16 18 17 17 21 28 31 29 47 57 55 67 67 76 94 100 97 100 96 100
26 28 26 18 18 8 6 4 5 4 5 4 5 3 3 2 3 3 4 9 11 12 13 17 16 16 16 18 18 19 22 28 34 29 70 63 57 46 58 90 83 94 99 100 96
29 37 36 44 30 21 10 6 4 5 5 5 6 6 3 4 4 5 5 9 13 16 15 16 17 16 16 17 17 18 19 26 26 37 30 27 34 31 34 66 95 100 95 99 100
33 49 42 50 51 31 18 11 7 5 5 5 6 8 6 4 5 5 6 8 10 10 12 17 18 17 17 17 18 16 17 18 21 23 30 24 17 39 27 67 92 97 97 85 95
38 45 65 52 58 48 37 17 14 6 6 5 6 7 10 8 6 7 8 9 10 10 16 16 16 16 16 17 16 17 17 18 18 18 23 28 17 39 34 52 77 92 89 97 88
48 44 62 58 57 62 62 30 12 10 5 6 5 7 9 13 8 7 10 9 8 8 9 14 14 14 17 19 19 18 16 16 14 15 21 24 15 39 58 76 97 99 96 98 100
40 48 52 71 66 69 50 50 23 12 8 6 6 6 8 12 14 10 9 15 13 17 14 13 14 15 17 18 19 19 17 18 18 17 18 18 35 100 89 71 94 100 100 100 100
39 48 48 54 85 74 55 50 48 23 13 7 7 6 8 9 15 16 12 11 14 18 19 19 20 22 24 25 21 20 20 19 18 19 19 18 19 32 96 99 86 94 100 100 100
37 62 52 68 68 79 65 47 56 33 21 10 6 7 6 9 10 20 16 14 13 14 16 17 20 20 20 24 33 33 29 26 21 21 21 21 21 21 19 27 88 100 80 83 100
46 58 62 63 78 73 62 42 47 37 27 18 8 6 6 7 11 12 22 17 16 15 14 16 17 20 20 19 19 19 20 19 24 26 22 20 21 24 23 18 18 23 68 40 36
41 51 69 78 73 72 61 70 34 38 25 16 13 7 7 6 8 12 15 24 19 18 18 19 22 24 23 24 24 24 23 22 21 19 19 16 17 21 23 21 18 17 16 24 41
36 52 71 72 85 93 82 60 74 46 26 18 12 9 6 7 8 11 12 21 26 21 21 24 23 23 27 30 31 28 24 22 20 18 17 18 18 18 20 20 18 17 16 16 22
39 42 50 61 81 88 90 78 60 60 30 19 15 9 8 7 7 9 14 14 25 34 24 21 24 28 27 29 30 34 33 29 27 20 19 18 18 18 17 18 18 17 17 17 17
37 36 41 52 74 86 76 75 60 50 35 21 11 11 8 8 7 8 10 15 16 31 40 31 24 22 26 28 30 31 36 31 26 25 22 21 20 17 17 18 17 18 19 18 18
36 38 37 41 50 86 74 79 59 48 30 21 11 8 8 8 8 7 9 11 15 24 40 42 43 31 24 23 26 38 39 33 29 35 26 32 24 23 19 19 18 19 20 20 20

GFSSW_250_rhum_075.txt.gz
RH
4 5 5 6 3 2 2 2 2 2 2 2 2 2 2 3 3 4 5 5 5 6 8 10 13 12 11 8 9 14 13 16 15 71 99 81 79 54 50 59 99 100 100 96 74
4 4 5 6 3 2 2 2 2 2 2 2 2 2 2 3 3 4 4 5 5 6 7 9 13 13 14 10 9 11 13 17 16 23 100 98 100 77 60 62 98 100 100 100 95
4 3 4 4 3 2 2 2 2 2 1 1 1 1 2 3 4 4 4 5 5 6 7 8 11 14 14 14 10 10 13 17 16 17 65 100 98 100 82 71 95 100 100 100 100
5 4 3 3 3 2 2 2 2 2 1 1 1 1 2 2 4 4 4 5 6 6 6 6 9 12 15 17 14 12 13 16 17 21 68 84 100 100 100 93 75 100 100 100 100
8 5 3 3 3 2 2 2 2 2 1 1 1 1 2 2 3 4 6 5 6 7 7 8 9 12 14 16 17 14 13 16 18 24 60 89 100 100 100 100 100 98 100 100 100
10 5 4 3 3 3 2 2 2 2 1 1 1 1 2 2 2 4 6 6 7 8 7 8 9 10 14 17 15 15 12 15 20 20 49 98 100 100 100 100 100 100 100 100 100
15 7 5 3 3 4 3 3 2 2 2 1 1 1 2 2 2 3 6 7 7 7 7 9 9 11 14 16 16 14 12 16 20 19 40 100 100 100 100 100 100 100 100 100 100
21 10 8 4 4 3 4 2 3 2 2 2 1 1 2 2 3 3 6 10 8 8 9 10 10 10 14 17 16 13 14 17 19 21 61 100 100 100 98 100 100 100 100 100 100
21 14 8 6 4 4 4 3 3 2 2 2 2 2 2 2 3 3 5 8 9 9 10 12 12 12 16 19 20 13 15 18 21 62 82 100 100 100 100 98 100 100 100 100 100
26 19 15 8 5 4 4 4 3 4 3 3 2 2 2 2 3 3 4 6 10 10 9 11 12 12 16 18 21 16 19 20 23 96 100 100 100 100 100 79 82 99 100 100 100
28 20 17 13 7 5 4 4 4 4 3 4 2 2 2 3 3 3 4 4 9 11 11 11 13 14 21 24 21 17 20 22 26 55 84 100 100 100 100 71 63 89 92 100 98
32 21 20 15 10 8 5 4 5 4 4 4 4 2 2 2 3 3 4 5 10 14 11 12 15 14 18 21 19 16 20 21 24 38 59 99 100 100 100 87 51 72 93 100 96
35 28 21 19 15 13 8 6 4 5 4 5 4 4 3 2 3 3 4 6 10 14 12 13 15 14 19 20 17 16 19 23 25 29 73 85 100 98 100 100 51 72 84 95 100
44 33 25 23 28 16 14 9 5 6 6 4 4 4 4 3 3 4 4 6 10 13 12 12 15 17 18 20 17 17 17 21 27 24 48 72 100 100 99 61 65 58 82 95 97
54 45 30 24 32 30 24 17 10 6 11 6 5 5 5 4 3 4 5 6 8 12 12 12 17 19 19 21 20 19 18 18 23 27 25 46 98 100 78 48 52 51 64 84 98
53 52 40 32 29 44 34 31 17 11 8 11 6 6 5 6 5 5 5 6 8 11 11 12 16 19 22 21 22 19 18 18 20 30 26 28 66 95 74 76 59 44 48 51 80
54 57 45 37 42 33 41 48 39 18 13 10 10 7 6 5 7 6 6 6 9 13 13 13 14 17 18 20 21 20 19 19 20 22 34 37 32 100 94 74 75 50 41 41 65
52 58 42 42 50 43 40 45 47 29 18 14 13 9 8 7 7 9 6 6 8 12 12 21 20 18 18 21 21 22 21 23 23 24 43 48 33 44 45 53 39 41 43 31 54
50 58 52 41 53 64 47 58 39 52 28 18 20 14 9 8 8 10 11 7 8 11 16 19 22 18 17 19 21 22 22 23 25 24 23 25 31 35 35 31 46 43 36 46 44
47 57 59 43 64 58 60 63 64 51 50 25 18 20 16 9 10 8 13 12 9 8 12 19 18 20 22 22 20 20 22 21 22 28 27 24 22 22 45 34 30 39 49 48 55
49 57 61 51 57 63 53 57 70 65 50 37 24 17 21 12 9 11 9 14 14 11 9 10 17 25 32 40 43 34 30 29 30 27 27 30 29 29 94 76 61 74 44 48 39
48 57 63 62 54 63 55 50 71 73 59 44 23 20 21 18 9 9 11 14 16 15 14 11 10 14 17 26 36 39 41 25 28 38 37 36 31 30 31 36 33 70 73 53 41
45 60 71 66 58 64 48 61 88 74 64 55 32 23 20 23 10 9 11 13 17 20 17 15 12 12 12 13 15 18 20 24 22 24 23 25 34 28 29 31 29 31 30 29 43
45 67 72 66 62 54 43 58 69 59 56 45 31 21 17 22 15 9 9 11 14 22 23 19 18 16 15 14 13 16 18 17 17 19 29 26 23 23 25 27 28 27 24 21 19
44 66 70 68 64 45 47 50 65 63 54 51 29 20 17 19 18 9 8 9 11 16 26 26 22 19 18 17 18 16 17 18 20 21 17 22 20 19 19 22 25 26 24 22 20
50 62 72 68 57 49 42 57 60 56 49 46 30 19 17 16 16 11 8 8 10 12 17 29 31 24 21 23 21 21 24 24 25 22 24 21 22 18 18 19 19 21 23 23 22
58 59 76 66 56 47 40 51 72 60 39 39 27 15 14 13 12 10 9 8 9 12 13 16 29 37 28 24 23 29 24 24 24 31 28 30 25 25 23 21 19 18 19 22 23

GFSSW_250_rhum_078.txt.gz
RH
11 8 6 4 4 3 3 2 2 1 1 1 1 1 2 2 3 3 4 4 4 4 5 7 10 11 12 11 9 9 12 14 16 15 19 34 67 89 87 55 43 51 98 100 100
12 9 6 6 4 3 3 2 2 2 1 1 1 1 1 2 3 3 4 4 5 4 5 6 11 11 14 11 10 9 11 16 17 16 16 14 29 62 98 79 55 47 68 97 100
12 12 8 5 4 4 3 2 2 2 2 2 1 1 1 1 2 4 4 5 5 5 5 6 8 11 13 14 12 10 9 14 17 18 16 15 15 31 94 94 84 71 78 98 93
16 14 12 6 5 4 3 2 2 2 2 2 1 1 1 1 2 4 5 4 5 5 5 6 8 12 14 15 15 12 9 12 17 18 18 17 15 23 96 98 95 100 99 100 95
21 14 12 9 5 4 3 3 2 2 2 2 1 1 1 1 2 3 4 5 5 5 5 7 8 11 15 16 18 14 9 10 14 17 18 18 14 17 89 100 94 100 91 100 100
25 18 15 10 5 4 3 3 2 2 2 2 2 1 1 1 2 2 4 6 6 5 6 7 8 9 14 16 18 17 12 11 14 16 18 21 16 16 47 100 100 100 98 100 100
36 28 20 13 8 3 4 3 3 2 2 2 2 2 1 1 2 2 3 6 6 5 6 7 8 10 12 17 17 18 15 12 12 15 18 21 19 16 23 81 100 100 100 100 100
42 34 25 21 13 5 4 3 3 3 2 2 2 2 1 2 2 2 3 5 6 6 7 7 9 10 11 15 17 18 17 14 14 14 16 20 20 18 18 36 99 100 100 100 100
41 43 39 32 16 8 4 4 3 3 3 2 3 2 2 2 2 3 3 4 8 9 7 8 9 11 11 12 16 19 20 19 18 16 16 18 20 18 17 18 74 100 100 100 100
49 54 50 43 26 13 6 4 4 4 3 3 3 3 2 2 2 3 3 4 8 10 8 8 9 10 13 13 15 20 24 24 21 19 17 19 22 20 17 16 28 98 100 100 100
58 54 56 42 38 23 10 4 4 5 4 4 4 3 2 2 2 3 4 4 7 9 10 9 10 14 17 16 17 20 26 25 23 22 19 19 20 21 20 15 21 38 100 100 100
69 58 61 41 39 34 19 8 5 5 6 5 4 4 3 2 2 3 4 5 7 11 10 10 12 14 14 15 18 18 23 23 22 21 20 19 19 21 20 22 16 20 72 100 100
76 73 69 43 38 38 29 15 7 6 6 6 5 4 4 3 3 3 4 5 6 8 11 14 14 15 15 16 17 19 20 20 20 19 20 19 21 24 26 26 30 16 26 93 100
82 79 73 50 41 44 36 27 14 9 6 6 5 4 4 5 3 3 4 5 6 10 14 16 14 14 16 17 16 18 21 20 22 20 19 19 22 26 25 31 25 24 17 38 100
87 88 76 54 48 44 37 39 26 14 12 8 8 5 5 5 6 4 4 6 7 9 12 14 16 16 17 18 18 19 21 21 22 21 19 18 23 27 26 34 58 40 33 27 56
84 93 81 54 46 50 46 45 34 20 17 13 11 11 7 6 6 5 5 6 7 10 14 18 18 18 18 17 20 21 24 22 23 22 20 21 23 34 39 88 80 45 32 26 22
84 96 86 56 46 51 50 45 41 37 24 14 15 12 11 9 6 7 6 6 8 10 14 17 22 23 22 20 23 23 24 23 21 21 21 23 22 42 47 96 96 65 61 48 28
85 94 85 62 44 51 50 51 41 46 49 30 18 16 15 14 10 6 10 6 7 10 17 22 22 23 25 25 24 23 23 22 24 23 25 23 24 41 37 49 80 83 77 64 52
87 95 85 58 44 57 52 55 55 63 57 42 24 21 17 15 16 9 7 12 8 7 10 21 27 22 23 24 24 27 25 24 23 24 26 24 26 33 35 42 50 71 99 99 79
94 96 88 58 44 53 56 51 55 65 74 53 38 27 21 16 18 16 8 8 13 9 9 16 22 26 26 24 22 26 26 25 26 33 31 28 29 31 30 31 37 58 79 66 64
100 95 84 53 46 53 62 64 46 55 72 67 46 32 22 20 15 22 12 8 8 13 10 9 13 19 23 29 27 24 26 26 28 30 37 44 39 41 42 34 31 34 44 63 65
98 96 80 54 47 52 62 70 59 55 74 72 48 35 23 20 15 14 20 10 8 9 13 13 11 12 17 23 28 34 36 32 30 32 31 35 40 40 40 35 32 35 36 39 41
100 97 77 56 48 51 65 73 55 60 59 70 58 45 26 21 20 15 16 14 9 8 10 13 15 12 11 13 19 24 35 41 42 39 37 40 69 62 54 40 38 44 50 40 47
100 90 79 58 46 51 69 71 59 53 55 76 66 49 30 22 18 15 14 14 10 9 9 11 13 14 14 13 12 15 18 22 26 30 39 38 48 64 42 38 33 29 29 35 49
100 93 68 60 44 50 61 68 66 61 73 60 57 42 40 25 20 15 12 12 10 10 9 11 14 16 16 17 16 15 15 14 15 20 20 31 29 31 32 29 27 33 30 29 31
98 90 63 59 42 43 53 68 65 60 75 63 70 41 35 24 15 13 9 9 11 10 10 10 12 18 17 19 18 18 18 16 16 17 19 19 20 20 20 23 24 24 26 30 27
92 79 59 59 38 40 55 58 62 73 70 66 71 57 32 22 15 10 7 6 10 9 10 11 11 14 20 23 21 22 20 20 19 18 17 18 19 15 16 15 16 19 20 23 26

GFSSW_250_rhum_081.txt.gz
RH
19 13 15 9 9 6 5 3 2 2 2 2 1 1 1 1 2 3 3 3 4 5 5 6 8 9 9 8 9 10 10 13 16 15 14 21 69 67 65 64 66 52 36 48 95
29 15 16 15 9 6 6 3 3 2 2 2 2 1 1 1 1 3 3 4 4 5 6 6 7 8 10 10 8 9 11 14 16 16 16 15 19 47 58 66 69 60 52 48 58
30 22 23 18 10 8 6 4 3 2 2 2 2 1 1 1 1 2 3 4 4 5 6 6 7 8 10 11 10 10 12 13 15 18 16 16 14 18 46 58 68 64 56 50 58
40 23 22 27 22 15 10 4 3 2 2 2 2 1 1 1 1 2 2 4 4 5 6 6 7 8 9 12 12 10 13 14 16 18 16 16 15 15 22 50 65 74 66 54 51
46 24 20 23 27 20 10 4 4 3 2 2 2 1 1 1 1 2 2 4 5 5 6 7 7 8 8 12 14 12 13 13 14 17 16 16 16 15 15 22 50 77 86 77 60
57 26 21 23 28 22 13 4 4 3 2 2 2 1 1 1 1 1 2 4 6 5 6 8 8 8 8 10 14 14 14 15 14 15 15 14 17 16 16 15 18 55 89 100 80
59 28 21 18 34 30 19 5 4 3 3 2 2 2 1 2 2 2 2 4 7 6 6 8 8 8 8 9 14 16 15 17 14 15 16 15 17 17 16 16 16 41 93 100 100
71 30 26 19 38 33 26 10 4 4 4 2 2 2 2 2 2 2 3 3 6 6 6 8 8 9 9 9 13 17 16 18 15 14 16 15 19 21 18 17 16 26 51 100 100
79 48 29 21 41 40 31 15 4 4 4 3 3 2 2 2 2 2 3 3 4 6 8 8 8 9 10 10 11 17 19 20 19 14 14 13 19 19 18 17 15 17 20 86 100
74 62 36 28 40 41 39 21 5 5 4 5 4 3 2 2 2 2 3 3 4 7 7 7 8 9 10 10 11 17 20 22 23 18 15 14 20 19 19 19 17 16 18 48 100
77 65 46 36 45 46 42 30 9 6 4 6 5 3 3 2 2 2 3 3 5 10 10 8 10 10 11 12 14 16 22 25 29 22 17 14 16 16 20 20 19 17 19 33 98
79 68 46 41 45 54 44 40 21 6 6 7 6 5 3 3 2 2 3 4 6 10 12 10 10 12 12 13 14 15 22 26 24 22 19 15 14 16 17 18 18 18 19 24 84
85 73 66 48 53 57 43 45 29 10 11 7 6 7 4 4 3 3 3 4 6 8 11 13 11 10 12 13 13 15 18 21 22 24 21 16 15 16 18 17 18 18 18 20 25
89 79 69 57 57 70 48 45 38 15 18 9 8 9 9 4 5 3 4 4 6 9 11 14 13 12 12 13 14 15 16 17 20 23 23 19 19 17 18 18 19 18 19 20 19
90 84 77 58 70 76 50 46 40 25 19 14 10 10 10 11 5 6 4 4 5 7 12 14 16 16 16 16 14 14 15 16 18 24 25 22 22 22 18 21 21 19 16 18 18
96 93 82 62 73 79 53 47 48 39 26 26 15 15 12 10 13 6 7 5 5 8 12 16 17 17 15 16 16 15 15 17 20 23 26 23 21 22 22 22 21 21 19 15 18
92 97 89 69 74 75 59 44 49 56 29 20 19 18 14 14 11 15 7 7 6 7 11 16 22 22 21 18 18 18 17 18 19 23 29 24 22 31 21 23 22 22 22 20 15
94 98 92 79 76 74 60 47 46 49 48 24 27 22 23 19 16 14 15 9 8 6 8 14 17 23 27 24 23 20 21 22 22 23 28 23 25 29 24 26 25 24 22 25 23
94 100 90 80 75 77 60 48 44 52 60 50 24 26 19 23 22 19 14 14 11 9 8 10 16 19 20 22 24 24 24 23 23 24 28 24 27 27 26 24 26 25 26 31 25
89 100 95 85 84 77 60 46 47 53 62 81 49 38 26 21 23 22 21 15 12 11 11 9 13 17 21 23 24 22 21 21 23 26 25 23 24 29 25 25 26 27 25 26 26
99 97 92 93 88 81 67 50 44 52 65 73 63 56 44 30 26 25 22 21 12 9 9 12 10 14 17 22 24 26 26 27 28 28 27 29 29 32 28 30 28 26 27 28 30
100 98 97 93 86 83 71 52 40 56 59 76 72 68 47 41 39 20 24 20 14 11 7 10 14 12 16 18 20 21 22 23 26 29 29 32 35 38 33 35 38 31 31 30 31
100 98 98 88 87 86 69 50 43 55 54 78 83 74 60 39 34 25 21 20 13 8 10 7 13 14 12 15 20 22 21 21 25 29 33 31 59 55 59 38 30 33 36 38 33
100 100 96 82 76 86 70 47 45 50 57 77 77 82 57 38 31 23 21 20 12 8 9 7 8 12 14 13 13 18 18 18 19 28 44 45 61 88 60 47 28 27 33 36 38
100 99 98 76 79 82 64 51 42 46 57 75 95 68 55 47 32 22 20 19 12 6 7 9 7 8 14 16 14 14 13 15 20 26 23 60 46 60 62 35 36 38 40 32 32
100 100 90 64 69 72 57 47 41 54 56 69 99 79 74 47 28 21 21 18 10 5 6 9 6 7 8 16 18 18 15 13 13 15 22 25 29 29 32 34 32 32 33 28 27
100 100 89 59 73 70 55 43 45 51 56 66 85 84 78 40 24 16 11 13 6 5 5 7 7 6 7 8 15 22 18 17 16 14 14 18 26 19 21 22 24 25 26 26 28

GFSSW_250_rhum_087.txt.gz
RH
73 70 59 38 39 36 27 12 6 6 4 3 3 2 2 2 1 1 2 2 3 3 3 3 5 7 10 13 13 15 17 16 14 12 14 70 100 100 100 100 100 91 81 100 100
63 68 58 45 41 40 30 18 7 6 4 4 3 2 2 2 1 1 1 2 3 3 3 4 4 6 11 16 14 15 17 21 17 14 14 33 99 100 100 100 100 100 95 90 100
58 70 70 57 44 46 38 26 10 6 4 4 4 2 2 2 1 1 1 2 2 3 4 5 5 8 10 12 15 15 17 21 16 13 11 15 51 100 100 100 100 100 100 97 98
66 64 70 60 53 54 46 28 15 8 6 3 4 3 2 1 1 1 1 1 2 4 4 4 6 8 11 16 17 19 17 16 18 15 15 15 15 57 97 93 100 100 84 100 100
66 73 76 63 57 52 50 38 23 8 9 5 4 3 2 1 1 1 1 2 3 5 5 5 7 8 12 18 18 14 16 16 15 19 19 15 14 16 28 85 100 100 92 72 93
63 73 74 71 61 54 48 47 24 11 11 9 5 4 2 1 1 2 2 2 2 4 6 5 6 8 10 13 16 16 20 17 14 17 17 16 14 14 16 27 55 92 98 80 83
64 74 74 75 59 57 47 48 31 15 12 13 6 4 2 2 1 2 2 2 2 4 6 5 6 8 10 12 16 16 19 15 14 16 15 16 13 13 15 16 23 52 68 79 68
72 76 77 78 66 55 56 51 44 16 12 15 8 5 3 2 2 2 2 2 2 3 6 6 6 7 10 13 16 17 19 17 17 14 15 15 16 15 15 18 18 19 25 29 47
82 78 83 83 64 51 59 53 66 22 18 17 11 5 4 2 2 2 2 2 2 3 7 7 7 7 9 13 15 16 16 17 16 14 14 13 17 16 12 16 19 18 17 17 20
92 80 82 85 70 56 60 54 64 46 24 20 16 8 6 3 2 3 3 3 2 3 4 7 6 7 8 11 13 15 16 17 16 15 17 16 19 15 13 17 18 20 19 18 18
99 82 83 86 70 59 58 60 51 69 33 26 15 10 6 4 3 3 4 4 4 4 4 7 8 8 10 11 11 12 14 16 17 16 18 18 20 15 15 16 16 19 21 21 19
96 88 85 86 69 65 59 56 43 72 52 34 20 13 11 7 6 4 5 5 5 5 6 10 8 8 8 10 12 14 14 16 19 20 18 18 20 16 15 16 16 20 21 22 22
96 93 88 91 72 65 60 47 46 71 57 37 19 13 13 16 12 9 6 9 7 8 10 11 9 9 9 11 12 13 13 14 16 18 18 17 19 18 16 16 15 19 21 21 22
95 96 94 94 77 67 58 54 58 70 63 41 24 15 13 16 21 28 23 12 10 10 9 14 14 10 10 11 12 12 13 14 15 15 18 17 21 19 18 16 15 16 18 18 18
100 95 95 92 79 74 61 57 64 72 68 49 36 17 12 16 19 28 32 32 24 10 13 10 11 11 12 13 12 12 13 14 13 13 13 15 17 22 20 19 18 17 16 17 16
100 95 100 91 79 72 68 57 57 68 64 51 45 26 15 16 16 18 24 32 37 28 10 14 12 12 11 11 12 13 12 13 12 11 12 14 15 21 25 22 19 17 17 16 17
100 94 100 94 77 73 66 64 77 71 70 51 51 41 26 24 23 22 18 23 25 28 28 12 14 12 12 11 11 11 13 14 14 12 15 12 12 25 27 25 21 18 18 17 17
100 98 100 98 77 74 74 68 75 65 75 52 51 56 37 32 29 23 26 25 23 22 24 22 10 12 15 13 12 11 11 11 12 12 12 12 14 20 28 22 22 19 18 19 18
100 99 100 99 79 82 78 73 82 64 75 53 49 53 56 34 25 30 31 24 27 27 21 18 16 9 11 13 11 11 12 12 11 12 13 14 13 17 22 20 20 21 20 19 20
100 100 100 99 82 86 80 73 80 64 78 54 51 45 58 56 32 25 33 25 24 20 18 18 14 12 10 11 14 14 13 13 13 14 14 14 14 16 18 18 17 22 21 19 22
100 100 98 96 86 86 80 78 80 62 82 52 46 48 59 58 36 27 36 28 23 18 16 12 17 10 10 12 14 16 15 15 14 15 15 16 17 18 20 18 17 19 20 21 23
100 100 100 94 86 88 81 74 79 62 84 56 45 48 59 57 52 29 38 28 27 22 20 8 15 12 9 10 11 14 18 16 17 18 19 19 20 22 23 20 17 18 18 17 19
100 100 96 94 88 84 80 78 79 68 84 63 48 44 52 55 54 28 36 36 28 20 18 9 10 11 7 9 10 16 20 21 20 17 19 20 24 24 22 22 18 16 16 17 17
100 100 94 97 96 87 81 90 73 80 85 64 48 40 46 52 55 36 26 36 24 19 15 9 6 9 6 8 10 11 12 18 20 21 23 23 24 26 26 21 19 16 16 23 21
89 98 100 94 94 85 91 91 81 84 86 60 44 40 39 47 53 40 22 23 19 16 13 8 5 6 6 6 9 9 10 12 18 27 25 25 26 26 22 20 17 18 20 20 24
93 100 100 100 94 87 100 93 84 84 87 58 45 44 42 48 53 49 30 20 17 14 12 6 4 5 5 6 7 10 8 11 14 22 25 24 26 21 21 21 18 19 19 20 22
98 91 100 100 91 96 97 100 76 90 77 56 42 40 39 44 49 46 39 19 14 14 12 6 4 5 5 6 6 9 11 13 16 17 18 23 29 19 22 21 22 20 19 20 19

GFSSW_250_rhum_090.txt.gz
RH
71 82 86 67 63 42 42 41 31 8 6 4 3 3 2 2 1 1 1 2 2 2 2 3 4 5 6 9 13 15 18 16 22 24 15 12 22 100 100 100 71 64 87 100 100
77 95 89 70 67 48 49 43 38 11 7 4 3 3 2 2 1 1 1 1 2 2 2 3 3 4 6 10 13 14 20 18 25 31 22 14 15 47 100 100 100 56 75 100 100
87 92 95 74 71 57 50 50 38 13 8 4 3 3 2 2 1 1 1 1 2 2 3 3 3 4 7 12 14 12 22 24 23 20 21 16 16 17 66 100 100 76 79 100 100
90 92 93 78 78 65 53 54 42 21 9 6 3 4 3 2 2 1 1 1 2 2 2 4 4 6 8 10 14 13 24 26 17 16 21 22 17 18 39 70 100 100 80 97 100
98 100 88 84 85 73 62 54 47 27 11 9 4 3 4 2 2 1 1 2 2 2 2 4 3 5 9 12 18 17 24 24 19 18 19 22 20 18 14 30 98 100 100 82 100
100 100 89 90 90 73 67 52 47 35 15 13 7 4 5 3 2 1 1 2 2 2 2 3 4 4 7 10 14 20 24 26 21 18 20 22 28 19 14 20 80 100 100 100 100
94 100 97 92 93 74 72 54 50 48 20 15 12 7 4 4 2 1 1 2 2 2 3 4 6 6 8 9 11 20 24 27 24 19 19 22 22 28 16 16 26 100 100 100 100
100 100 100 93 96 75 72 54 50 54 28 16 17 12 5 4 2 2 2 2 2 2 2 6 8 8 12 17 17 16 19 26 27 21 18 19 17 28 20 16 20 52 100 100 100
100 100 100 94 96 79 74 56 50 54 48 18 21 18 8 5 4 2 2 2 2 2 3 5 8 8 10 16 27 20 18 18 23 22 18 17 15 27 22 18 17 21 60 100 100
100 100 100 94 97 85 76 57 49 47 65 28 22 18 13 8 6 3 3 2 3 3 3 4 8 8 9 14 12 16 17 19 23 18 15 14 14 19 17 18 18 17 18 58 100
100 100 100 92 99 87 76 58 46 55 59 49 24 19 18 13 9 6 3 3 3 5 5 4 7 10 8 11 14 11 13 15 16 17 16 14 14 14 13 16 18 16 17 20 51
100 100 100 100 95 87 74 62 47 53 69 58 33 21 17 15 15 13 8 4 5 6 10 8 10 10 8 8 11 12 16 16 16 19 18 17 15 18 15 17 19 22 19 17 18
100 100 100 100 98 90 70 64 51 56 70 61 50 27 24 17 15 17 21 16 8 7 8 13 14 13 11 10 11 12 14 12 13 14 13 14 15 17 18 19 19 20 21 20 18
100 100 100 100 98 90 69 65 53 55 61 58 56 44 30 22 17 16 18 27 30 14 11 11 14 13 12 11 10 11 12 13 16 15 19 13 16 18 19 18 20 19 20 22 20
100 100 100 100 100 92 74 67 53 54 58 57 57 50 39 26 21 18 16 20 29 30 15 12 14 14 13 11 11 11 11 13 15 16 13 12 12 18 20 18 20 20 16 18 20
100 100 100 100 100 94 75 69 61 60 56 57 57 54 43 31 27 24 18 17 20 23 26 18 12 14 14 14 13 12 13 14 17 16 14 15 15 20 18 21 18 18 19 18 19
100 100 100 100 100 95 75 68 63 66 58 52 54 47 48 37 31 29 21 26 21 22 22 23 17 10 14 14 12 12 12 12 13 13 16 14 14 20 18 22 21 21 21 21 22
100 100 100 100 100 93 76 69 66 67 62 63 57 51 47 47 38 39 35 30 24 20 20 19 19 16 8 14 14 13 11 11 12 12 15 12 13 15 19 20 22 20 21 23 24
100 100 100 100 100 86 73 73 72 71 68 68 69 52 45 44 35 36 41 37 32 20 17 20 15 18 13 8 14 13 13 11 11 12 12 14 14 14 17 16 20 22 22 24 25
100 100 100 100 100 89 72 80 76 75 75 66 70 56 47 42 40 34 33 40 34 21 17 18 18 10 18 12 9 12 14 12 11 12 13 14 15 15 14 13 13 15 19 21 26
100 100 100 100 99 87 71 84 78 76 78 69 69 62 45 40 44 34 30 36 34 23 16 15 15 9 12 19 10 9 12 16 15 12 12 13 13 12 13 13 13 13 14 18 22
100 100 100 100 100 89 79 82 82 85 77 71 67 58 43 38 44 41 38 36 34 28 17 15 13 11 6 14 11 8 8 11 14 16 13 13 14 14 15 15 15 14 13 14 15
100 100 100 100 100 90 78 89 88 85 82 71 68 57 46 39 41 43 40 40 33 32 16 13 12 8 5 8 13 11 10 11 13 16 20 15 15 15 16 14 13 15 14 14 14
100 100 100 100 100 90 83 94 91 80 82 68 61 56 44 39 43 45 47 40 34 27 20 13 10 10 5 5 8 11 10 9 9 12 21 22 19 15 16 15 15 15 15 16 18
100 100 100 100 100 91 91 96 91 81 79 75 60 57 45 36 43 46 50 45 34 22 18 12 11 8 5 5 5 6 8 9 9 13 16 23 23 20 19 17 16 16 16 18 20
100 100 100 100 100 94 94 87 86 74 79 77 71 58 43 38 38 44 51 49 43 22 16 10 10 8 5 5 5 5 6 8 11 10 15 22 26 24 21 20 18 17 18 19 19
100 100 100 99 100 95 88 88 84 77 75 81 69 56 48 37 38 44 45 45 40 22 14 9 8 8 6 5 5 5 6 8 12 11 13 19 24 18 22 23 22 20 18 20 21

GFSSW_250_rhum_096.txt.gz
RH
48 52 59 80 78 77 82 86 62 55 37 26 9 3 4 4 2 1 1 1 1 1 1 2 2 4 5 6 7 6 6 9 15 22 25 28 56 40 100 100 100 100 100 100 100
51 53 60 82 80 87 87 92 66 55 40 31 12 4 4 4 3 2 1 1 1 1 1 2 2 4 5 4 6 8 7 11 16 16 26 29 57 44 89 100 100 100 100 100 99
59 57 69 84 79 83 87 98 72 57 47 38 14 6 4 6 2 2 1 1 1 1 1 2 3 5 6 8 9 12 7 12 17 17 27 32 37 40 61 100 100 100 100 100 94
67 60 68 82 82 92 93 98 73 66 52 44 25 8 6 9 3 2 1 1 1 1 2 3 4 6 6 7 7 17 15 12 16 19 24 31 30 23 34 94 100 100 100 98 100
70 65 70 79 94 94 100 97 72 69 60 48 38 16 9 9 5 3 2 1 1 2 2 3 4 5 6 9 10 17 9 12 16 25 26 31 35 31 32 71 99 100 100 100 100
76 66 74 87 97 95 100 94 73 73 70 49 45 20 11 11 5 4 2 1 1 2 2 3 5 6 8 11 11 19 20 15 18 25 30 30 40 35 31 57 90 100 100 100 95
79 70 77 93 99 100 100 94 72 75 70 54 50 26 12 10 6 5 3 2 2 2 3 3 5 6 9 10 9 17 25 24 23 27 29 34 36 38 38 36 66 70 100 100 100
90 82 82 93 100 100 100 90 71 73 69 57 48 34 17 14 11 7 5 2 2 2 2 4 4 7 7 9 12 12 19 19 20 25 29 29 36 38 44 38 43 61 61 97 100
95 85 83 95 100 100 100 88 73 74 70 52 52 37 25 18 13 9 9 5 2 2 2 3 6 8 8 9 10 10 18 21 19 31 42 26 34 38 38 46 46 44 45 65 100
93 87 86 100 100 100 100 92 81 80 69 55 56 47 36 23 17 16 10 8 4 3 3 3 6 12 10 8 9 10 15 22 20 31 31 21 25 27 34 42 51 51 42 36 44
100 95 99 100 100 100 100 90 81 86 67 60 60 56 47 27 18 22 14 9 10 4 4 3 4 16 18 13 9 9 8 15 20 20 24 24 21 25 25 33 44 55 54 43 36
100 94 100 100 100 100 100 76 84 82 63 60 60 61 45 32 24 21 18 12 11 15 6 5 4 5 13 16 16 12 10 11 15 14 21 19 22 20 22 24 34 43 48 50 48
100 100 100 100 100 100 98 80 89 86 60 62 60 64 46 41 29 27 22 14 13 13 18 9 8 6 8 12 15 17 14 12 14 16 12 18 20 14 22 22 20 38 43 45 50
100 100 100 100 100 100 80 86 89 77 68 65 57 65 55 42 33 29 27 20 14 16 12 20 16 10 9 11 12 13 13 13 12 12 14 13 20 19 13 21 15 23 37 40 45
100 100 100 100 100 100 80 86 89 66 72 65 57 67 56 40 39 36 32 27 20 21 18 14 19 23 11 12 10 13 11 10 13 12 13 14 16 16 13 17 20 18 28 38 37
100 100 100 100 100 99 83 87 87 67 79 67 58 67 56 42 40 42 34 29 23 21 21 18 15 21 25 13 14 11 11 12 10 11 9 15 15 17 18 17 16 17 17 27 34
100 100 100 100 100 100 84 89 87 78 77 71 58 65 58 46 42 46 41 31 26 22 19 19 14 15 22 25 14 13 12 12 12 10 10 11 12 19 21 23 21 21 20 21 29
100 100 100 100 100 94 84 88 79 88 82 76 62 60 58 47 46 47 42 34 34 27 22 19 12 10 14 20 23 15 11 12 10 9 10 13 12 18 16 18 22 26 26 25 28
100 100 100 100 100 82 92 92 73 92 86 75 63 67 60 54 52 42 41 34 37 30 24 22 15 9 9 14 16 23 17 15 15 11 9 9 12 22 23 16 20 24 30 32 32
100 100 100 100 90 81 100 88 71 96 95 73 57 66 61 56 48 40 37 38 39 31 20 18 14 9 8 9 12 15 18 16 13 14 12 8 9 12 18 16 16 22 25 26 30
100 100 100 94 82 93 99 79 77 99 98 75 60 64 70 49 44 39 37 38 38 36 22 16 14 9 6 7 8 10 12 15 16 13 14 13 11 12 12 14 14 14 18 21 26
100 100 100 93 77 90 96 70 89 98 95 78 66 62 62 53 39 40 38 36 37 38 27 15 12 9 5 5 7 6 8 10 13 15 13 14 15 14 13 11 11 11 10 14 19
100 100 100 78 87 98 87 76 91 97 88 80 69 64 57 50 47 40 38 35 40 39 32 18 14 10 5 5 6 6 6 5 9 18 17 15 17 16 15 12 11 10 10 10 12
100 100 99 77 91 100 87 79 91 94 86 83 71 68 58 46 47 41 37 38 41 36 40 27 16 16 8 4 4 5 5 5 5 9 19 18 20 19 17 16 14 13 11 11 12
100 100 87 76 89 100 86 86 85 92 88 80 71 70 66 55 45 45 42 39 39 42 43 34 19 20 8 4 4 6 5 5 5 6 14 24 20 16 18 20 17 16 15 13 13
100 98 80 70 96 100 93 85 92 97 88 79 73 74 66 53 45 42 40 42 41 42 47 40 23 17 11 4 4 5 5 5 5 6 9 21 26 18 15 17 19 18 16 17 16
99 92 86 81 100 99 93 85 93 90 96 82 71 74 63 54 40 40 38 38 41 44 47 38 29 15 14 7 4 5 6 5 5 6 6 14 30 18 14 13 15 16 18 18 18

GFSSW_250_rhum_099.txt.gz
RH
32 38 52 68 59 63 63 62 56 72 66 52 36 12 5 4 4 2 1 1 1 1 1 1 1 1 2 3 4 6 8 6 7 7 20 25 31 26 86 100 100 100 100 94 100
44 43 51 70 68 63 63 65 60 73 77 61 38 19 7 4 5 2 2 1 1 1 1 1 1 2 3 3 4 7 10 8 8 7 18 29 34 27 72 100 100 100 100 100 89
47 44 54 65 78 74 67 71 70 74 79 70 49 26 9 5 6 3 2 2 1 1 1 1 2 2 3 4 7 12 13 9 9 8 18 32 34 33 50 100 100 100 100 100 100
48 57 50 76 83 82 73 79 80 80 82 82 65 38 13 7 9 8 3 2 1 1 1 1 2 3 4 6 7 10 18 14 12 11 15 29 38 37 33 97 100 100 100 100 94
67 65 64 87 88 91 74 88 90 86 87 84 68 45 17 9 12 9 3 2 1 1 1 2 3 4 4 8 12 11 21 16 12 11 16 23 39 45 35 57 100 100 100 100 81
71 89 88 92 97 98 80 92 97 95 94 82 67 46 23 13 13 8 3 3 1 2 2 2 4 5 6 8 10 13 23 24 18 16 17 20 32 44 44 38 84 99 100 96 100
66 100 100 100 96 99 94 93 99 100 96 83 77 45 30 14 10 8 5 5 2 2 2 2 4 6 8 10 12 31 35 38 13 21 16 20 25 47 55 47 47 95 100 100 74
31 100 100 100 100 98 100 97 99 100 96 84 71 49 33 15 13 12 6 6 4 2 2 3 6 7 9 12 13 18 31 54 26 29 20 25 25 32 59 57 42 58 100 96 97
24 90 100 100 100 100 100 100 100 100 96 84 73 53 45 29 14 14 11 8 8 3 3 3 6 7 8 9 12 14 20 23 13 20 33 19 27 28 48 64 54 41 56 100 100
24 53 100 100 100 100 100 100 100 100 96 86 72 62 50 40 21 17 16 10 8 6 4 4 4 8 7 6 9 20 27 30 15 17 25 20 27 32 32 59 64 56 41 82 100
24 70 100 100 100 100 100 100 100 100 94 79 67 68 59 50 30 19 18 16 11 11 7 5 4 4 10 10 9 12 17 20 14 12 20 21 26 32 28 39 65 64 52 41 97
20 68 100 100 100 100 100 100 100 100 95 74 67 69 58 53 37 20 19 19 18 15 17 14 8 6 6 10 12 12 14 22 20 15 16 23 21 47 51 44 44 75 63 50 43
25 82 100 100 100 100 100 100 100 100 96 72 66 73 61 55 41 30 20 19 19 17 17 18 21 10 9 5 7 15 18 23 22 18 16 18 20 33 22 29 35 53 68 61 46
39 98 99 100 100 100 100 100 100 100 96 70 75 73 62 57 42 34 20 20 18 18 19 23 20 22 11 14 8 7 14 20 21 22 19 17 22 17 18 24 28 39 54 66 58
66 98 100 100 100 100 100 100 100 100 95 63 81 70 64 63 46 33 27 20 20 20 19 22 23 18 22 14 13 12 8 7 16 16 19 18 19 19 16 21 25 34 38 44 54
66 94 100 100 100 100 100 100 100 99 82 66 82 72 65 65 46 38 37 29 25 22 18 18 19 20 16 20 18 13 14 11 9 14 15 20 21 22 19 22 18 26 27 31 41
57 99 100 100 100 100 100 100 100 98 66 69 85 75 66 70 50 40 41 37 32 26 19 18 18 16 12 14 20 22 12 13 10 9 9 14 12 20 18 17 15 21 28 29 30
58 97 100 100 100 100 100 100 100 93 57 72 89 76 67 69 44 41 39 40 30 25 22 17 17 14 13 10 12 17 19 11 11 11 10 11 8 12 13 15 19 18 21 29 34
73 100 100 100 100 100 100 100 100 74 60 73 93 71 68 62 41 41 43 39 33 26 22 16 16 12 10 8 10 12 16 21 15 12 11 10 10 12 13 12 16 17 26 31 26
86 100 100 100 100 100 100 100 99 66 64 78 97 72 69 59 45 44 46 42 35 29 26 18 15 14 8 6 7 10 10 12 16 14 10 12 11 11 12 11 11 13 19 26 32
95 100 100 100 100 100 100 100 89 66 67 83 91 69 72 53 48 44 44 42 38 34 29 23 14 15 10 5 5 6 8 10 11 15 15 12 13 13 14 13 12 13 15 21 24
95 100 100 100 100 100 100 100 83 72 76 91 86 71 71 49 45 49 41 41 40 33 37 27 15 15 14 6 4 4 6 7 9 10 15 13 12 14 15 18 14 11 14 15 21
100 100 100 100 100 100 100 98 83 72 93 92 81 75 76 53 41 44 43 40 44 36 40 29 20 15 16 9 4 4 5 5 7 8 13 16 17 13 15 18 15 14 12 15 16
89 97 100 100 100 100 97 91 82 77 97 96 82 76 73 62 44 44 49 39 40 41 38 34 28 18 18 13 5 3 4 5 5 6 12 18 18 15 12 14 15 13 12 13 18
100 100 100 100 100 100 94 95 78 86 93 100 87 76 73 62 50 41 47 37 38 41 39 39 37 26 16 18 9 4 4 5 5 6 6 12 14 13 12 10 10 12 12 11 12
100 100 100 100 100 100 94 91 83 93 93 100 90 76 75 56 43 42 45 39 41 38 41 40 42 34 15 15 11 5 4 4 5 5 6 7 8 12 14 14 13 13 15 15 13
100 100 100 100 100 98 94 90 86 87 98 98 91 75 80 61 52 47 44 38 39 38 38 40 46 35 16 9 10 9 5 4 4 5 6 7 7 7 9 21 22 19 14 15 17

GFSSW_250_rhum_102.txt.gz
RH
94 100 100 77 61 68 62 75 73 58 62 50 47 42 39 11 4 4 2 1 1 1 1 1 1 1 1 1 2 2 2 3 3 4 6 6 5 9 18 65 100 99 100 100 83
64 81 89 75 52 54 68 74 88 68 76 58 53 55 44 16 5 6 3 2 1 1 1 1 1 1 1 1 2 2 2 3 4 5 5 6 8 11 18 84 100 100 71 100 100
41 37 42 46 52 47 55 70 93 82 82 58 57 71 48 23 7 9 5 3 2 1 1 1 1 1 1 1 2 2 2 6 6 5 7 9 12 10 24 87 100 100 88 82 86
25 39 35 32 44 42 62 65 84 99 93 62 73 79 58 27 12 12 7 4 2 2 1 1 1 1 1 2 2 3 5 5 6 5 10 8 13 12 33 52 100 100 100 100 98
25 24 29 32 36 40 68 72 91 100 100 74 85 80 58 32 10 12 9 4 2 2 1 1 1 2 2 2 3 4 5 8 10 10 13 16 14 13 38 51 95 100 100 100 100
17 20 26 23 30 34 78 70 98 100 100 82 99 82 58 36 18 17 10 5 2 3 2 2 2 2 3 3 3 4 7 18 26 21 22 20 22 21 26 54 65 100 100 100 100
20 20 23 21 20 33 64 83 100 100 100 83 100 86 65 50 27 18 15 6 3 3 2 2 3 5 5 5 5 6 9 23 22 15 12 19 35 28 21 50 68 100 100 100 100
21 22 22 20 19 39 79 94 100 100 100 95 100 85 65 62 29 20 18 7 4 4 3 3 4 5 7 7 7 9 16 24 45 20 15 22 29 25 20 40 61 70 99 100 100
22 20 18 18 20 38 93 100 100 100 100 100 100 85 74 56 34 27 20 12 4 4 6 4 4 5 8 10 12 12 33 45 59 35 29 20 31 44 27 30 52 68 90 100 100
20 23 19 19 20 76 100 100 100 100 100 100 100 90 80 56 48 34 23 18 13 9 7 9 6 6 7 10 15 16 20 20 26 23 18 26 26 36 28 29 49 69 87 96 100
25 23 23 20 23 100 100 100 100 100 100 100 98 80 85 62 55 39 25 20 23 21 18 14 15 10 10 11 11 23 25 25 32 19 12 22 34 40 31 32 42 71 98 100 100
27 22 23 21 32 90 100 100 100 100 100 100 99 84 78 68 61 49 25 20 24 24 22 21 20 18 19 11 12 20 23 28 26 21 24 11 22 43 32 34 33 54 82 100 100
24 21 21 20 50 98 100 100 100 100 100 100 98 91 72 72 67 56 31 23 22 22 25 26 28 20 17 23 15 16 18 19 27 24 30 14 12 20 37 34 33 38 62 88 100
20 22 21 26 66 100 100 100 100 100 100 100 96 95 66 73 75 60 34 26 20 20 24 30 32 29 21 14 23 13 18 17 20 23 26 26 19 28 32 34 35 39 38 66 99
19 18 17 21 58 100 100 100 100 100 100 100 97 85 65 72 76 57 37 27 22 18 19 24 30 34 29 22 13 24 14 14 13 16 17 22 29 25 25 27 40 58 43 39 54
18 17 16 28 51 100 100 100 100 100 99 100 100 71 69 73 72 52 37 27 23 21 19 22 27 30 30 25 16 14 23 14 13 13 11 16 29 30 23 47 31 27 44 51 48
20 13 13 27 64 100 100 100 100 100 100 100 100 64 74 75 67 48 37 30 24 22 21 20 23 24 26 24 14 12 10 22 14 12 14 16 11 43 36 38 35 30 35 53 54
20 11 15 32 74 100 100 100 100 99 100 100 92 69 75 76 63 48 38 31 27 26 23 20 19 22 18 19 15 9 10 11 22 14 16 16 13 41 25 41 43 39 32 34 34
18 10 17 38 75 99 100 100 100 98 100 100 75 75 75 78 59 44 38 35 30 28 25 22 16 19 16 14 13 8 6 8 12 24 13 13 13 18 17 23 46 49 40 35 40
15 11 19 53 76 100 100 100 95 100 100 99 80 82 80 81 54 46 43 39 35 30 28 22 15 16 15 11 10 7 5 6 7 10 19 13 12 16 17 14 18 28 30 30 36
13 17 29 64 83 100 100 100 90 100 100 90 91 90 82 82 48 46 50 42 35 32 31 24 18 14 15 12 8 6 4 5 6 7 10 18 14 17 18 14 13 13 19 21 23
15 25 50 92 94 100 100 100 100 100 100 87 100 92 79 78 48 47 50 42 35 33 32 25 25 13 16 15 10 6 4 4 5 6 8 10 17 15 17 16 13 14 18 14 14
18 33 74 90 100 100 100 100 100 100 94 93 100 94 81 76 65 43 47 46 37 36 36 30 25 18 13 16 14 8 4 3 5 5 6 9 18 20 15 15 16 13 13 12 14
17 46 83 85 100 100 100 99 100 100 99 99 100 94 80 78 69 43 44 46 38 39 40 33 27 22 14 15 15 11 6 3 4 4 5 8 12 19 20 13 14 16 14 15 15
17 82 82 100 100 100 100 99 100 99 99 100 100 98 81 78 59 50 44 45 43 42 40 34 34 25 17 14 14 13 8 5 3 4 5 5 8 11 15 18 14 17 16 14 16
61 68 92 100 90 89 99 100 100 99 100 100 97 94 81 75 60 53 47 48 43 40 40 37 36 32 24 12 15 13 11 9 5 3 5 5 5 5 7 12 18 18 15 15 17
68 83 99 97 78 89 100 100 92 100 100 100 97 90 81 78 68 55 49 49 44 42 42 38 38 37 33 17 12 10 11 10 9 6 3 4 5 5 5 9 13 18 19 20 19

GFSSW_250_rhum_105.txt.gz
RH
36 33 41 42 39 32 33 32 31 38 44 36 37 45 50 43 15 7 5 6 2 2 1 1 1 1 1 1 1 1 1 2 1 1 3 3 4 6 6 6 7 12 94 84 100
28 25 26 18 34 36 43 39 46 58 75 47 36 40 55 43 20 9 7 7 3 2 1 1 1 1 1 1 1 1 2 2 2 2 4 4 4 5 4 6 7 11 59 89 89
25 24 20 19 19 18 19 24 56 52 48 63 44 52 58 44 25 8 7 7 4 2 1 1 1 1 1 1 1 1 2 2 3 3 4 3 4 4 5 7 8 18 69 100 94
19 22 18 22 18 14 12 12 18 34 45 48 47 59 62 52 32 7 8 7 4 3 2 1 1 1 1 1 1 1 2 2 2 3 4 4 4 5 6 10 12 26 95 99 80
20 22 15 22 20 17 14 15 22 38 43 48 62 68 72 63 36 12 9 8 5 3 2 2 1 1 1 1 1 2 2 2 3 3 3 5 4 6 10 13 16 19 57 97 55
26 20 16 20 22 20 17 22 37 35 49 58 91 85 89 68 34 16 9 10 8 5 2 2 1 1 2 2 2 2 2 4 4 4 4 6 6 7 13 16 30 85 84 87 75
24 20 18 20 22 23 19 26 28 29 63 80 100 99 93 69 44 18 13 12 9 5 2 2 1 2 4 4 3 2 4 4 6 6 7 7 7 9 17 27 49 81 100 88 70
29 24 19 19 21 24 22 26 24 38 78 100 100 100 94 62 60 26 14 12 7 4 3 3 2 3 4 8 7 4 4 5 7 12 8 9 12 22 25 36 94 100 100 100 87
27 29 17 20 20 23 24 23 26 48 100 100 100 100 90 71 68 32 18 13 8 3 4 5 5 3 6 7 12 10 6 6 6 11 11 7 13 22 30 46 100 100 100 100 100
21 26 17 16 19 23 27 28 26 67 100 100 100 100 82 78 69 34 28 20 14 7 8 7 6 8 6 7 11 17 14 10 8 7 8 8 14 22 37 51 100 100 100 100 100
18 23 16 15 17 24 27 25 30 100 100 100 100 100 86 73 76 45 34 26 17 14 16 15 14 14 12 9 8 13 29 19 15 14 9 9 28 30 60 49 100 100 100 100 100
15 22 15 13 18 19 27 20 62 100 100 100 100 100 90 79 73 57 39 32 21 18 19 23 25 21 20 17 16 10 14 23 32 25 19 14 17 24 52 61 97 100 100 100 100
11 17 13 12 16 20 17 26 94 100 100 100 100 100 96 90 68 64 46 35 24 20 18 22 24 29 28 24 21 22 11 15 22 27 28 21 25 38 44 80 51 100 100 100 100
10 10 16 13 13 16 18 40 100 100 100 100 100 100 100 92 81 66 53 36 23 20 20 22 27 29 33 35 25 18 23 22 20 30 28 35 28 52 52 64 77 48 100 100 98
10 14 17 13 14 15 22 40 100 100 100 100 100 100 100 89 85 72 55 34 25 24 22 21 22 28 30 28 27 20 16 17 20 18 21 22 26 32 56 53 97 74 62 100 100
9 16 21 14 12 13 17 46 100 100 100 100 100 100 100 90 87 76 52 34 24 22 20 20 23 24 26 23 23 21 15 13 18 17 16 17 21 26 42 58 66 99 64 66 97
8 12 18 16 15 16 24 49 100 99 100 100 100 100 100 97 87 71 47 33 28 24 20 18 17 18 19 20 20 20 16 11 11 18 22 17 29 38 24 48 38 57 100 94 77
9 14 17 18 18 17 34 75 100 93 100 100 100 100 100 100 86 67 45 34 31 28 25 23 17 18 18 16 16 16 13 10 8 12 26 16 30 38 32 32 69 72 63 90 96
8 11 14 20 22 19 50 80 100 82 100 100 100 100 100 98 88 57 43 36 32 29 26 25 19 18 18 15 11 11 11 8 6 8 14 21 20 26 31 32 29 48 61 73 80
7 12 14 22 23 25 68 86 100 91 100 100 100 100 100 92 86 48 45 39 34 32 27 24 17 14 18 15 11 9 9 6 5 5 8 16 31 37 19 20 26 28 44 59 65
6 13 17 23 28 46 83 100 87 93 100 100 100 100 100 85 81 47 46 40 37 37 29 24 18 14 15 15 13 10 8 6 4 4 5 9 21 31 23 20 36 27 40 46 76
6 11 16 29 52 72 81 100 81 99 100 100 100 100 98 83 81 62 46 43 42 40 31 27 22 14 14 15 13 11 8 6 3 4 5 7 11 18 17 18 18 32 31 31 40
6 11 17 28 58 74 69 94 97 95 100 100 98 100 96 89 84 54 45 44 44 45 35 30 26 21 13 15 15 12 10 7 4 3 5 6 10 10 13 13 13 14 19 30 22
11 18 23 37 68 61 76 91 99 95 100 100 98 98 98 90 84 54 45 47 45 46 38 35 34 25 15 15 16 13 9 8 6 3 4 5 6 7 11 16 13 11 13 21 22
21 25 33 61 59 68 83 98 98 100 100 100 95 100 97 86 79 58 48 49 46 45 42 40 41 31 23 15 15 12 11 9 7 6 4 3 5 6 7 10 15 16 12 14 22
26 30 37 60 61 75 93 94 87 100 100 100 94 100 95 87 84 59 51 48 46 45 44 45 45 35 28 20 13 11 11 10 8 6 6 4 3 4 5 9 12 18 20 16 16
33 43 57 58 72 85 90 91 94 100 100 99 99 100 96 93 87 66 54 52 49 49 49 46 45 39 33 23 12 8 13 10 10 8 6 7 5 3 5 6 9 12 19 27 24

GFSSW_250_rhum_108.txt.gz
RH
27 27 23 19 12 10 10 10 18 16 16 25 62 51 46 47 51 22 7 5 6 7 7 3 2 2 1 1 1 1 1 1 1 1 1 2 3 2 3 4 5 9 9 11 13
42 30 20 18 14 10 10 10 9 9 11 16 24 28 45 48 58 15 6 5 6 10 5 2 2 1 1 1 1 1 1 1 1 1 1 2 2 2 3 3 4 8 12 11 13
62 42 27 21 16 13 12 11 11 9 11 16 16 17 27 32 21 10 5 6 8 9 4 3 2 1 1 1 1 1 1 1 1 1 1 2 2 2 2 3 5 11 15 12 10
53 45 31 21 19 12 12 11 12 11 14 14 13 22 35 32 34 10 6 7 12 7 4 2 1 1 1 1 1 1 1 1 1 1 1 2 3 3 3 4 5 14 17 13 12
42 33 26 23 20 16 15 14 13 15 18 14 18 34 54 65 39 11 8 11 11 7 3 2 2 2 1 1 1 1 1 1 1 1 2 2 3 3 3 4 8 13 14 10 11
40 31 25 20 20 21 18 13 16 23 14 20 23 72 88 78 46 14 13 12 11 7 5 4 2 1 1 1 1 1 1 1 1 2 2 3 4 3 5 6 9 12 12 10 59
22 25 20 18 23 21 18 16 19 20 17 24 45 83 100 90 48 17 16 12 10 8 7 3 2 2 1 1 2 2 2 2 2 2 2 3 4 5 6 7 10 13 11 18 90
20 17 15 17 19 23 20 17 18 23 23 28 54 92 100 100 48 28 18 13 9 6 5 3 2 2 2 2 2 3 3 3 3 2 2 3 4 5 8 8 12 13 13 39 79
14 12 13 13 19 20 23 19 19 24 28 41 86 100 100 99 50 33 15 14 9 6 4 3 3 3 2 4 4 7 6 4 3 3 3 5 4 6 10 9 11 18 19 61 100
7 8 9 10 15 29 22 18 22 29 34 40 100 100 100 99 62 32 16 15 14 7 6 4 4 5 5 4 6 7 9 9 7 5 4 6 13 13 12 10 20 27 42 78 100
5 6 7 8 12 25 24 17 16 26 28 76 100 100 100 100 86 35 20 21 16 13 10 11 10 9 10 9 6 8 10 15 12 9 7 7 12 13 18 17 31 50 44 86 100
4 5 6 6 9 17 21 20 20 44 52 86 100 100 100 100 90 53 32 25 18 16 16 14 13 15 13 15 13 9 7 15 22 21 18 9 9 15 27 41 32 36 55 100 100
4 4 5 6 8 12 22 19 28 38 76 100 100 100 100 100 87 54 43 30 20 17 15 16 20 16 15 15 17 16 13 7 11 18 17 19 18 17 39 49 42 49 60 100 100
3 4 5 6 10 12 22 21 26 55 89 94 100 100 100 100 93 63 56 35 23 18 14 15 19 21 22 21 17 16 16 12 8 9 14 23 23 34 46 77 73 65 62 100 100
2 4 5 8 10 14 19 24 38 73 95 98 100 100 100 100 90 72 60 36 27 21 18 17 17 21 23 24 22 20 19 17 12 9 8 20 30 56 72 95 100 100 100 100 99
2 4 5 9 12 15 21 25 38 81 90 98 100 100 100 100 90 71 56 36 30 24 20 18 20 20 20 21 20 19 18 17 15 11 8 12 24 48 65 93 100 100 100 100 100
2 4 5 12 13 21 18 26 52 85 77 100 100 100 100 96 87 73 50 34 30 25 20 18 18 20 18 17 18 17 14 15 13 14 12 8 18 42 77 83 100 100 86 90 100
2 3 5 13 15 22 17 42 61 88 65 100 100 100 100 99 86 71 44 37 31 26 24 19 18 17 16 14 14 13 12 11 11 12 9 9 10 26 55 76 98 100 100 100 100
2 3 5 16 24 26 24 61 66 72 75 100 100 100 99 99 87 57 44 40 34 29 25 20 17 16 16 14 11 9 9 10 9 8 8 6 12 13 32 56 72 100 100 100 100
2 4 7 24 24 26 32 72 76 62 90 100 100 100 96 100 85 53 45 43 40 34 28 21 19 15 15 15 11 7 6 8 7 6 6 6 10 9 13 46 53 79 100 100 100
3 5 8 16 30 26 52 78 89 68 96 100 100 96 100 100 84 56 48 46 44 38 33 25 19 16 13 15 12 10 7 6 7 4 4 5 6 9 7 16 41 42 72 100 100
5 6 14 24 30 38 58 76 80 76 99 100 100 99 100 95 85 60 48 46 43 38 35 28 22 17 14 14 14 12 9 6 6 5 3 4 5 6 8 6 18 32 40 72 100
6 10 17 28 29 50 69 74 79 78 90 100 96 100 100 92 85 53 50 46 42 37 37 31 28 20 16 14 15 15 9 6 5 6 4 4 4 5 6 9 6 21 32 47 82
10 13 19 26 39 60 71 76 93 78 98 100 98 100 100 91 78 58 50 48 42 40 42 35 31 26 18 14 15 15 11 8 5 5 6 4 4 5 5 6 11 7 16 33 56
15 15 20 26 47 62 66 94 96 82 98 97 100 100 93 89 72 59 51 50 45 46 45 40 33 32 25 19 16 16 14 11 9 5 5 6 4 5 6 6 7 11 8 9 26
16 16 19 26 60 68 71 91 93 85 96 98 92 99 92 92 69 61 52 50 48 48 45 38 36 35 32 26 16 13 12 13 8 7 6 4 6 5 5 6 8 8 10 10 8
17 14 19 34 57 67 87 92 98 84 100 88 94 95 93 92 81 68 54 51 50 46 44 39 37 36 34 29 18 11 12 12 14 11 9 6 4 5 6 4 5 6 9 12 15

GFSSW_250_rhum_111.txt.gz
RH
70 65 57 48 44 22 17 15 10 9 9 7 6 7 9 16 23 22 23 16 7 5 4 5 4 5 5 3 2 2 2 2 2 2 2 2 2 2 4 3 2 4 4 6 9
83 73 57 48 45 32 19 13 11 10 11 8 6 8 10 15 15 13 13 8 7 5 5 5 5 4 2 2 2 2 2 2 1 1 1 1 1 2 2 2 3 3 6 6 12
92 85 64 43 43 30 22 15 12 12 12 9 8 10 13 15 13 15 12 6 5 5 5 6 5 3 2 2 2 1 1 1 1 1 1 1 1 2 2 2 2 5 6 8 16
91 69 54 39 33 30 20 16 13 14 12 12 10 14 16 16 18 15 9 5 6 8 8 5 4 2 2 2 1 1 1 1 1 1 1 1 1 1 2 3 6 10 8 11 16
86 52 36 25 25 26 19 17 14 15 15 14 13 16 19 24 26 21 8 10 13 17 7 4 3 2 1 1 1 1 1 1 1 1 1 1 1 2 3 5 6 10 11 6 11
69 41 29 18 21 22 18 16 16 17 18 16 17 22 26 45 41 29 16 16 22 11 10 5 3 2 1 1 1 1 1 1 1 1 1 1 1 2 4 6 4 2 4 6 14
47 37 26 16 15 16 16 16 17 18 20 17 19 34 61 43 66 30 20 30 16 12 10 6 4 2 1 1 1 1 1 1 1 1 1 1 2 2 4 6 3 2 5 10 15
32 26 19 14 10 13 14 16 18 18 17 21 33 75 99 72 68 34 36 24 18 12 8 6 3 2 2 2 2 2 2 2 2 1 1 1 1 2 4 6 5 3 8 11 14
19 14 13 11 7 9 13 15 19 18 20 29 58 100 91 76 65 38 37 24 16 9 6 4 4 2 2 2 3 2 2 2 2 2 2 2 2 2 3 5 6 7 8 9 17
11 9 7 6 6 7 11 12 24 19 26 46 82 100 94 93 61 51 32 27 14 8 6 4 3 3 3 2 2 4 3 4 4 3 2 2 2 3 4 7 8 10 10 11 19
7 6 4 4 4 6 8 11 30 32 30 58 84 100 100 89 68 49 30 26 15 11 8 6 5 5 6 5 4 5 6 5 5 7 6 4 5 4 5 9 11 12 14 13 15
5 4 3 4 4 6 8 11 26 28 49 74 92 98 93 85 77 46 35 22 17 14 11 8 7 8 9 9 9 8 6 9 5 6 12 9 8 6 6 7 14 16 16 14 14
3 3 3 3 4 6 9 16 26 33 61 100 96 100 83 96 74 44 41 26 19 16 12 11 11 10 11 12 12 12 11 7 10 9 10 15 14 15 11 10 14 18 18 17 16
2 2 3 3 4 6 9 13 33 42 78 100 99 99 87 100 68 40 39 24 19 16 14 13 14 16 15 11 13 13 13 10 7 10 9 10 16 23 20 22 14 21 20 19 17
2 2 2 3 5 6 10 18 29 36 98 100 100 92 94 100 66 49 42 26 21 18 17 18 17 16 16 16 13 12 12 13 9 6 11 12 12 21 39 51 23 19 27 20 78
2 2 2 4 5 7 15 18 26 55 100 100 100 95 96 98 67 60 44 32 25 22 18 18 18 16 16 14 13 13 11 10 11 8 6 12 13 22 40 49 40 25 34 23 100
2 2 3 4 7 12 18 23 25 58 100 100 100 100 100 98 74 66 43 32 25 22 16 16 16 16 13 13 11 10 10 9 9 9 7 10 13 20 40 47 52 36 41 29 100
2 2 4 6 10 17 23 26 29 85 96 100 99 100 100 98 78 62 42 34 28 25 19 16 17 17 13 11 9 8 7 7 8 8 7 7 11 17 45 62 53 54 43 26 98
2 3 5 7 13 20 32 30 24 89 90 99 100 100 100 96 79 50 43 36 32 27 21 17 15 16 14 11 8 6 6 6 7 8 7 8 7 14 25 38 62 80 65 43 89
2 4 6 10 16 28 31 23 37 86 89 95 100 100 100 91 68 51 48 42 35 29 23 19 16 15 14 12 9 7 6 5 6 7 6 7 7 8 13 34 62 89 96 71 62
4 5 9 18 22 28 28 32 70 87 90 95 100 99 100 86 63 59 52 42 35 32 26 22 18 13 12 13 12 10 6 5 5 6 6 5 4 7 10 16 55 84 100 100 77
5 6 11 18 17 27 38 53 72 77 92 100 100 100 100 88 70 55 53 43 39 35 29 25 18 14 10 13 13 12 9 5 5 5 6 5 3 5 12 13 24 45 100 95 100
6 9 12 13 26 40 48 74 92 78 95 92 98 100 93 98 64 57 51 45 39 35 33 29 22 17 13 12 13 13 12 7 4 4 5 6 4 4 5 13 13 21 41 96 100
8 13 17 22 29 45 58 83 87 85 91 95 98 100 98 97 64 57 53 45 40 37 34 30 26 20 15 12 13 13 14 12 9 4 4 4 5 4 4 5 12 13 16 39 85
9 11 18 25 40 54 76 96 87 84 91 93 100 100 99 90 68 59 55 47 42 40 36 31 31 26 21 20 12 12 12 12 11 9 5 3 4 5 4 5 7 18 19 29 86
10 14 24 34 44 60 82 95 86 90 86 95 97 98 98 90 74 68 60 50 44 41 35 32 34 30 29 26 18 12 10 11 12 10 9 6 4 3 4 5 5 6 19 26 40
13 16 24 31 49 71 86 94 83 87 96 100 97 100 100 92 75 75 58 52 45 40 38 32 35 35 35 29 23 16 12 12 14 13 13 12 10 4 4 4 5 5 7 11 20

GFSSW_250_rhum_114.txt.gz
RH
100 100 100 87 90 65 58 44 25 19 14 11 9 8 7 6 6 6 6 8 9 9 9 6 5 4 5 4 3 4 4 4 4 4 5 4 4 6 5 6 6 5 4 6 7
100 100 100 98 80 71 51 43 28 18 15 14 12 8 8 9 8 7 7 8 9 9 6 5 4 4 4 3 3 4 4 4 3 3 3 3 3 3 3 3 3 4 5 4 6
100 100 100 99 79 54 35 29 21 19 14 17 13 9 10 11 9 10 12 10 9 8 6 5 4 4 3 3 3 3 3 3 3 2 2 2 2 2 3 3 3 4 3 2 6
100 100 100 90 55 41 24 21 18 16 15 15 14 10 13 12 12 15 13 10 9 7 5 4 4 4 3 3 3 2 2 2 2 2 2 1 1 2 2 3 4 2 2 3 6
100 96 73 60 33 28 22 19 16 14 16 16 13 13 15 17 20 22 18 11 7 7 6 6 5 3 3 3 2 2 2 2 1 1 1 1 1 1 2 2 2 2 3 4 6
98 82 46 39 18 18 17 19 16 14 15 16 16 16 18 22 34 44 26 9 10 12 16 10 4 3 2 2 2 1 1 1 1 1 1 1 1 1 1 1 2 2 5 8 10
88 42 43 26 13 12 13 18 17 15 15 19 19 19 24 51 68 57 14 15 27 27 16 12 6 4 3 2 2 1 1 1 1 1 1 1 1 1 1 1 1 3 6 14 54
65 32 24 21 10 8 10 17 15 15 20 21 20 25 30 83 93 36 25 42 38 22 15 12 8 5 4 2 2 1 1 1 1 1 1 1 1 1 1 2 2 4 6 8 22
49 33 16 11 6 5 7 13 12 15 18 26 29 27 76 99 68 50 38 48 36 20 14 10 7 5 3 2 2 1 1 1 1 1 1 1 1 1 2 2 3 6 9 12 56
27 14 9 5 4 4 5 9 9 15 21 36 31 52 100 98 90 54 64 51 29 19 12 7 6 4 3 2 2 2 2 2 2 1 2 2 2 2 2 2 4 10 9 8 8
11 6 4 3 3 4 4 6 7 14 19 44 42 91 90 100 94 69 70 41 24 17 11 7 5 3 3 3 2 2 2 2 3 2 2 2 2 3 7 3 6 10 10 14 14
6 3 3 2 3 3 4 5 8 12 32 45 59 96 96 98 78 90 63 30 21 17 10 8 6 5 4 4 4 5 4 3 4 3 2 2 3 9 19 4 7 16 20 12 32
3 2 2 2 2 2 3 5 11 15 30 51 65 100 94 95 84 84 53 27 20 14 12 8 7 7 6 5 6 6 6 5 5 4 3 2 3 9 62 12 9 14 20 12 11
2 2 2 2 2 3 4 6 14 28 30 56 85 96 100 92 98 72 36 26 20 16 14 12 10 10 9 7 7 7 7 7 6 6 4 4 4 5 23 70 48 17 13 11 10
2 2 2 2 2 3 5 9 21 27 45 60 76 95 100 99 88 60 32 26 19 16 16 14 13 12 10 9 8 8 7 7 8 6 7 4 3 6 8 57 86 56 25 13 15
2 2 2 2 3 4 6 20 25 35 42 75 90 100 100 100 76 47 32 26 22 18 18 17 14 11 9 9 9 8 7 6 6 6 5 7 3 4 8 11 37 69 37 17 18
2 2 2 3 4 6 10 28 30 51 58 77 97 100 100 95 68 42 35 27 23 20 18 18 15 12 9 8 8 7 7 6 5 6 7 5 6 4 4 9 15 16 18 17 20
2 2 2 4 5 10 18 26 52 49 61 86 100 100 97 88 61 44 37 29 24 21 20 18 15 14 12 9 7 6 5 4 4 5 7 6 7 4 5 9 13 16 18 19 21
2 2 4 5 9 16 24 31 52 56 68 97 100 100 96 78 54 45 39 33 26 24 19 16 14 13 12 10 7 5 4 4 4 5 6 6 8 8 5 5 10 16 20 23 24
2 3 4 8 12 21 28 30 53 77 88 100 100 93 95 70 52 49 44 35 29 24 20 16 14 12 12 9 8 5 4 4 4 4 5 6 9 10 8 5 7 10 19 26 24
4 4 6 11 17 21 25 40 70 73 98 100 100 87 85 63 56 50 44 36 30 26 21 17 14 13 11 11 9 8 4 4 4 4 4 5 8 11 10 7 7 11 16 22 23
5 6 9 10 13 20 33 48 74 90 100 100 98 91 76 63 59 48 43 37 34 30 24 22 15 11 12 10 10 9 8 4 3 4 4 5 7 9 10 10 8 9 17 18 26
6 8 8 11 18 27 36 58 75 96 100 100 92 92 75 66 57 48 46 40 38 33 29 24 18 17 10 11 11 12 11 8 4 4 4 4 6 6 10 11 11 9 14 18 26
10 12 10 15 27 33 38 65 75 93 100 98 92 92 77 61 61 55 48 43 40 34 31 27 20 18 11 10 12 12 13 11 7 4 4 4 4 5 5 9 14 14 11 15 20
14 12 17 28 39 45 66 94 83 89 100 98 93 95 73 64 61 58 49 46 40 37 33 32 25 21 14 13 11 11 13 12 11 7 4 4 3 4 6 4 5 12 18 13 14
16 20 26 42 62 76 98 99 88 86 97 96 89 91 76 68 66 64 51 46 42 40 35 34 31 27 22 19 17 11 10 11 13 14 12 5 3 4 4 5 6 5 6 14 15
17 27 41 62 69 93 100 98 95 92 98 100 92 94 81 72 69 68 53 49 46 44 39 38 35 31 32 24 23 16 14 12 14 15 17 17 10 6 4 5 5 7 6 6 11

GFSSW_250_rhum_117.txt.gz
RH
100 100 100 100 100 85 97 77 62 55 47 32 19 13 9 9 8 7 7 6 6 6 6 6 6 6 5 4 4 4 4 4 4 4 6 6 6 7 11 12 12 9 6 10 11
100 100 100 97 100 94 82 64 67 46 33 23 16 13 10 11 10 7 7 7 7 6 5 5 4 4 3 3 3 3 3 3 3 3 4 5 4 5 7 7 8 4 8 9 8
100 100 100 100 100 85 66 50 51 34 24 20 15 12 10 12 10 7 7 8 8 6 5 5 4 4 4 3 3 3 3 3 3 3 3 4 4 4 4 5 6 4 6 8 8
100 100 100 100 100 75 74 48 47 28 18 18 12 13 14 13 12 9 9 9 8 7 6 5 4 4 3 3 3 2 2 2 2 2 2 3 3 3 3 4 4 3 4 4 5
100 100 100 100 100 100 93 54 32 21 15 16 13 13 13 14 13 13 13 11 10 8 6 5 4 3 3 3 3 3 2 2 2 2 2 2 2 3 4 4 3 3 3 3 3
100 100 100 100 100 84 41 28 22 16 14 14 15 15 16 16 19 18 20 13 10 8 6 4 4 4 4 3 3 2 2 2 2 2 2 2 2 2 2 2 2 3 3 4 4
100 100 100 88 74 37 21 13 16 12 12 16 15 17 23 23 27 24 17 11 10 9 6 8 8 8 4 4 3 3 2 2 2 2 1 1 1 1 1 2 2 2 3 3 4
100 96 85 45 21 12 8 9 10 9 13 17 19 30 26 40 36 27 29 20 32 31 21 17 11 5 4 3 2 2 2 1 1 1 1 1 1 1 1 1 2 2 2 2 3
49 35 19 11 7 6 6 6 7 8 16 20 28 26 51 51 44 61 35 52 53 35 21 14 10 7 5 3 3 2 2 2 1 1 1 1 1 1 1 1 1 2 2 2 6
11 6 5 5 4 3 4 4 5 8 18 22 23 41 61 70 87 67 64 72 44 27 20 14 11 9 6 4 3 2 2 1 1 1 1 1 1 1 1 1 1 1 2 3 5
3 3 2 2 2 2 2 4 5 11 20 20 34 51 86 93 78 84 98 74 33 26 18 13 10 7 5 4 3 2 2 2 2 1 1 1 1 1 1 1 1 1 2 5 7
2 2 2 2 2 2 3 4 6 13 17 27 33 80 98 89 99 98 81 39 30 23 15 11 7 5 4 3 3 2 2 2 2 2 2 2 1 1 1 1 2 2 3 7 16
1 1 1 2 2 2 3 4 8 14 22 31 61 72 88 96 100 100 50 33 26 17 13 9 8 6 5 4 3 3 3 2 2 2 2 2 2 1 1 2 2 3 9 20 20
1 1 1 2 2 2 3 6 9 16 30 32 64 82 94 100 100 78 36 30 23 18 16 12 10 8 6 4 4 3 4 4 3 3 3 3 2 2 2 2 4 8 15 22 21
1 1 2 2 2 3 4 7 11 29 28 50 80 91 100 100 94 43 36 30 21 18 15 12 11 10 7 6 4 4 3 4 4 4 3 4 3 2 2 4 6 8 23 32 38
1 2 2 2 2 4 6 10 20 26 43 71 88 100 100 100 63 40 32 25 22 19 17 13 11 10 8 5 4 4 3 3 4 3 4 5 4 3 3 6 8 19 26 55 76
2 2 2 3 3 5 9 16 23 33 53 90 99 100 100 81 47 36 29 23 21 18 17 14 11 9 7 5 4 4 3 3 3 3 4 7 7 5 6 8 26 15 25 40 53
2 2 3 3 4 7 12 21 33 43 97 95 100 100 98 54 42 34 28 24 22 20 18 17 14 11 8 6 5 3 3 3 3 3 5 7 7 7 8 20 54 27 22 31 35
3 3 4 4 6 10 19 28 41 87 99 100 100 100 73 47 39 35 30 26 24 21 16 15 13 10 7 5 4 3 3 2 3 3 4 6 8 8 8 12 24 50 40 35 34
4 4 6 7 10 14 22 41 74 99 100 100 100 88 53 46 41 35 32 30 24 19 16 13 13 10 8 6 5 4 3 2 2 3 4 6 9 9 10 7 40 61 76 42 27
5 6 9 10 12 14 31 70 91 100 99 100 94 65 54 50 43 35 35 32 25 18 15 14 13 12 9 8 7 6 5 4 3 3 4 6 8 11 10 11 20 52 76 38 37
9 13 12 11 16 26 49 71 94 100 100 99 81 61 57 50 42 36 36 30 27 22 19 15 12 13 14 11 7 8 6 4 4 3 3 4 6 9 11 11 12 12 31 61 58
11 11 14 17 27 49 67 89 100 100 100 91 70 63 53 48 42 38 37 34 30 27 25 20 16 15 15 14 13 11 9 5 4 4 3 4 5 5 8 14 15 14 12 19 16
15 14 17 31 48 68 85 96 100 97 93 90 71 62 51 47 43 40 38 38 34 33 30 27 22 18 18 16 13 13 12 10 5 5 6 5 4 5 5 5 10 15 16 13 12
16 13 21 36 57 82 86 98 100 100 96 94 76 61 55 51 47 43 42 41 39 38 35 32 31 26 24 17 15 14 14 14 12 6 6 7 6 6 5 5 5 5 10 16 14
57 18 26 59 56 79 81 100 99 100 100 100 84 66 63 59 54 48 46 46 44 43 39 38 37 32 28 24 21 18 16 14 15 13 11 8 7 8 6 5 5 5 6 6 12
97 68 20 51 62 81 86 94 100 100 100 100 99 77 70 67 62 55 51 49 49 46 44 42 42 38 34 30 27 22 19 16 14 15 15 17 15 13 10 9 7 6 5 6 7

GFSSW_250_rhum_120.txt.gz
RH
99 100 100 100 100 100 100 100 100 92 83 77 58 47 40 30 22 11 8 6 6 5 6 6 6 7 6 8 9 7 8 9 8 8 7 6 5 6 7 12 14 13 14 22 12
100 100 100 100 100 100 100 100 100 100 91 77 62 43 42 30 19 12 8 6 7 6 6 5 5 4 4 5 5 4 5 4 5 5 5 5 4 6 5 6 13 11 11 21 15
100 100 100 100 100 100 100 86 100 100 100 84 47 36 28 21 16 10 9 7 6 7 6 6 5 4 3 3 3 3 3 3 4 4 4 4 4 5 5 6 7 12 13 15 8
100 100 100 100 100 100 100 100 100 100 81 69 50 27 22 16 14 12 10 8 9 8 6 5 5 3 3 3 3 2 3 4 4 3 3 4 4 3 3 4 4 8 8 10 5
100 100 100 100 100 100 100 99 100 95 49 41 31 21 18 16 15 13 12 11 10 8 6 5 4 4 3 3 2 2 3 3 3 3 3 3 3 3 3 3 3 4 4 5 4
65 53 53 74 59 61 71 74 65 50 19 25 20 17 17 15 14 15 15 13 11 9 7 6 5 4 3 2 2 2 2 2 2 2 2 2 2 2 2 2 2 3 3 3 3
15 15 14 16 16 17 18 22 20 15 13 18 13 16 16 17 19 17 17 17 12 11 11 8 6 4 3 3 3 2 2 2 2 2 2 2 2 2 2 2 2 2 3 3 2
6 5 4 4 6 7 9 10 10 10 14 12 13 19 20 23 22 20 18 16 18 16 15 8 5 4 5 4 3 2 2 2 2 2 2 2 2 2 2 2 2 2 2 3 3
2 2 2 2 3 4 5 6 9 11 10 12 20 21 28 29 25 29 35 33 49 38 27 18 14 10 6 4 4 4 3 2 2 2 2 2 2 2 1 1 1 1 2 2 2
2 2 1 2 2 3 4 6 8 9 10 21 21 36 38 50 56 69 60 72 64 34 22 16 12 9 6 4 3 3 2 2 2 2 1 1 1 1 1 1 1 1 1 2 2
1 1 1 1 2 2 3 5 6 7 18 20 42 59 58 72 66 90 92 66 34 25 19 16 14 10 8 6 4 3 2 2 2 2 1 1 1 1 1 1 1 1 1 2 2
1 1 1 1 2 2 3 4 6 12 18 40 53 57 71 78 100 100 88 39 32 28 22 17 13 10 8 6 4 3 3 2 2 1 1 1 1 1 1 1 1 1 1 1 2
1 1 1 1 2 2 3 4 9 16 34 45 61 73 82 99 100 95 42 37 30 24 18 14 10 8 6 4 4 3 2 2 2 1 1 1 1 1 1 1 1 1 1 2 2
1 1 1 2 2 2 3 6 13 22 31 52 72 89 100 100 100 43 38 30 28 23 18 13 9 6 4 3 3 2 2 2 2 2 2 2 2 2 2 1 1 1 2 2 2
2 1 2 2 2 3 5 10 17 26 43 63 97 100 100 100 48 41 36 31 26 22 19 14 10 7 5 4 3 3 2 2 2 2 2 2 2 2 2 2 2 2 2 3 4
2 2 2 3 3 5 8 14 19 34 70 92 100 100 100 52 44 39 31 26 22 19 16 12 10 7 5 4 3 3 2 2 2 2 2 2 2 2 2 2 2 2 2 5 11
3 2 3 4 6 8 11 16 33 61 86 100 100 100 59 45 39 32 26 23 20 16 15 12 9 6 5 4 3 3 2 2 2 2 1 2 2 3 3 2 2 3 6 15 26
4 4 5 8 10 12 19 44 71 95 100 100 100 72 48 42 32 27 22 21 19 19 17 14 10 7 6 4 4 3 2 2 2 2 2 2 3 4 4 4 3 4 10 32 32
7 7 8 11 15 24 49 89 100 100 100 99 74 50 44 34 28 24 21 20 19 18 15 12 9 7 5 4 3 3 3 2 2 2 2 3 4 5 5 6 5 4 10 41 82
12 15 15 17 27 59 82 100 100 100 95 76 54 47 38 32 27 24 21 20 20 19 17 13 11 8 5 4 4 3 3 2 2 2 3 3 4 6 7 8 12 10 20 47 30
10 18 19 43 65 82 98 100 100 99 84 59 49 45 38 34 27 25 23 20 20 19 20 17 13 10 9 8 5 4 3 3 3 3 3 4 5 6 10 13 16 15 19 17 42
21 19 33 65 84 92 100 100 100 91 67 52 45 43 39 36 31 29 27 24 22 21 20 20 17 15 14 13 9 7 5 4 4 3 3 4 5 6 10 20 16 19 23 18 22
37 31 21 67 87 91 100 100 100 84 63 58 47 45 42 38 37 33 31 30 27 28 25 24 22 20 16 12 11 10 8 6 5 5 4 4 6 7 7 14 20 24 30 28 24
92 64 38 38 58 98 100 100 97 89 71 64 55 51 47 43 41 38 36 36 34 32 30 28 27 24 23 19 15 16 13 10 9 6 7 6 6 5 8 9 10 13 20 36 43
100 90 90 34 44 64 98 100 100 98 84 69 59 60 57 50 46 45 42 38 41 39 37 35 35 30 28 27 23 20 17 17 14 13 11 8 6 8 7 7 10 12 17 16 27
68 100 98 79 49 43 58 86 100 100 100 90 67 66 63 62 52 50 48 46 43 45 46 46 45 39 35 34 30 28 22 18 18 20 16 12 11 10 8 10 9 8 11 18 15
100 71 99 89 98 79 36 56 73 94 99 96 95 82 71 65 62 55 52 48 47 45 47 52 51 49 43 42 40 36 31 28 24 21 20 18 18 15 13 12 11 9 8 8 11

GFSSW_250_rhum_123.txt.gz
RH
100 100 100 100 100 100 100 100 100 100 100 86 92 98 98 100 68 52 34 22 17 12 9 7 6 5 4 5 7 8 11 11 14 11 19 10 10 10 9 11 12 15 19 29 25
100 93 96 100 94 91 100 100 100 100 100 100 74 87 86 99 59 40 25 20 15 10 8 6 6 4 4 4 4 6 8 7 8 9 8 7 8 7 7 8 10 10 13 26 35
94 59 69 69 90 81 91 95 98 100 100 100 100 89 100 54 49 29 24 16 14 10 8 6 5 5 4 4 4 3 4 6 5 6 6 7 6 5 5 7 9 9 8 13 25
54 40 38 43 35 43 57 85 84 97 99 100 92 81 77 58 30 26 20 17 13 10 7 6 6 6 4 4 3 3 4 4 4 5 5 5 4 4 4 6 5 7 7 8 15
14 14 17 22 21 22 25 35 64 76 100 100 92 72 46 28 28 21 18 15 12 11 8 8 7 5 4 4 3 3 3 3 3 3 3 4 4 4 5 4 4 5 6 6 8
6 5 6 8 10 11 14 17 30 53 74 78 72 45 28 32 20 16 15 16 15 12 10 9 7 5 4 4 3 3 2 3 2 2 2 3 3 2 3 3 4 4 4 5 5
3 2 2 3 4 5 8 12 16 26 40 43 23 25 38 16 16 18 22 19 17 17 12 9 7 5 5 4 4 3 3 3 2 2 2 2 2 2 2 2 2 2 3 3 4
2 2 2 2 2 2 4 5 8 12 18 16 23 27 17 18 26 27 27 23 21 16 13 11 8 6 5 4 4 3 3 3 2 2 2 2 2 2 2 2 2 2 2 2 3
1 1 1 2 2 2 3 3 6 9 14 19 17 20 26 30 32 30 25 27 38 30 20 11 7 6 5 4 4 3 3 2 2 2 2 2 2 2 2 2 2 2 2 2 2
1 1 1 1 1 2 2 4 8 15 14 20 26 34 31 34 35 57 61 69 42 38 27 18 14 10 7 7 5 4 3 3 3 2 2 2 2 2 2 2 2 2 2 2 2
1 1 1 1 2 2 3 6 8 10 20 32 35 35 43 82 72 87 85 60 41 31 22 19 13 9 7 4 4 4 4 3 3 2 2 2 2 2 2 2 1 1 1 2 2
1 1 1 1 2 2 3 6 10 18 36 34 42 87 90 95 100 97 52 43 34 29 23 17 12 9 6 5 4 3 2 2 2 2 1 1 1 1 1 1 1 1 1 1 1
2 2 2 2 2 3 5 7 17 33 31 58 92 96 100 100 67 51 45 39 33 27 20 15 12 8 6 6 5 4 3 2 2 2 2 1 1 1 1 1 1 1 1 1 1
2 2 2 2 3 4 6 12 23 35 71 90 100 100 96 52 50 47 44 37 30 23 16 12 10 8 7 6 5 4 3 2 2 2 2 1 1 1 1 1 1 1 1 1 1
3 2 3 3 4 7 14 21 41 75 89 100 100 78 52 50 46 41 36 32 26 20 16 12 9 7 5 4 4 3 2 2 2 2 1 1 1 2 2 2 1 1 1 2 2
6 7 7 8 12 19 38 65 89 98 100 93 60 52 48 43 39 34 29 26 22 16 13 10 7 6 4 4 3 2 2 2 2 1 1 1 2 2 2 2 2 1 2 2 3
10 12 17 24 41 69 90 99 100 100 71 51 48 46 39 35 31 29 25 21 17 14 10 9 7 6 4 4 3 2 2 2 2 2 1 1 2 2 3 2 2 2 3 8 8
24 26 40 65 78 89 97 98 89 60 51 47 43 35 32 28 25 24 20 19 17 15 13 10 7 6 4 4 3 2 2 2 2 2 2 2 2 3 3 3 2 3 3 9 10
60 56 64 77 76 74 84 79 59 52 47 43 36 30 31 28 26 24 21 18 17 16 12 9 6 5 4 4 3 2 2 2 2 2 2 2 3 3 4 4 3 4 4 6 18
46 56 63 71 72 74 73 64 52 48 43 40 33 30 31 28 27 28 23 21 20 18 16 13 8 5 4 5 3 2 2 2 2 2 2 3 3 5 6 5 4 4 10 14 22
81 83 51 58 67 67 74 60 55 49 44 39 33 32 31 31 29 30 28 26 24 23 20 18 13 10 5 5 4 4 3 3 3 2 2 3 4 5 7 7 9 11 14 11 26
98 99 89 63 60 62 77 59 58 54 53 46 40 38 37 33 33 34 34 32 27 26 24 23 20 19 17 10 7 6 5 4 4 4 3 3 3 5 6 8 12 15 14 9 20
84 100 97 98 71 60 59 56 59 55 56 53 48 45 44 40 38 38 37 38 35 33 31 25 24 21 26 22 16 9 8 8 8 7 6 5 4 4 6 11 14 18 18 16 19
86 72 97 92 100 97 62 57 64 55 53 52 58 53 46 46 45 43 45 43 43 41 37 34 30 28 29 29 25 21 15 11 11 9 10 9 8 7 6 5 20 26 29 26 28
97 84 100 100 72 99 93 65 38 50 56 54 51 59 58 53 47 45 45 47 46 44 42 40 39 32 32 34 31 27 25 24 18 14 12 12 12 12 10 9 7 15 29 31 40
100 97 96 100 100 100 93 100 88 50 42 53 53 51 60 65 63 57 52 47 47 48 46 44 41 40 38 36 41 36 35 27 30 27 19 18 13 13 13 12 11 9 30 22 20
100 83 58 59 100 80 92 88 96 92 79 42 53 55 52 60 59 65 63 65 60 52 55 50 47 46 45 46 41 42 40 36 29 28 29 31 24 19 16 14 16 15 14 33 37

GFSSW_250_rhum_126.txt.gz
RH
37 49 43 49 60 73 86 100 100 94 100 100 100 100 100 93 100 100 84 100 68 55 34 20 12 8 6 7 7 8 9 11 16 14 12 9 8 10 12 15 15 17 18 31 30
14 11 12 15 20 28 45 85 96 93 100 100 100 100 100 90 99 90 100 79 62 55 28 15 13 8 7 5 5 5 6 6 9 12 12 10 10 8 8 11 16 14 13 18 23
8 7 7 8 10 14 25 51 64 70 100 100 100 100 100 99 86 99 80 73 57 32 21 17 11 8 8 5 4 4 4 5 5 8 9 9 8 8 8 11 11 10 12 13 16
4 4 4 4 6 7 14 28 38 64 93 100 100 100 100 84 87 80 59 50 35 28 23 14 11 8 6 5 4 4 3 4 4 5 7 8 11 8 6 10 5 7 8 9 13
3 2 3 3 4 5 8 17 38 70 69 94 100 100 100 96 68 54 40 30 26 26 17 15 11 9 6 5 4 3 3 3 3 3 4 5 6 4 4 2 4 5 7 7 7
2 2 2 2 3 4 6 12 23 54 62 77 88 97 97 81 57 37 36 37 23 22 17 13 10 8 5 5 4 3 3 3 2 3 3 3 4 4 2 3 4 4 5 6 6
1 1 1 2 2 2 6 12 18 25 37 44 46 78 69 43 43 54 37 26 21 17 17 16 11 8 6 4 3 3 3 2 2 2 2 2 2 2 3 3 4 4 3 5 6
1 1 1 1 2 2 5 8 12 16 21 24 26 50 36 44 47 34 28 28 27 24 22 15 11 8 6 4 4 3 2 2 3 2 2 2 2 2 3 3 2 3 2 3 4
1 1 1 1 2 2 3 5 8 11 13 13 19 36 36 37 37 45 52 65 55 47 36 22 14 10 8 5 4 3 3 3 2 2 2 2 2 2 2 2 2 2 2 2 2
1 1 1 2 2 2 3 4 7 12 21 35 45 39 44 76 94 97 78 63 53 41 31 21 13 10 7 5 4 3 3 3 3 2 2 2 2 2 2 2 2 2 2 2 2
2 2 2 2 2 4 6 12 21 24 30 37 54 99 100 100 91 70 59 48 36 28 20 16 11 8 6 5 4 4 4 3 3 2 2 2 2 2 2 2 1 2 2 2 2
2 2 2 3 3 5 8 12 22 36 62 95 100 100 99 76 62 57 40 32 30 24 18 13 10 8 8 7 6 5 4 4 3 3 3 3 3 2 2 2 2 2 2 2 2
4 4 4 6 7 10 17 39 72 90 98 100 97 75 62 58 49 39 34 29 24 19 14 12 11 9 8 6 4 4 3 3 3 2 3 2 2 2 2 2 2 2 2 2 2
12 12 12 18 25 41 62 83 94 100 86 66 63 58 50 44 39 38 34 28 22 17 13 10 8 7 6 5 4 3 3 2 2 2 2 2 2 2 2 2 2 2 1 1 1
59 53 60 67 82 93 91 79 64 58 56 51 48 45 42 38 35 31 27 22 18 14 11 8 7 5 5 4 4 3 3 2 2 2 2 2 1 2 2 2 2 2 2 1 1
57 53 52 51 48 48 50 55 52 49 47 45 42 38 34 32 29 27 24 20 17 12 9 7 5 5 4 3 3 3 2 2 2 2 2 2 1 2 2 2 2 2 2 1 1
62 57 48 49 49 50 49 45 41 43 41 39 34 32 29 26 25 22 20 16 13 11 8 6 5 5 4 3 2 2 2 2 2 2 2 2 2 2 2 2 2 2 2 2 2
80 72 65 49 48 48 46 42 41 37 36 36 32 29 27 27 26 24 22 16 12 10 8 7 5 4 4 3 2 2 2 2 2 2 2 2 2 2 2 2 2 3 2 3 3
57 78 75 62 54 43 44 40 38 35 33 35 36 33 31 29 30 28 25 20 16 12 9 7 6 4 4 3 2 2 2 2 2 2 2 2 2 3 2 3 4 3 3 4 10
96 62 66 73 53 57 53 47 44 41 38 40 41 38 36 34 34 34 34 29 23 18 14 10 7 6 5 4 3 3 2 2 2 2 2 2 3 4 4 5 4 4 5 4 5
61 94 75 73 60 66 82 59 56 45 46 45 42 41 42 42 39 36 34 35 35 30 23 20 14 10 6 6 6 4 3 3 3 2 2 2 3 4 7 6 6 6 7 7 8
34 56 94 89 71 63 66 90 69 49 56 48 46 48 49 47 44 40 39 38 37 38 36 30 25 19 14 10 9 7 5 5 4 4 4 3 3 4 4 9 9 11 10 11 12
45 51 49 73 98 81 79 64 68 74 34 47 51 49 48 46 50 50 45 41 40 40 38 38 37 29 25 22 18 13 9 8 7 6 5 5 5 4 4 6 10 15 17 20 23
60 73 55 36 66 91 88 85 88 69 75 52 35 47 50 49 49 49 52 51 45 43 42 40 41 40 35 32 32 26 21 15 12 10 9 8 8 8 6 5 5 11 18 24 29
44 66 80 61 63 83 100 56 76 71 73 73 61 33 40 44 52 49 53 56 58 49 46 43 40 40 45 38 41 42 37 31 23 16 12 11 10 9 9 8 7 6 13 28 34
64 60 48 44 48 58 71 97 64 68 86 79 79 71 44 32 41 46 46 48 52 63 58 56 54 42 40 42 40 43 44 40 35 30 26 18 14 12 11 10 11 10 8 9 32
53 58 88 55 56 60 97 96 96 84 100 98 85 81 83 82 41 44 51 53 47 48 58 62 61 62 51 43 44 42 47 44 43 38 33 34 29 22 17 14 11 13 15 18 18